Date StartTime U_cm/s V_cm/s W_cm/s Ustd_cm/s Vstd_cm/s Wstd_cm/s Uvar_(cm/s)^2 Vvar_(cm/s)^2 Wvar_(cm/s)^2 KE_(m/s)^2 TurbulentKE_(m/s)^2 HorizWindSpeed_cm/s FrictionSpeec_cm/s DragCoef SpeedOfSound_m/s SonicTemperature_C Pressure_mb 
07/13/2013  00:00:00       10.400      155.558      -15.727       39.534       48.291       27.345     1562.915     2332.020      747.775        1.460        0.232      155.905       25.684        0.027      344.410       21.208      861.180
07/13/2013  00:01:00       11.594      132.781      -17.865       30.816       43.729       25.028      949.612     1912.225      626.379        1.079        0.174      133.287       27.649        0.043      344.393       21.179      861.166
07/13/2013  00:02:00       25.507       84.443       -5.241       43.398       55.973       23.821     1883.364     3132.953      567.429        0.670        0.279       88.212       27.137        0.095      344.311       21.038      861.146
07/13/2013  00:03:00       24.396       88.831       -6.471       41.340       47.739       31.481     1709.019     2279.029      991.055        0.675        0.249       92.120       31.334        0.116      344.346       21.100      861.142
07/13/2013  00:04:00        1.712       98.007       -2.156       32.726       43.493       22.366     1070.965     1891.638      500.226        0.654        0.173       98.022       20.794        0.045      344.376       21.153      861.159
07/13/2013  00:05:00       31.756       89.408      -10.913       27.593       35.797       16.705      761.363     1281.434      279.061        0.572        0.116       94.880       17.487        0.034      344.310       21.037      861.170
07/13/2013  00:06:00       -5.523      145.609      -14.576       38.006       56.498       24.658     1444.488     3191.971      608.021        1.334        0.262      145.714       21.909        0.023      344.231       20.903      861.169
07/13/2013  00:07:00       26.055      159.067      -23.193       26.351       32.424       28.368      694.365     1051.332      804.726        1.453        0.128      161.187       23.780        0.022      344.202       20.854      861.174
07/13/2013  00:08:00       18.813      174.433      -17.272       44.255       48.852       28.020     1958.495     2386.552      785.108        1.810        0.257      175.444       26.566        0.023      344.248       20.931      861.172
07/13/2013  00:09:00       32.484      208.847      -33.713       28.092       39.627       20.793      789.179     1570.277      432.369        2.430        0.140      211.358       19.414        0.008      344.241       20.919      861.169
07/13/2013  00:10:00       45.072      202.725      -27.981       41.350       64.628       41.771     1709.803     4176.800     1744.817        2.577        0.382      207.675       36.408        0.031      344.162       20.781      861.170
07/13/2013  00:11:00       82.562      105.670       10.191       81.293       64.630       53.898     6608.490     4177.086     2904.978        1.589        0.685      134.099       45.390        0.115      344.222       20.888      861.156
07/13/2013  00:12:00       80.546       70.101        3.988       58.127       50.618       40.570     3378.805     2562.214     1645.910        0.950        0.379      106.779       27.850        0.068      344.271       20.971      861.152
07/13/2013  00:13:00      136.221       90.052       62.888      117.022       52.986       50.847    13694.080     2807.566     2585.465        2.485        0.954      163.296       60.391        0.137      344.309       21.033      861.152
07/13/2013  00:14:00       75.582       47.282       63.765       91.996       66.955       47.059     8463.319     4482.913     2214.546        1.358        0.758       89.153       50.193        0.317      344.188       20.829      861.169
07/13/2013  00:15:00       63.807       28.824       38.625       45.773       43.263       33.766     2095.197     1871.673     1140.155        0.575        0.255       70.016       30.080        0.185      344.261       20.954      861.206
07/13/2013  00:16:00      134.589       63.376       31.127       49.106       35.198       34.348     2411.400     1238.902     1179.766        1.396        0.242      148.764       29.259        0.039      344.232       20.903      861.212
07/13/2013  00:17:00       60.995       47.759       23.466       45.494       29.551       28.514     2069.684      873.238      813.060        0.515        0.188       77.468       13.041        0.028      344.137       20.742      861.234
07/13/2013  00:18:00       56.925       36.094       13.104       43.056       23.515       20.718     1853.794      552.934      429.248        0.377        0.142       67.403       22.289        0.109      344.153       20.770      861.250
07/13/2013  00:19:00       31.398       45.510       -3.327       34.154       24.397       18.804     1166.505      595.213      353.576        0.259        0.106       55.290       13.145        0.057      344.061       20.614      861.270
07/13/2013  00:20:00       38.047       62.621       -4.065       28.626       27.033       21.671      819.466      730.774      469.638        0.370        0.101       73.273       12.577        0.029      344.039       20.576      861.289
07/13/2013  00:21:00      130.226       61.557        5.638       34.779       22.085       20.195     1209.596      487.755      407.839        1.144        0.105      144.042        8.563        0.004      344.145       20.756      861.288
07/13/2013  00:22:00      220.998       96.310       24.350       48.777       45.169       37.370     2379.176     2040.274     1396.508        3.226        0.291      241.072       20.193        0.007      344.228       20.895      861.266
07/13/2013  00:23:00      117.591       71.329       58.128       94.525       60.956       49.389     8934.959     3715.659     2439.296        1.869        0.754      137.534       33.872        0.061      344.410       21.208      861.265
07/13/2013  00:24:00       36.973       -0.615       30.164       39.045       46.170       31.468     1524.545     2131.668      990.256        0.346        0.232       36.978       31.755        0.737      344.318       21.052      861.307
07/13/2013  00:25:00       16.268      -37.464        4.213       17.461       32.056       22.027      304.885     1027.604      485.172        0.175        0.091       40.844       17.281        0.179      344.210       20.867      861.329
07/13/2013  00:26:00       27.356       26.454       35.984       34.609       45.148       26.163     1197.789     2038.336      684.496        0.333        0.196       38.055       29.608        0.605      344.129       20.730      861.334
07/13/2013  00:27:00       91.927       73.658       41.377       40.672       27.641       23.624     1654.234      764.013      558.117        0.928        0.149      117.797       16.169        0.019      344.165       20.790      861.321
07/13/2013  00:28:00      112.474       99.985       64.196       43.393       42.716       40.370     1882.962     1824.624     1629.718        1.605        0.267      150.490       30.844        0.042      344.142       20.750      861.303
07/13/2013  00:29:00       42.359      104.358      101.861       35.896       48.250       32.703     1288.557     2328.072     1069.514        1.387        0.234      112.628       29.055        0.067      344.108       20.692      861.328
07/13/2013  00:30:00       47.258       46.203       69.696       53.680       50.070       37.336     2881.507     2506.993     1393.970        0.800        0.339       66.091       38.751        0.344      344.034       20.568      861.358
07/13/2013  00:31:00       44.297       12.779       24.217       30.385       25.445       22.530      923.276      647.445      507.602        0.239        0.104       46.104       18.216        0.156      343.988       20.488      861.374
07/13/2013  00:32:00      109.248      117.435       84.121       72.661       48.458       44.207     5279.617     2348.190     1954.223        2.119        0.479      160.394       27.772        0.030      344.108       20.691      861.370
07/13/2013  00:33:00       23.829       80.325      103.075       32.968       43.774       19.318     1086.863     1916.204      373.176        1.051        0.169       83.785       18.554        0.049      344.043       20.582      861.360
07/13/2013  00:34:00       37.330       65.076       89.496       38.192       36.834       23.652     1458.656     1356.759      559.414        0.851        0.169       75.022       16.621        0.049      343.947       20.418      861.361
07/13/2013  00:35:00       20.349       46.702       62.109       43.437       40.647       28.864     1886.791     1652.167      833.124        0.541        0.219       50.943       29.396        0.333      343.921       20.375      861.368
07/13/2013  00:36:00       10.002        9.007       23.875       28.929       32.220       21.222      836.876     1038.137      450.361        0.154        0.116       13.460       19.521        2.104      343.919       20.370      861.390
07/13/2013  00:37:00       50.244      -58.143       -0.046       36.486       20.527       17.618     1331.228      421.376      310.397        0.398        0.103       76.844       20.650        0.072      344.179       20.814      861.402
07/13/2013  00:38:00        5.984      -43.042        7.842       21.308       20.089       17.985      454.043      403.581      323.458        0.157        0.059       43.456       12.661        0.085      344.064       20.620      861.403
07/13/2013  00:39:00        6.074       31.173       33.296       28.705       13.327        6.749      823.964      177.622       45.544        0.158        0.052       31.759        5.272        0.028      343.859       20.268      861.402
07/13/2013  00:40:00      -10.007       -5.269       28.745       18.168       19.904       13.072      330.091      396.182      170.887        0.093        0.045       11.309       12.253        1.174      343.925       20.381      861.403
07/13/2013  00:41:00        1.580        3.950       36.356       15.360       19.991       10.131      235.917      399.660      102.642        0.104        0.037        4.254        7.991        3.528      343.885       20.313      861.402
07/13/2013  00:42:00       10.546      -44.595       13.258       21.236       30.884       24.518      450.975      953.818      601.156        0.214        0.100       45.825       15.875        0.120      344.114       20.705      861.417
07/13/2013  00:43:00      -27.901       -5.123        2.939       16.349       26.644       11.661      267.275      709.921      135.981        0.096        0.056       28.368        9.519        0.113      343.898       20.335      861.442
07/13/2013  00:44:00      -36.156       71.987      -15.392       21.094       19.577        8.716      444.977      383.270       75.975        0.382        0.045       80.557        8.979        0.012      343.980       20.475      861.455
07/13/2013  00:45:00       -8.164       52.996       -8.121       16.933       13.591        6.952      286.737      184.709       48.327        0.173        0.026       53.621        4.410        0.007      344.088       20.658      861.453
07/13/2013  00:46:00       37.151       25.058        0.876       13.289       12.893       11.852      176.606      166.242      140.481        0.125        0.024       44.811        9.686        0.047      344.081       20.647      861.463
07/13/2013  00:47:00       39.941       30.627       18.148       24.363       16.718       18.139      593.550      279.506      329.013        0.203        0.060       50.332       11.664        0.054      343.710       20.014      861.451
07/13/2013  00:48:00       35.857        9.256       25.124       22.116       15.185       14.614      489.104      230.575      213.560        0.147        0.047       37.033       11.931        0.104      343.603       19.831      861.433
07/13/2013  00:49:00       73.177       27.347       25.645       23.063       15.913       20.644      531.889      253.224      426.164        0.399        0.061       78.120       13.002        0.028      343.655       19.919      861.421
07/13/2013  00:50:00       93.514        6.465       12.101       34.190       31.596       21.006     1168.931      998.316      441.242        0.577        0.130       93.737       11.414        0.015      343.795       20.158      861.423
07/13/2013  00:51:00       39.603       15.137       33.890       33.111       31.087       24.814     1096.364      966.400      615.736        0.281        0.134       42.398       19.544        0.212      343.750       20.082      861.420
07/13/2013  00:52:00       38.777       58.488       51.071       23.624       19.834       14.660      558.100      393.376      214.916        0.435        0.058       70.175        6.939        0.010      343.933       20.395      861.435
07/13/2013  00:53:00       10.270       11.408       18.518       13.599       16.326        9.712      184.922      266.526       94.325        0.056        0.027       15.350       10.133        0.436      343.804       20.174      861.460
07/13/2013  00:54:00      -38.360        7.045       -3.989       24.861       18.643       15.156      618.073      347.557      229.717        0.137        0.060       39.002       13.179        0.114      343.461       19.588      861.467
07/13/2013  00:55:00      -66.768      -18.789       -5.108       22.415       14.744        8.560      502.444      217.395       73.274        0.281        0.040       69.361        7.283        0.011      343.440       19.553      861.463
07/13/2013  00:56:00      -61.974      -16.789       -9.324       27.242       10.423        7.312      742.121      108.639       53.465        0.256        0.045       64.207        7.167        0.012      343.747       20.077      861.458
07/13/2013  00:57:00       22.722       11.919       -2.407       13.410       10.558        7.072      179.824      111.475       50.012        0.050        0.017       25.658        5.676        0.049      343.914       20.360      861.451
07/13/2013  00:58:00       28.133       10.850       -8.179       11.074        9.783        9.563      122.638       95.705       91.448        0.064        0.015       30.153        5.192        0.030      344.026       20.554      861.451
07/13/2013  00:59:00        9.286        2.152       -2.112       12.416        7.664        5.124      154.160       58.738       26.257        0.017        0.012        9.532        2.069        0.047      344.131       20.733      861.458
07/13/2013  01:00:00      -31.075       -8.570       -7.484       15.287        7.801        7.093      233.685       60.859       50.313        0.072        0.017       32.235        7.025        0.048      343.703       20.000      861.465
07/13/2013  01:01:00       -8.786      -10.341       -3.527        6.529        5.419        4.619       42.626       29.361       21.335        0.014        0.005       13.569        4.754        0.123      343.750       20.080      861.470
07/13/2013  01:02:00       -3.265       14.752       -9.449       16.725       15.144        6.589      279.715      229.347       43.418        0.043        0.028       15.109        8.008        0.281      343.870       20.285      861.479
07/13/2013  01:03:00        3.056       45.622      -10.017       18.990       11.999        5.171      360.603      143.972       26.743        0.136        0.027       45.724        4.389        0.009      344.069       20.627      861.493
07/13/2013  01:04:00       42.205       41.013       -6.401       13.298       13.128        9.586      176.842      172.332       91.894        0.197        0.022       58.850        8.096        0.019      344.119       20.709      861.503
07/13/2013  01:05:00       30.607       19.138       -5.559       17.761        9.981        8.875      315.440       99.629       78.769        0.091        0.025       36.098        8.656        0.058      344.059       20.607      861.503
07/13/2013  01:06:00       81.906       54.182        8.208       22.863       15.708       15.187      522.738      246.734      230.635        0.536        0.050       98.205       10.893        0.012      343.973       20.463      861.486
07/13/2013  01:07:00       11.759       13.662       11.448       28.661       25.689       17.480      821.444      659.913      305.542        0.112        0.089       18.026       12.933        0.515      343.711       20.014      861.478
07/13/2013  01:08:00      -71.430        8.785       -5.427       23.146       15.947        9.600      535.719      254.304       92.169        0.305        0.044       71.968        9.847        0.019      343.614       19.850      861.505
07/13/2013  01:09:00     -117.748       11.553      -16.279       32.772       22.867       14.612     1073.996      522.880      213.496        0.804        0.091      118.313        6.666        0.003      343.308       19.329      861.540
07/13/2013  01:10:00      -39.196       21.157       -5.746       31.040       26.997       12.593      963.478      728.825      158.573        0.193        0.093       44.542        9.688        0.047      343.330       19.367      861.538
07/13/2013  01:11:00       21.521       16.276        4.944       18.119       21.422       10.026      328.304      458.919      100.519        0.082        0.044       26.983        9.157        0.115      343.722       20.033      861.526
07/13/2013  01:12:00       75.032       34.937        5.876       25.169       13.965       17.031      633.484      195.026      290.062        0.400        0.056       82.767        8.923        0.012      343.572       19.778      861.501
07/13/2013  01:13:00       -8.119        1.197       21.908       15.667       38.422       26.821      245.468     1476.260      719.359        0.149        0.122        8.207       26.271       10.247      343.248       19.225      861.498
07/13/2013  01:14:00     -100.894       17.093      -16.385       37.116       23.083       19.522     1377.603      532.848      381.128        0.652        0.115      102.332       20.363        0.040      343.397       19.480      861.538
07/13/2013  01:15:00     -114.125        0.563      -18.515       28.951       14.037       13.110      838.162      197.029      171.883        0.729        0.060      114.126       13.832        0.015      343.343       19.389      861.563
07/13/2013  01:16:00      -83.569        2.863      -12.812        8.705        9.742        6.895       75.785       94.914       47.535        0.369        0.011       83.618        4.081        0.002      343.642       19.899      861.567
07/13/2013  01:17:00      -67.461      -17.659       -6.919       17.158       14.148        6.052      294.404      200.160       36.628        0.272        0.027       69.734        5.972        0.007      343.646       19.905      861.561
07/13/2013  01:18:00      -49.268      -22.818      -12.831       14.094        9.557        7.376      198.641       91.337       54.403        0.173        0.017       54.295        5.314        0.010      343.411       19.503      861.545
07/13/2013  01:19:00      -31.994       -1.006      -10.719        6.381        7.065        5.143       40.714       49.917       26.454        0.063        0.006       32.010        4.981        0.024      343.439       19.552      861.527
07/13/2013  01:20:00      -22.882        3.579       -2.319        9.085        5.517        2.930       82.535       30.436        8.583        0.033        0.006       23.160        3.027        0.017      343.566       19.768      861.518
07/13/2013  01:21:00      -16.165      -12.171       -1.323        9.601        8.680        4.894       92.184       75.342       23.952        0.030        0.010       20.234        2.241        0.012      343.690       19.979      861.508
07/13/2013  01:22:00      -13.548      -20.021       -2.789        9.644       10.876        5.955       93.009      118.283       35.465        0.042        0.012       24.174        3.767        0.024      343.494       19.644      861.505
07/13/2013  01:23:00      -18.140      -35.295       -9.935       12.264        9.824        6.287      150.400       96.510       39.523        0.098        0.014       39.684        3.222        0.007      343.549       19.739      861.514
07/13/2013  01:24:00      -11.934      -31.107       -2.572        9.624        8.909        5.873       92.626       79.362       34.494        0.066        0.010       33.318        5.326        0.026      343.637       19.889      861.528
07/13/2013  01:25:00       -3.085      -32.704       -4.363       17.101        7.627       10.248      292.458       58.172      105.029        0.078        0.023       32.850        4.687        0.020      343.636       19.888      861.540
07/13/2013  01:26:00      -41.560      -29.646       -9.163       17.521        7.130        7.602      306.988       50.834       57.787        0.155        0.021       51.050        7.906        0.024      343.359       19.415      861.558
07/13/2013  01:27:00      -71.532       -8.535      -12.477        7.678        9.002        7.076       58.949       81.029       50.074        0.277        0.010       72.039        2.996        0.002      343.152       19.063      861.579
07/13/2013  01:28:00      -61.337       -3.003      -14.369        8.695        6.721        7.270       75.600       45.178       52.857        0.208        0.009       61.410        3.041        0.002      343.160       19.078      861.589
07/13/2013  01:29:00      -28.860      -11.420       -8.044        9.662        9.916        6.305       93.357       98.329       39.750        0.063        0.012       31.037        6.133        0.039      343.242       19.216      861.593
07/13/2013  01:30:00        8.862      -25.379       -2.874       16.007        7.483        8.955      256.219       55.995       80.191        0.056        0.020       26.882        8.624        0.103      343.308       19.328      861.592
07/13/2013  01:31:00        2.239      -27.143        0.335        9.576        6.077        5.956       91.704       36.927       35.471        0.045        0.008       27.235        5.263        0.037      343.269       19.263      861.603
07/13/2013  01:32:00       12.399        3.027       13.458       14.318       23.343       12.812      204.995      544.910      164.145        0.063        0.046       12.763       15.534        1.481      343.142       19.046      861.604
07/13/2013  01:33:00       10.115       53.228       65.708       19.292       19.072        9.734      372.189      363.727       94.743        0.404        0.042       54.181       10.874        0.040      343.266       19.257      861.595
07/13/2013  01:34:00       -7.998       22.712       45.079       13.125       19.613       13.783      172.262      384.676      189.965        0.168        0.037       24.079       13.117        0.297      343.202       19.148      861.596
07/13/2013  01:35:00      -11.085        9.656       32.288       11.370       18.452       13.671      129.280      340.458      186.892        0.096        0.033       14.701       13.513        0.845      343.315       19.339      861.615
07/13/2013  01:36:00       -5.707        0.660       23.141       11.768       15.652       12.487      138.475      244.975      155.915        0.055        0.027        5.745       12.021        4.379      343.301       19.316      861.627
07/13/2013  01:37:00       13.345        2.149       30.217       18.076       18.549       14.273      326.743      344.055      203.708        0.098        0.044       13.517       13.085        0.937      343.029       18.854      861.634
07/13/2013  01:38:00       90.793       38.501       21.071       41.683       18.670       24.292     1737.499      348.570      590.083        0.642        0.134       98.619       19.419        0.039      342.952       18.722      861.646
07/13/2013  01:39:00       84.897       23.587       11.426       40.641       26.576       21.727     1651.726      706.264      472.050        0.536        0.142       88.112       12.398        0.020      343.012       18.825      861.653
07/13/2013  01:40:00       56.863       15.879        9.663       23.952       23.351       18.567      573.692      545.274      344.718        0.252        0.073       59.038       14.112        0.057      342.986       18.779      861.639
07/13/2013  01:41:00       14.198       -5.754       10.675       25.892       28.156       13.268      670.401      792.774      176.038        0.099        0.082       15.320       16.081        1.102      342.908       18.648      861.635
07/13/2013  01:42:00      -39.537       -9.313       -2.992       38.005       23.977       16.093     1444.413      574.889      258.991        0.197        0.114       40.619        8.059        0.039      342.801       18.465      861.650
07/13/2013  01:43:00      -91.052       -1.224       -6.914       34.127       15.825       12.941     1164.648      250.443      167.464        0.496        0.079       91.060       12.532        0.019      342.528       18.000      861.680
07/13/2013  01:44:00      -89.754       14.385       -8.680       28.438       26.794       17.560      808.733      717.916      308.356        0.509        0.092       90.899       17.978        0.039      342.554       18.046      861.683
07/13/2013  01:45:00      -69.596       26.149      -14.488       10.180       10.495        7.336      103.642      110.147       53.821        0.300        0.013       74.346        5.105        0.005      343.006       18.815      861.690
07/13/2013  01:46:00      -16.784       19.146       -7.373       15.961       14.957       11.855      254.769      223.714      140.539        0.066        0.031       25.461        8.598        0.114      343.449       19.568      861.697
07/13/2013  01:47:00       63.032       11.044       10.646       24.555       15.780       14.145      602.946      249.013      200.080        0.263        0.053       63.992       14.422        0.051      343.347       19.394      861.684
07/13/2013  01:48:00       40.366       41.832       35.994       26.029       22.523       18.610      677.497      507.270      346.319        0.310        0.077       58.132       14.555        0.063      343.134       19.031      861.685
07/13/2013  01:49:00       23.289       33.682       48.520       32.716       16.937       12.577     1070.358      286.874      158.174        0.277        0.076       40.949       15.027        0.135      342.926       18.677      861.689
07/13/2013  01:50:00      -25.379       -5.045       11.069       11.419       11.826       11.155      130.389      139.856      124.427        0.059        0.020       25.876        7.871        0.093      342.938       18.697      861.693
07/13/2013  01:51:00      -18.060       -8.242        1.176       16.127        7.497        9.146      260.067       56.203       83.655        0.040        0.020       19.852        9.909        0.249      342.861       18.567      861.696
07/13/2013  01:52:00      -42.132       -2.259      -10.163        4.868        7.040        5.371       23.699       49.555       28.853        0.099        0.005       42.192        2.330        0.003      342.920       18.667      861.694
07/13/2013  01:53:00       -1.693       -6.849        4.374       25.478       10.380        5.944      649.107      107.744       35.332        0.043        0.040        7.055        3.651        0.268      342.898       18.630      861.696
07/13/2013  01:54:00       61.597       36.032       19.021       18.013       17.668       11.455      324.485      312.157      131.220        0.311        0.038       71.362        3.338        0.002      342.864       18.573      861.703
07/13/2013  01:55:00       86.513       40.732       11.465       27.226       19.455       17.526      741.242      378.498      307.168        0.535        0.071       95.622       14.402        0.023      342.779       18.428      861.699
07/13/2013  01:56:00       92.642       40.866       11.946       22.160       23.037       22.272      491.080      530.711      496.045        0.596        0.076      101.255       17.769        0.031      342.827       18.510      861.679
07/13/2013  01:57:00       68.501       17.017       11.642       27.711       23.448       18.876      767.920      549.826      356.304        0.340        0.084       70.583       15.389        0.048      342.719       18.326      861.681
07/13/2013  01:58:00       65.894       28.961        3.422       16.938       15.281       14.304      286.885      233.511      204.599        0.296        0.036       71.977        8.688        0.015      342.684       18.267      861.699
07/13/2013  01:59:00       34.837       12.303        7.661       20.266       14.309        8.921      410.691      204.742       79.578        0.106        0.035       36.945        5.072        0.019      342.693       18.281      861.707
07/13/2013  02:00:00       20.610      -10.429        2.179       15.871       13.345        6.254      251.881      178.082       39.117        0.050        0.023       23.098        4.470        0.037      342.695       18.285      861.723
07/13/2013  02:01:00        6.652      -40.239       -8.971       13.887       14.727        9.523      192.856      216.894       90.691        0.112        0.025       40.785        3.268        0.006      342.904       18.641      861.732
07/13/2013  02:02:00      -20.110      -26.092        5.935       13.851       10.969       16.211      191.837      120.309      262.796        0.085        0.029       32.943        7.434        0.051      342.773       18.417      861.735
07/13/2013  02:03:00      -36.123      -23.258       -3.844       12.659        9.906       10.997      160.247       98.127      120.941        0.112        0.019       42.963        5.119        0.014      342.748       18.375      861.735
07/13/2013  02:04:00      -28.452      -41.209       -5.247       13.565       11.715        8.543      184.000      137.237       72.988        0.146        0.020       50.077        5.979        0.014      342.842       18.536      861.719
07/13/2013  02:05:00       16.234      -71.883       -7.977       23.137       27.661       18.246      535.321      765.106      332.906        0.356        0.082       73.694       15.490        0.044      343.139       19.039      861.710
07/13/2013  02:06:00       34.689      -54.609        2.069       25.167       14.982       15.311      633.368      224.450      234.413        0.264        0.055       64.696        7.744        0.014      343.247       19.224      861.709
07/13/2013  02:07:00       67.054      -45.500        5.037       27.919       21.123       13.820      779.491      446.199      190.979        0.400        0.071       81.034       14.880        0.034      343.320       19.348      861.706
07/13/2013  02:08:00       -6.602      -40.573      -10.191       37.780       32.807       16.302     1427.311     1076.291      265.765        0.228        0.138       41.107       13.332        0.105      342.971       18.753      861.716
07/13/2013  02:09:00      -27.517      -16.760        1.034       35.706        8.398       13.747     1274.899       70.533      188.988        0.129        0.077       32.219       19.838        0.379      342.805       18.470      861.727
07/13/2013  02:10:00      -33.382        0.821      -12.613       16.495        9.807        9.306      272.089       96.183       86.608        0.086        0.023       33.392        6.791        0.041      342.922       18.670      861.714
07/13/2013  02:11:00      -34.379       -0.125        6.033       23.576       17.082       12.385      555.832      291.809      153.391        0.111        0.050       34.379       11.611        0.114      343.094       18.964      861.705
07/13/2013  02:12:00      -50.173      -20.399       -5.257       17.072        9.527        8.759      291.453       90.757       76.716        0.171        0.023       54.161        9.092        0.028      342.831       18.516      861.718
07/13/2013  02:13:00      -77.643      -30.507      -11.573        9.409        8.722        6.687       88.523       76.079       44.713        0.365        0.010       83.422        2.500        0.001      342.674       18.249      861.719
07/13/2013  02:14:00      -60.821      -11.290       -9.671        7.756        9.976        5.915       60.161       99.530       34.986        0.206        0.010       61.860        2.035        0.001      342.611       18.141      861.719
07/13/2013  02:15:00      -46.351      -23.215      -15.518       17.931       19.744        8.905      321.532      389.816       79.300        0.186        0.040       51.839        3.965        0.006      342.734       18.350      861.700
07/13/2013  02:16:00      -66.955      -19.785       -3.478       31.358       33.917       16.786      983.310     1150.364      281.763        0.365        0.121       69.817       16.339        0.055      342.719       18.326      861.693
07/13/2013  02:17:00     -100.423      -16.026      -10.452       31.505       27.072       18.213      992.579      732.893      331.711        0.625        0.103      101.694       18.977        0.035      342.492       17.940      861.691
07/13/2013  02:18:00      -85.207      -47.554       -3.314       41.280       36.427       22.822     1704.010     1326.943      520.832        0.654        0.178       97.578       23.675        0.059      342.269       17.561      861.685
07/13/2013  02:19:00      -64.163      -25.048       -3.089       38.771       20.611       16.463     1503.153      424.822      271.045        0.348        0.110       68.879       16.159        0.055      342.266       17.555      861.685
07/13/2013  02:20:00      -22.188       -8.661      -10.347       14.117       14.011       10.787      199.285      196.309      116.367        0.059        0.026       23.818        8.636        0.131      342.318       17.644      861.679
07/13/2013  02:21:00      -98.126      -60.595      -11.137       41.505       31.312       13.497     1722.682      980.456      182.158        0.815        0.144      115.327       12.883        0.012      342.442       17.853      861.683
07/13/2013  02:22:00      -82.455      -55.694        3.147       30.572       20.865       17.563      934.675      435.341      308.467        0.579        0.084       99.503       10.116        0.010      342.248       17.525      861.685
07/13/2013  02:23:00      -59.907      -28.130       -3.677       28.399       16.732       10.523      806.506      279.960      110.731        0.280        0.060       66.182        6.638        0.010      342.192       17.431      861.679
07/13/2013  02:24:00      -40.349      -34.197        0.379       33.949       14.349       17.108     1152.517      205.896      292.700        0.222        0.083       52.892       19.094        0.130      342.217       17.473      861.684
07/13/2013  02:25:00     -125.756      -69.539      -16.115       29.227       30.841       22.114      854.243      951.197      489.042        1.160        0.115      143.702       20.080        0.020      342.114       17.298      861.692
07/13/2013  02:26:00      -50.375      -28.727       -0.303       38.196       24.159        9.851     1458.969      583.634       97.036        0.275        0.107       57.990       12.337        0.045      342.154       17.365      861.701
07/13/2013  02:27:00        4.533      -18.551        2.242       16.883       13.109       14.598      285.020      171.859      213.112        0.052        0.033       19.097       10.188        0.285      342.354       17.703      861.700
07/13/2013  02:28:00      -58.655      -24.235       -0.296       37.880       17.803       11.934     1434.867      316.943      142.410        0.296        0.095       63.465       12.737        0.040      342.593       18.111      861.707
07/13/2013  02:29:00      -89.568      -22.114      -12.458       22.284       21.212       14.242      496.597      449.967      202.828        0.491        0.057       92.258       10.111        0.012      342.259       17.544      861.722
07/13/2013  02:30:00      -96.648       -4.548      -11.451       22.343       15.712       14.873      499.225      246.880      221.219        0.523        0.048       96.755       13.024        0.018      342.026       17.148      861.722
07/13/2013  02:31:00      -95.901      -45.174       -3.673       16.233       16.620       13.861      263.498      276.227      192.114        0.599        0.037      106.008       11.184        0.011      342.118       17.304      861.716
07/13/2013  02:32:00      -75.129      -34.446       -1.507       20.940       14.836       11.267      438.499      220.100      126.941        0.381        0.039       82.649        6.808        0.007      342.133       17.329      861.722
07/13/2013  02:33:00      -60.982       -9.903       -5.390       12.938       10.396        8.741      167.395      108.079       76.405        0.210        0.018       61.781        4.058        0.004      342.154       17.365      861.730
07/13/2013  02:34:00      -71.351      -16.439       -2.752       18.276       16.791       10.916      334.017      281.949      119.153        0.305        0.037       73.220        8.151        0.012      342.113       17.296      861.725
07/13/2013  02:35:00     -110.544      -38.377       -8.245       28.415       18.767       10.167      807.432      352.198      103.370        0.751        0.063      117.016        8.056        0.005      342.100       17.273      861.738
07/13/2013  02:36:00      -97.719      -36.009       -4.286       32.198       24.833       13.695     1036.701      616.684      187.564        0.635        0.092      104.142       12.963        0.015      341.978       17.068      861.744
07/13/2013  02:37:00      -38.231      -27.195        6.736       34.992       18.652       14.119     1224.429      347.895      199.338        0.201        0.089       46.916       16.181        0.119      342.142       17.345      861.730
07/13/2013  02:38:00      -63.789      -36.309        5.437       37.807       20.752       17.418     1429.398      430.634      303.370        0.379        0.108       73.399       16.984        0.054      342.178       17.405      861.728
07/13/2013  02:39:00     -108.553      -40.930       -1.797       15.814       15.865       14.879      250.098      251.695      221.385        0.709        0.036      116.013       11.591        0.010      342.094       17.263      861.731
07/13/2013  02:40:00      -99.899      -11.118       -2.180       35.652       29.431       19.196     1271.055      866.205      368.493        0.631        0.125      100.516       19.237        0.037      341.853       16.854      861.723
07/13/2013  02:41:00      -93.588        5.656       -6.742       41.529       25.153       15.287     1724.616      632.660      233.682        0.571        0.130       93.759       18.150        0.037      341.721       16.632      861.709
07/13/2013  02:42:00      -18.503      -13.340        3.890       20.058       13.041       12.030      402.308      170.074      144.715        0.063        0.036       22.811       11.239        0.243      341.733       16.650      861.705
07/13/2013  02:43:00      -61.695      -19.538       -6.268       28.062       16.669       10.427      787.453      277.839      108.724        0.270        0.059       64.715       11.182        0.030      341.937       16.996      861.697
07/13/2013  02:44:00      -73.354      -17.208       -5.975       14.063       14.381        8.791      197.764      206.808       77.289        0.310        0.024       75.346        5.038        0.004      341.934       16.991      861.681
07/13/2013  02:45:00      -75.281      -22.571       -4.221       15.396       22.669        9.571      237.047      513.882       91.607        0.352        0.042       78.592        9.862        0.016      341.838       16.829      861.685
07/13/2013  02:46:00      -76.678      -14.700       -8.750       17.984       22.913       10.691      323.426      525.010      114.300        0.357        0.048       78.074       10.325        0.017      341.797       16.759      861.697
07/13/2013  02:47:00      -79.013      -19.500       -6.195       38.931       22.171       17.731     1515.608      491.568      314.401        0.449        0.116       81.384       16.052        0.039      341.623       16.464      861.696
07/13/2013  02:48:00      -97.300      -10.466        0.371       54.471       37.441       32.363     2967.087     1401.854     1047.333        0.750        0.271       97.861       32.578        0.111      341.398       16.082      861.685
07/13/2013  02:49:00     -133.216       13.030      -10.206       39.008       27.791       21.432     1521.590      772.319      459.313        1.039        0.138      133.852       17.837        0.018      341.481       16.223      861.686
07/13/2013  02:50:00      -86.010       16.446      -13.318       63.824       32.304       22.063     4073.445     1043.525      486.782        0.672        0.280       87.568       27.758        0.100      341.531       16.309      861.670
07/13/2013  02:51:00      -61.622      -11.861       -5.294       45.387       31.419       20.121     2060.014      987.168      404.866        0.371        0.173       62.753       21.872        0.121      341.511       16.274      861.660
07/13/2013  02:52:00      -45.323      -13.666       -3.972       50.757       25.088       17.770     2576.286      629.394      315.761        0.289        0.176       47.339       17.155        0.131      341.695       16.586      861.666
07/13/2013  02:53:00      -46.899      -42.825       -5.519       54.768       22.151       15.800     2999.504      490.672      249.641        0.390        0.187       63.510       12.518        0.039      341.561       16.359      861.669
07/13/2013  02:54:00     -111.129      -65.237      -12.548       30.987       25.362       19.074      960.194      643.214      363.799        0.936        0.098      128.862       16.019        0.015      341.446       16.162      861.673
07/13/2013  02:55:00     -112.714      -44.894      -13.933       33.221       26.298       18.044     1103.643      691.566      325.601        0.852        0.106      121.326       13.677        0.013      341.378       16.050      861.687
07/13/2013  02:56:00     -115.684      -53.313      -10.988       33.009       30.885       16.607     1089.623      953.910      275.779        0.933        0.116      127.377       16.324        0.016      341.354       16.008      861.700
07/13/2013  02:57:00      -70.203      -40.678       -2.369       39.846       35.268       21.173     1587.674     1243.801      448.313        0.493        0.164       81.137       15.924        0.039      341.383       16.057      861.699
07/13/2013  02:58:00      -56.079      -35.132       -7.042       23.150       27.657       16.514      535.945      764.913      272.698        0.300        0.079       66.175       13.341        0.041      341.373       16.041      861.704
07/13/2013  02:59:00      -94.302      -46.163       -9.668       21.350       24.639       15.043      455.818      607.075      226.292        0.620        0.064      104.995       12.288        0.014      341.415       16.112      861.702
07/13/2013  03:00:00     -124.977      -39.237      -10.098       13.646       19.417       11.274      186.226      377.004      127.092        0.898        0.035      130.991        9.389        0.005      341.425       16.128      861.715
07/13/2013  03:01:00     -144.643      -62.589       -5.503       23.592       19.727       16.510      556.600      389.147      272.572        1.304        0.061      157.604       14.752        0.009      341.477       16.217      861.743
07/13/2013  03:02:00     -130.341      -17.429       -6.351       50.290       41.302       25.981     2529.069     1705.868      675.035        1.112        0.245      131.501       27.453        0.044      341.379       16.050      861.756
07/13/2013  03:03:00     -102.060        9.740       -4.665       33.160       29.932       17.674     1099.592      895.929      312.363        0.642        0.115      102.524       14.103        0.019      341.304       15.923      861.764
07/13/2013  03:04:00     -131.188       15.899       -5.686       30.664       32.554       19.189      940.293     1059.756      368.234        0.993        0.118      132.148       10.564        0.006      341.378       16.050      861.757
07/13/2013  03:05:00      -59.759      -19.684       -1.442       45.701       24.710       17.939     2088.621      610.603      321.815        0.349        0.151       62.917       10.689        0.029      341.349       16.001      861.754
07/13/2013  03:06:00      -86.802      -53.754       -4.965       55.994       24.653       27.337     3135.289      607.753      747.321        0.747        0.225      102.098       32.207        0.100      341.405       16.094      861.770
07/13/2013  03:07:00      -72.304      -39.586       -2.497       15.550       19.058       14.225      241.792      363.211      202.362        0.380        0.040       82.431        9.676        0.014      341.388       16.066      861.757
07/13/2013  03:08:00      -81.954      -20.631       -6.289       18.751       20.178       11.397      351.616      407.150      129.889        0.403        0.044       84.511       10.198        0.015      341.395       16.078      861.759
07/13/2013  03:09:00     -122.625      -54.648       -6.813       18.484       20.723        8.725      341.648      429.434       76.122        0.946        0.042      134.251        6.471        0.002      341.351       16.004      861.775
07/13/2013  03:10:00     -106.233      -14.244       -8.046       36.987       30.899       21.271     1368.013      954.730      452.464        0.716        0.139      107.184       22.738        0.045      341.294       15.907      861.779
07/13/2013  03:11:00     -146.234      -13.891      -10.721       46.936       33.728       22.660     2203.002     1137.600      513.457        1.277        0.193      146.892       20.189        0.019      341.304       15.924      861.786
07/13/2013  03:12:00      -79.180       -2.931       -8.715       33.226       31.161       26.100     1103.956      970.983      681.223        0.455        0.138       79.234       23.094        0.085      341.251       15.833      861.789
07/13/2013  03:13:00      -74.059      -15.218      -13.457       23.361       24.280       15.690      545.743      589.513      246.178        0.364        0.069       75.606       10.855        0.021      341.265       15.857      861.792
07/13/2013  03:14:00     -108.424      -24.076       -7.606       28.894       42.042       19.241      834.879     1767.565      370.210        0.768        0.149      111.065       12.685        0.013      341.251       15.833      861.800
07/13/2013  03:15:00      -82.097       -1.396       -5.939       38.720       32.535       20.927     1499.219     1058.555      437.936        0.489        0.150       82.109       21.172        0.066      341.221       15.783      861.818
07/13/2013  03:16:00     -142.986       -1.495      -10.043       36.213       25.029       20.816     1311.409      626.457      433.296        1.146        0.119      142.993       15.849        0.012      341.205       15.755      861.811
07/13/2013  03:17:00      -95.598      -16.004       -8.394       35.656       35.973       19.008     1271.326     1294.090      361.290        0.620        0.146       96.929       16.581        0.029      341.205       15.757      861.825
07/13/2013  03:18:00      -96.907      -46.152        2.395       64.672       59.736       22.752     4182.429     3568.414      517.657        0.990        0.413      107.336       20.248        0.036      341.084       15.552      861.824
07/13/2013  03:19:00      -46.968       -6.034       -2.687       34.351       28.510       22.013     1180.009      812.825      484.554        0.236        0.124       47.354       22.312        0.222      341.149       15.661      861.808
07/13/2013  03:20:00      -84.642      -38.371       -6.196       28.548       35.512       16.274      814.976     1261.073      264.838        0.551        0.117       92.933       11.672        0.016      341.180       15.714      861.800
07/13/2013  03:21:00     -104.498      -35.636       -2.651       61.987       32.965       23.989     3842.377     1086.661      575.483        0.885        0.275      110.407       27.869        0.064      341.127       15.625      861.801
07/13/2013  03:22:00     -109.841      -25.557      -13.086       30.483       28.364       12.817      929.199      804.522      164.265        0.739        0.095      112.775        7.080        0.004      341.194       15.737      861.805
07/13/2013  03:23:00      -56.798      -31.783       -0.381       38.692       21.199       17.186     1497.042      449.395      295.350        0.324        0.112       65.086       19.887        0.093      341.229       15.797      861.807
07/13/2013  03:24:00     -105.445      -29.420       -6.317       11.146       19.235       12.190      124.238      370.002      148.603        0.633        0.032      109.472        8.218        0.006      341.246       15.825      861.804
07/13/2013  03:25:00     -118.521      -39.317       -9.659       18.498       15.555       12.293      342.166      241.950      151.114        0.821        0.037      124.872        6.942        0.003      341.213       15.771      861.809
07/13/2013  03:26:00     -118.677      -29.511       -9.514       24.182       16.017        9.581      584.781      256.557       91.803        0.799        0.047      122.291        6.001        0.002      341.179       15.713      861.819
07/13/2013  03:27:00      -78.638      -44.721       -7.357       19.481       30.987       16.574      379.516      960.196      274.692        0.493        0.081       90.465       16.912        0.035      341.181       15.715      861.814
07/13/2013  03:28:00      -67.810      -14.311       -6.033       29.974       23.268       18.617      898.451      541.405      346.589        0.331        0.089       69.304       12.613        0.033      341.135       15.638      861.822
07/13/2013  03:29:00      -58.350      -25.484       -2.796       34.845       16.870       17.554     1214.199      284.609      308.148        0.293        0.090       63.673       13.238        0.043      341.163       15.684      861.824
07/13/2013  03:30:00       -8.035      -34.952        7.302       33.772       17.927       16.732     1140.564      321.371      279.965        0.154        0.087       35.864        9.194        0.066      341.171       15.700      861.831
07/13/2013  03:31:00      -37.868      -18.217       -6.581       19.755       20.260       15.891      390.255      410.487      252.532        0.143        0.053       42.022       13.892        0.109      341.201       15.751      861.840
07/13/2013  03:32:00      -46.487      -10.375       -6.379       20.596       14.638       15.016      424.182      214.259      225.492        0.159        0.043       47.631        7.058        0.022      341.282       15.887      861.844
07/13/2013  03:33:00      -63.526      -58.416       -9.802       21.443       25.308       11.575      459.807      640.497      133.973        0.439        0.062       86.302       10.298        0.014      341.234       15.806      861.852
07/13/2013  03:34:00      -79.543      -53.009       -5.457       26.433       20.082       13.105      698.710      403.292      171.748        0.522        0.064       95.588        6.132        0.004      341.198       15.745      861.852
07/13/2013  03:35:00      -89.634      -54.690       -6.717       13.982       16.086       14.635      195.493      258.755      214.182        0.587        0.033      105.001        8.706        0.007      341.186       15.724      861.850
07/13/2013  03:36:00      -91.627      -54.843       -7.767       17.313       15.459       12.284      299.753      238.989      150.892        0.608        0.034      106.786        8.870        0.007      341.207       15.759      861.843
07/13/2013  03:37:00     -102.425      -35.313      -19.020       16.738       17.812       13.375      280.152      317.271      178.888        0.644        0.039      108.341        8.480        0.006      341.131       15.633      861.820
07/13/2013  03:38:00      -83.523      -14.847       -9.677       30.043       27.482       17.414      902.591      755.288      303.240        0.463        0.098       84.832       19.637        0.054      341.065       15.519      861.800
07/13/2013  03:39:00     -114.210       10.637      -15.205       43.738       29.986       21.238     1912.971      899.135      451.034        0.832        0.163      114.704       12.674        0.012      341.220       15.782      861.793
07/13/2013  03:40:00      -83.176       14.990       -4.195       45.688       42.631       27.374     2087.367     1817.401      749.342        0.591        0.233       84.516       26.662        0.100      341.359       16.017      861.780
07/13/2013  03:41:00      -90.175        1.507      -14.121       36.529       34.877       22.969     1334.396     1216.424      527.594        0.571        0.154       90.188       19.309        0.046      341.387       16.064      861.772
07/13/2013  03:42:00     -120.295      -20.462      -15.311       29.061       28.858       14.270      844.543      832.767      203.642        0.850        0.094      122.023       11.138        0.008      341.400       16.088      861.785
07/13/2013  03:43:00     -112.856      -25.806       -3.363       41.255       30.775       19.324     1701.962      947.102      373.403        0.822        0.151      115.768       21.200        0.034      341.278       15.880      861.789
07/13/2013  03:44:00     -119.817      -27.874       -8.932       36.933       19.180       15.535     1364.070      367.856      241.335        0.859        0.099      123.017       18.377        0.022      341.252       15.836      861.792
07/13/2013  03:45:00     -142.139      -35.428      -16.265       17.555       14.181       13.982      308.182      201.103      195.500        1.121        0.035      146.488       10.953        0.006      341.221       15.783      861.803
07/13/2013  03:46:00     -148.837        8.293      -18.069       17.317       25.555       12.262      299.894      653.061      150.365        1.183        0.055      149.067        6.868        0.002      341.279       15.882      861.800
07/13/2013  03:47:00     -136.222       21.789      -17.036       40.399       29.112       17.470     1632.087      847.535      305.208        1.105        0.139      137.954       16.640        0.015      341.405       16.094      861.799
07/13/2013  03:48:00     -156.265       45.157      -16.676       48.405       30.311       20.890     2343.090      918.777      436.385        1.522        0.185      162.659       18.405        0.013      341.479       16.218      861.800
07/13/2013  03:49:00     -180.076       47.526      -17.195       33.488       30.640       21.536     1121.460      938.807      463.786        1.875        0.126      186.242       14.504        0.006      341.411       16.104      861.796
07/13/2013  03:50:00     -147.611       48.503       -7.649       54.496       28.502       25.753     2969.801      812.378      663.223        1.432        0.222      155.376       15.278        0.010      341.501       16.255      861.801
07/13/2013  03:51:00     -162.564       40.837      -14.190       36.304       33.160       23.124     1317.947     1099.594      534.718        1.562        0.148      167.615        6.702        0.002      341.482       16.225      861.794
07/13/2013  03:52:00     -125.607        6.223      -12.071       35.772       40.783       21.999     1279.604     1663.218      483.956        0.969        0.171      125.761       19.487        0.024      341.482       16.223      861.780
07/13/2013  03:53:00     -120.403        2.138      -11.199       32.051       38.320       19.085     1027.244     1468.439      364.225        0.874        0.143      120.421       15.361        0.016      341.494       16.246      861.783
07/13/2013  03:54:00     -139.257       16.800      -16.967       28.562       21.685       18.675      815.770      470.239      348.747        1.080        0.082      140.267        8.722        0.004      341.623       16.464      861.778
07/13/2013  03:55:00     -136.841        2.223      -14.030       33.278       26.371       18.061     1107.446      695.449      326.213        1.053        0.106      136.859       15.771        0.013      341.584       16.397      861.762
07/13/2013  03:56:00     -144.082       -0.951      -15.216       30.977       43.275       19.913      959.564     1872.765      396.524        1.211        0.161      144.086       17.584        0.015      341.499       16.254      861.770
07/13/2013  03:57:00     -129.142       27.519       -6.555       28.061       27.898       20.163      787.410      778.290      406.542        0.972        0.099      132.042       14.273        0.012      341.680       16.560      861.759
07/13/2013  03:58:00     -105.662       -0.982       -3.953       37.355       27.951       20.931     1395.406      781.257      438.097        0.690        0.131      105.667       14.469        0.019      341.586       16.402      861.757
07/13/2013  03:59:00     -155.201      -20.974      -13.915       49.877       27.942       23.203     2487.717      780.776      538.387        1.426        0.190      156.612       23.577        0.023      341.407       16.098      861.754
07/13/2013  04:00:00     -123.844      -12.158       -7.654       56.428       34.861       27.706     3184.125     1215.309      767.607        1.035        0.258      124.439       32.884        0.070      341.260       15.848      861.753
07/13/2013  04:01:00     -165.087       -1.192      -17.750       25.491       17.960       13.117      649.808      322.569      172.064        1.436        0.057      165.091       11.442        0.005      341.330       15.968      861.768
07/13/2013  04:02:00     -144.683        5.591      -14.915       24.528       24.797       15.122      601.608      614.878      228.672        1.132        0.072      144.791       11.632        0.006      341.337       15.979      861.764
07/13/2013  04:03:00     -151.171       15.548      -13.480       26.371       28.210       17.385      695.415      795.799      302.226        1.253        0.090      151.969       12.608        0.007      341.403       16.092      861.775
07/13/2013  04:04:00     -133.474       -5.860      -12.594       38.874       26.811       23.535     1511.168      718.815      553.883        1.040        0.139      133.603       19.242        0.021      341.389       16.067      861.792
07/13/2013  04:05:00     -161.083       33.879      -15.370       39.598       32.448       22.501     1568.030     1052.899      506.300        1.523        0.156      164.607       12.746        0.006      341.516       16.281      861.797
07/13/2013  04:06:00     -127.346       50.016      -11.167       44.226       25.943       21.327     1955.940      673.035      454.854        1.096        0.154      136.815       14.732        0.012      341.607       16.437      861.790
07/13/2013  04:07:00     -132.749       37.963      -11.734       32.867       21.215       17.009     1080.211      450.095      289.291        1.051        0.091      138.071        7.350        0.003      341.517       16.285      861.792
07/13/2013  04:08:00     -116.374       25.024      -15.977       23.825       16.522       13.456      567.654      272.976      181.068        0.772        0.051      119.034        6.327        0.003      341.511       16.274      861.783
07/13/2013  04:09:00      -67.034      -10.261        1.429       33.517       38.125       21.575     1123.356     1453.501      465.476        0.382        0.152       67.814       22.674        0.112      341.575       16.383      861.787
07/13/2013  04:10:00      -73.929      -14.412      -16.255       16.115       29.416       14.036      259.686      865.312      196.997        0.363        0.066       75.320        0.902        0.000      341.663       16.532      861.789
07/13/2013  04:11:00      -45.164      -10.386      -10.278       22.493       28.803       14.351      505.925      829.598      205.937        0.190        0.077       46.343       13.234        0.082      341.687       16.572      861.777
07/13/2013  04:12:00      -56.092      -24.996       -5.265       21.931       15.185       12.216      480.951      230.593      149.237        0.233        0.043       61.409       11.981        0.038      341.536       16.316      861.785
07/13/2013  04:13:00      -97.708      -47.575       -9.731       19.491       13.652        8.854      379.888      186.365       78.395        0.627        0.032      108.675        3.252        0.001      341.394       16.077      861.779
07/13/2013  04:14:00     -115.410      -47.613       -6.101       24.701       14.632       13.892      610.138      214.092      192.995        0.832        0.051      124.845       13.819        0.012      341.330       15.969      861.780
07/13/2013  04:15:00      -54.584      -38.162       -1.317       39.618       26.391       21.535     1569.579      696.504      463.756        0.358        0.136       66.601       19.788        0.088      341.278       15.879      861.789
07/13/2013  04:16:00      -33.435      -50.771       12.449       48.608       30.898       22.359     2362.727      954.680      499.936        0.383        0.191       60.791       25.006        0.169      341.336       15.978      861.785
07/13/2013  04:17:00      -43.435      -27.199        4.768       35.694       23.103       17.479     1274.068      533.732      305.531        0.238        0.106       51.248       16.887        0.109      341.353       16.007      861.777
07/13/2013  04:18:00      -46.601      -45.449        6.880       36.262       27.340       15.492     1314.920      747.458      240.009        0.329        0.115       65.094       16.511        0.064      341.349       16.000      861.780
07/13/2013  04:19:00      -13.315      -18.571       14.407       33.274       18.598       17.175     1107.182      345.874      294.964        0.124        0.087       22.851       14.363        0.395      341.234       15.806      861.779
07/13/2013  04:20:00      -89.430      -67.761       -3.233       40.341       29.597       20.983     1627.407      875.956      440.302        0.777        0.147      112.202       19.364        0.030      341.169       15.695      861.772
07/13/2013  04:21:00      -91.462      -56.986        1.126       49.190       34.635       24.592     2419.617     1199.585      604.776        0.792        0.211      107.762       23.003        0.046      341.138       15.642      861.767
07/13/2013  04:22:00      -69.261      -60.385        7.063       52.462       34.312       24.212     2752.263     1177.303      586.209        0.650        0.226       91.889       24.160        0.069      341.084       15.552      861.755
07/13/2013  04:23:00      -88.993      -69.793        4.788       46.107       31.997       27.721     2125.890     1023.776      768.479        0.837        0.196      113.097       25.498        0.051      341.105       15.587      861.764
07/13/2013  04:24:00     -130.522      -69.195       -3.255       32.889       26.668       20.906     1081.676      711.156      437.042        1.203        0.111      147.729       20.262        0.019      341.176       15.708      861.781
07/13/2013  04:25:00     -137.445      -46.739       -4.476       25.669       34.571       18.117      658.919     1195.184      328.228        1.164        0.109      145.174       11.437        0.006      341.146       15.655      861.789
07/13/2013  04:26:00      -85.708      -34.081       -9.789       36.608       28.631       17.701     1340.167      819.755      313.326        0.554        0.124       92.236       15.150        0.027      341.091       15.563      861.786
07/13/2013  04:27:00      -77.878      -44.865       -4.016       34.045       37.557       20.746     1159.042     1410.542      430.396        0.555        0.150       89.877       17.678        0.039      341.002       15.415      861.785
07/13/2013  04:28:00     -121.010        5.619       -7.090       38.117       34.722       18.831     1452.882     1205.616      354.608        0.887        0.151      121.141       19.188        0.025      341.035       15.470      861.790
07/13/2013  04:29:00     -166.162       -6.955      -18.613       34.741       30.579       19.279     1206.908      935.088      371.675        1.526        0.126      166.308       15.511        0.009      341.056       15.505      861.791
07/13/2013  04:30:00     -164.994      -23.049      -12.037       41.389       33.939       27.138     1713.088     1151.866      736.452        1.575        0.180      166.597       20.218        0.015      341.043       15.482      861.799
07/13/2013  04:31:00     -145.245      -41.987       -9.602       39.034       32.583       19.831     1523.668     1061.626      393.271        1.296        0.149      151.192       18.201        0.014      340.988       15.389      861.798
07/13/2013  04:32:00     -120.401      -27.881        1.651       54.246       37.990       25.910     2942.639     1443.205      671.302        1.017        0.253      123.587       28.504        0.053      341.023       15.450      861.801
07/13/2013  04:33:00     -121.562      -35.215      -10.353       40.821       36.064       28.385     1666.350     1300.601      805.708        0.995        0.189      126.560       26.620        0.044      341.023       15.448      861.809
07/13/2013  04:34:00     -119.593      -41.058       -8.606       40.302       34.479       17.406     1624.229     1188.820      302.980        0.959        0.156      126.445        9.294        0.005      341.037       15.473      861.825
07/13/2013  04:35:00     -113.063      -59.968       -8.345       40.708       37.346       22.712     1657.127     1394.716      515.835        1.001        0.178      127.982       16.606        0.017      341.047       15.491      861.832
07/13/2013  04:36:00     -115.219      -26.994       -2.081       43.771       33.719       22.691     1915.865     1136.941      514.900        0.879        0.178      118.339       21.864        0.034      341.046       15.489      861.836
07/13/2013  04:37:00     -145.583       16.552      -11.183       31.610       21.076       19.051      999.166      444.187      362.948        1.170        0.090      146.521       16.319        0.012      341.139       15.644      861.840
07/13/2013  04:38:00     -139.112        2.816      -14.988       26.318       26.100       19.346      692.620      681.204      374.266        1.067        0.087      139.140       11.850        0.007      341.049       15.491      861.837
07/13/2013  04:39:00     -104.663      -42.148       -2.246       57.805       29.005       23.101     3341.414      841.309      533.664        0.873        0.236      112.831       30.907        0.075      341.027       15.455      861.836
07/13/2013  04:40:00     -134.815      -55.833        0.758       28.879       31.960       16.858      834.012     1021.461      284.181        1.172        0.107      145.919        5.827        0.002      341.073       15.534      861.832
07/13/2013  04:41:00     -105.251      -59.276       -1.329       52.131       32.832       22.766     2717.617     1077.952      518.291        0.945        0.216      120.795       22.779        0.036      341.070       15.527      861.830
07/13/2013  04:42:00      -77.113      -58.926       -1.837       38.740       24.482       19.168     1500.783      599.353      367.404        0.594        0.123       97.050        7.816        0.006      341.113       15.600      861.826
07/13/2013  04:43:00      -85.834      -69.527       -0.014       38.669       25.931       21.317     1495.258      672.395      454.435        0.741        0.131      110.461       19.627        0.032      341.104       15.585      861.824
07/13/2013  04:44:00     -134.261      -52.337      -11.955       19.748       16.723       15.307      389.967      279.645      234.308        1.091        0.045      144.101       11.501        0.006      341.051       15.497      861.820
07/13/2013  04:45:00     -131.723      -33.168       -8.113       18.661       20.867       13.627      348.218      435.419      185.708        0.974        0.048      135.835        8.507        0.004      341.008       15.422      861.834
07/13/2013  04:46:00     -136.840      -49.041       -7.582       18.701       18.352       16.267      349.744      336.809      264.626        1.107        0.048      145.362       12.956        0.008      340.955       15.333      861.838
07/13/2013  04:47:00      -98.146      -29.460        3.200       33.165       25.977       18.561     1099.901      674.782      344.528        0.631        0.106      102.472       16.185        0.025      340.940       15.308      861.832
07/13/2013  04:48:00      -86.801      -28.046       -0.305       47.027       25.439       18.799     2211.553      647.122      353.393        0.577        0.161       91.219       23.120        0.064      341.000       15.409      861.839
07/13/2013  04:49:00      -38.897      -18.920        5.632       38.165       22.489       19.032     1456.565      505.767      362.226        0.211        0.116       43.254       15.697        0.132      340.933       15.295      861.846
07/13/2013  04:50:00      -66.417      -69.590        4.159       52.021       40.969       24.465     2706.177     1678.493      598.544        0.713        0.249       96.198       30.299        0.099      340.952       15.327      861.872
07/13/2013  04:51:00      -85.765      -69.222        1.871       46.675       40.351       21.499     2178.531     1628.208      462.219        0.821        0.213      110.215       26.613        0.058      340.917       15.268      861.877
07/13/2013  04:52:00      -60.946      -89.335        4.350       43.569       39.621       27.504     1898.231     1569.813      756.487        0.797        0.211      108.145       25.443        0.055      340.711       14.921      861.877
07/13/2013  04:53:00      -84.323      -60.606       -3.785       41.183       37.484       23.789     1695.998     1405.065      565.916        0.723        0.183      103.843       23.148        0.050      340.697       14.897      861.872
07/13/2013  04:54:00      -28.681      -36.819       16.057       47.751       31.305       24.480     2280.166      979.987      599.280        0.315        0.193       46.671       24.036        0.265      340.712       14.921      861.880
07/13/2013  04:55:00     -134.324     -117.772      -15.106       78.231       57.429       38.284     6120.093     3298.037     1465.690        2.151        0.544      178.643       36.314        0.041      340.519       14.593      861.893
07/13/2013  04:56:00     -173.828     -112.612       -6.263       48.527       55.156       33.037     2354.884     3042.163     1091.428        2.471        0.324      207.118       29.875        0.021      340.554       14.653      861.892
07/13/2013  04:57:00      -85.446      -63.069        3.988       52.428       39.342       22.692     2748.675     1547.776      514.934        0.805        0.241      106.201       27.108        0.065      340.502       14.567      861.888
07/13/2013  04:58:00      -96.784      -78.469       -0.854       42.132       42.738       26.603     1775.122     1826.525      707.727        0.992        0.215      124.597       26.874        0.047      340.504       14.570      861.896
07/13/2013  04:59:00     -116.502      -66.812       -1.790       48.214       34.356       25.427     2324.589     1180.324      646.540        1.109        0.208      134.300       26.781        0.040      340.558       14.663      861.893
07/13/2013  05:00:00      -87.295      -69.591        1.328       57.433       38.902       29.491     3298.584     1513.345      869.722        0.907        0.284      111.640       31.951        0.082      340.574       14.689      861.897
07/13/2013  05:01:00     -105.030      -86.353       -3.104       53.379       33.215       24.696     2849.268     1103.253      609.879        1.153        0.228      135.971       26.042        0.037      340.667       14.846      861.902
07/13/2013  05:02:00     -107.141      -75.583       -8.164       35.347       36.374       20.889     1249.381     1323.084      436.336        1.013        0.150      131.119       19.564        0.022      340.694       14.892      861.915
07/13/2013  05:03:00     -114.459      -73.477       -1.526       53.295       25.484       22.360     2840.391      649.431      499.979        1.125        0.199      136.013       23.868        0.031      340.681       14.870      861.915
07/13/2013  05:04:00      -45.050      -50.807       11.265       41.897       43.489       23.367     1755.374     1891.312      546.009        0.446        0.210       67.903       23.668        0.121      340.624       14.773      861.912
07/13/2013  05:05:00      -93.557      -66.012       -3.471       43.819       34.017       22.517     1920.064     1157.176      507.030        0.835        0.179      114.501       18.462        0.026      340.674       14.858      861.918
07/13/2013  05:06:00     -113.917      -79.550      -10.544       30.968       38.538       19.024      959.006     1485.162      361.925        1.111        0.140      138.944       16.762        0.015      340.641       14.803      861.926
07/13/2013  05:07:00      -44.417       -1.372       -4.423       21.685       20.554        9.184      470.259      422.463       84.338        0.149        0.049       44.438        6.623        0.022      340.448       14.476      861.933
07/13/2013  05:08:00      -59.649      -11.851       -8.508       23.835       11.062        8.450      568.095      122.362       71.407        0.227        0.038       60.815        5.922        0.009      340.427       14.440      861.937
07/13/2013  05:09:00      -71.334      -31.886       -4.728       17.040       16.883        8.877      290.357      285.036       78.793        0.339        0.033       78.136        7.094        0.008      340.507       14.576      861.939
07/13/2013  05:10:00      -58.584      -34.375       -5.143       18.376       17.257       10.067      337.684      297.795      101.350        0.269        0.037       67.925        7.725        0.013      340.563       14.671      861.952
07/13/2013  05:11:00      -82.485      -33.892        0.648       28.730       14.168       13.722      825.415      200.727      188.305        0.458        0.061       89.176       17.642        0.039      340.509       14.580      861.970
07/13/2013  05:12:00      -99.269      -47.231       -4.193       48.461       22.713       15.487     2348.424      515.883      239.836        0.760        0.155      109.933        9.696        0.008      340.544       14.640      861.993
07/13/2013  05:13:00      -16.945      -32.966        6.283       36.713       20.734       15.968     1347.841      429.889      254.972        0.172        0.102       37.067       11.332        0.093      340.529       14.613      862.012
07/13/2013  05:14:00      -70.480      -73.418       -3.506       33.768       30.686       18.291     1140.254      941.651      334.575        0.639        0.121      101.773       15.493        0.023      340.468       14.510      862.019
07/13/2013  05:15:00      -94.846      -73.230      -10.184       24.232       37.479       17.316      587.191     1404.693      299.854        0.838        0.115      119.827       15.020        0.016      340.479       14.528      862.023
07/13/2013  05:16:00      -54.025      -44.044       11.074       46.449       24.995       19.259     2157.544      624.775      370.925        0.407        0.158       69.703       23.260        0.111      340.460       14.495      862.033
07/13/2013  05:17:00      -31.303      -61.510       13.530       44.232       48.219       25.379     1956.442     2325.095      644.090        0.494        0.246       69.017       30.954        0.201      340.465       14.505      862.043
07/13/2013  05:18:00      -70.653     -107.263        8.412       54.550       38.874       31.985     2975.724     1511.195     1023.038        1.104        0.275      128.442       33.783        0.069      340.434       14.451      862.052
07/13/2013  05:19:00     -108.401      -85.683        0.600       52.569       47.578       33.281     2763.474     2263.705     1107.638        1.261        0.307      138.176       31.810        0.053      340.395       14.386      862.055
07/13/2013  05:20:00     -132.178     -114.428       -2.478       44.821       55.102       28.497     2008.887     3036.181      812.091        1.821        0.293      174.828       21.517        0.015      340.337       14.287      862.065
07/13/2013  05:21:00     -150.178     -108.235      -11.616       39.439       43.384       21.573     1555.462     1882.181      465.404        1.915        0.195      185.117       13.705        0.005      340.282       14.193      862.069
07/13/2013  05:22:00     -122.414      -89.880        0.826       42.940       47.204       29.805     1843.876     2228.230      888.340        1.401        0.248      151.867       28.996        0.036      340.206       14.067      862.070
07/13/2013  05:23:00     -125.206      -79.588       -0.770       35.972       35.287       19.046     1293.993     1245.148      362.762        1.246        0.145      148.360       19.669        0.018      340.210       14.074      862.077
07/13/2013  05:24:00      -59.598      -56.900        3.606       22.634       27.562       17.792      512.313      759.685      316.562        0.420        0.079       82.398       14.278        0.030      340.212       14.077      862.085
07/13/2013  05:25:00      -38.020      -36.649       10.228       26.324       22.893       17.920      692.950      524.084      321.112        0.222        0.077       52.808       15.671        0.088      340.356       14.319      862.093
07/13/2013  05:26:00      -27.055      -34.895       10.727       37.004       25.428       18.671     1369.300      646.575      348.592        0.221        0.118       44.155       18.809        0.181      340.411       14.413      862.109
07/13/2013  05:27:00      -81.105      -51.093       -0.136       37.716       21.043       19.962     1422.519      442.822      398.483        0.573        0.113       95.857       20.566        0.046      340.302       14.229      862.130
07/13/2013  05:28:00      -59.720      -19.612        2.204       29.847       21.293       14.229      890.817      453.411      202.457        0.275        0.077       62.858       15.375        0.060      340.184       14.030      862.147
07/13/2013  05:29:00      -82.116      -29.324       -6.148       20.238       14.851       10.747      409.564      220.558      115.502        0.419        0.037       87.195       10.826        0.015      340.201       14.057      862.144
07/13/2013  05:30:00      -59.603       -9.326        0.226       20.536       17.665       14.310      421.747      312.036      204.768        0.229        0.047       60.328       11.311        0.035      340.107       13.900      862.153
07/13/2013  05:31:00      -71.071      -19.557       -4.118       16.564       11.604        9.558      274.378      134.655       91.363        0.298        0.025       73.713        8.666        0.014      340.169       14.005      862.157
07/13/2013  05:32:00      -65.333      -28.646       -4.236       16.749       16.935       12.099      280.522      286.801      146.375        0.291        0.036       71.337       10.323        0.021      340.176       14.019      862.167
07/13/2013  05:33:00      -58.552      -35.635       -0.702       19.752       18.070       12.539      390.131      326.521      157.238        0.279        0.044       68.544        9.955        0.021      340.229       14.105      862.196
07/13/2013  05:34:00      -37.343      -32.282        3.724       21.625       16.681       13.331      467.659      278.267      177.706        0.169        0.046       49.362        9.612        0.038      340.293       14.214      862.209
07/13/2013  05:35:00      -60.957      -30.832       -5.030       15.922       14.139       12.371      253.514      199.908      153.041        0.265        0.030       68.311        8.077        0.014      340.209       14.072      862.216
07/13/2013  05:36:00      -40.177      -38.298       -0.772       23.905       22.827       12.762      571.449      521.078      162.879        0.217        0.063       55.506        9.662        0.030      340.195       14.049      862.231
07/13/2013  05:37:00      -10.758       -3.775       -2.229       15.766       11.996        9.008      248.568      143.906       81.146        0.030        0.024       11.401        5.904        0.268      340.231       14.107      862.242
07/13/2013  05:38:00      -26.184      -34.942        2.513       22.180       20.361       13.755      491.965      414.558      189.211        0.150        0.055       43.664        7.223        0.027      340.252       14.145      862.252
07/13/2013  05:39:00      -13.112      -33.415       10.184       17.613       16.022       16.166      310.225      256.699      261.348        0.111        0.041       35.896        5.249        0.021      340.173       14.012      862.268
07/13/2013  05:40:00      -19.055      -22.674        2.287       18.032       13.956        9.531      325.153      194.767       90.848        0.075        0.031       29.618        6.774        0.052      340.191       14.038      862.299
07/13/2013  05:41:00      -40.961      -30.671       -0.396       32.104       25.755       15.581     1030.650      663.306      242.766        0.228        0.097       51.172        8.452        0.027      340.151       13.971      862.309
07/13/2013  05:42:00      -45.928      -40.104        7.256       30.110       22.120       17.218      906.606      489.295      296.444        0.273        0.085       60.974       13.084        0.046      340.191       14.040      862.317
07/13/2013  05:43:00      -48.205      -47.000        0.180       19.766       19.891       14.948      390.707      395.632      223.430        0.277        0.050       67.325       11.137        0.027      340.145       13.964      862.324
07/13/2013  05:44:00      -21.822      -31.582        4.208       27.093       20.632       15.776      734.012      425.693      248.867        0.145        0.070       38.388       12.829        0.112      340.042       13.790      862.333
07/13/2013  05:45:00      -75.222      -55.704       -7.115       34.939       26.766       15.671     1220.755      716.429      245.594        0.550        0.109       93.602       15.190        0.026      340.027       13.763      862.335
07/13/2013  05:46:00      -73.192      -55.970       -5.003       25.997       25.107       14.650      675.854      630.362      214.637        0.502        0.076       92.139       10.567        0.013      339.965       13.661      862.336
07/13/2013  05:47:00      -80.859      -42.273       -0.950       29.173       19.391       16.175      851.036      375.997      261.636        0.491        0.074       91.243       14.856        0.027      339.932       13.603      862.348
07/13/2013  05:48:00      -86.576      -41.184      -11.289       10.347       10.301        7.413      107.061      106.111       54.955        0.479        0.013       95.872        5.340        0.003      339.983       13.692      862.360
07/13/2013  05:49:00      -49.722      -41.148        0.544       22.866       16.764       18.190      522.838      281.033      330.862        0.265        0.057       64.540       13.367        0.043      339.984       13.692      862.360
07/13/2013  05:50:00      -14.204      -21.327        1.889       14.642       11.262       13.585      214.398      126.829      184.563        0.059        0.026       25.624        9.939        0.150      340.032       13.773      862.362
07/13/2013  05:51:00      -14.375      -20.784        1.671       20.114       10.138       12.948      404.587      102.776      167.662        0.066        0.034       25.271       12.645        0.250      340.019       13.749      862.369
07/13/2013  05:52:00      -40.408      -24.549       -0.845       26.401       17.390       13.806      697.033      302.401      190.607        0.171        0.060       47.281        9.249        0.038      339.951       13.638      862.379
07/13/2013  05:53:00      -37.562      -29.050        2.147       20.599       14.466        8.784      424.326      209.270       77.161        0.148        0.036       47.485        7.778        0.027      340.010       13.737      862.395
07/13/2013  05:54:00      -75.838      -42.091       -5.178       19.353       16.367       12.038      374.552      267.894      144.907        0.417        0.039       86.735        5.020        0.003      340.009       13.732      862.400
07/13/2013  05:55:00      -94.686      -44.022       -4.307       35.587       19.809       21.360     1266.469      392.377      456.258        0.652        0.106      104.419       22.627        0.047      339.994       13.707      862.397
07/13/2013  05:56:00      -67.477      -42.501        3.123       61.472       28.379       22.670     3778.751      805.367      513.936        0.573        0.255       79.746       27.687        0.121      339.987       13.698      862.400
07/13/2013  05:57:00      -96.138      -77.974       -5.419       44.209       28.902       24.329     1954.471      835.351      591.917        0.937        0.169      123.784       24.575        0.039      339.942       13.621      862.403
07/13/2013  05:58:00      -97.826      -93.395        0.059       37.058       42.884       24.173     1373.259     1839.004      584.311        1.104        0.190      135.250       26.644        0.039      339.957       13.646      862.413
07/13/2013  05:59:00      -88.535      -60.511       -1.303       42.709       31.273       25.056     1824.032      977.988      627.805        0.747        0.171      107.238       22.461        0.044      339.938       13.613      862.425
07/13/2013  06:00:00      -83.840      -53.190       -0.146       40.426       21.592       20.150     1634.255      466.195      406.003        0.618        0.125       99.289       22.383        0.051      339.990       13.704      862.430
07/13/2013  06:01:00      -46.992      -26.043        4.433       44.419       23.099       16.082     1973.044      533.545      258.616        0.284        0.138       53.726       23.212        0.187      339.917       13.579      862.422
07/13/2013  06:02:00     -102.381      -14.128      -12.007       23.242       22.916       17.431      540.169      525.126      303.852        0.610        0.068      103.352       14.225        0.019      339.845       13.458      862.424
07/13/2013  06:03:00     -125.586       -4.200      -12.117       38.659       21.507       23.725     1494.534      462.545      562.864        0.923        0.126      125.656       23.560        0.035      339.640       13.114      862.420
07/13/2013  06:04:00     -129.347      -23.983      -13.507       38.893       22.484       17.575     1512.627      505.530      308.880        0.991        0.116      131.552       16.996        0.017      339.686       13.189      862.411
07/13/2013  06:05:00     -118.212      -11.793       -6.608       36.356       31.561       20.730     1321.766      996.117      429.740        0.845        0.137      118.799       18.937        0.025      339.736       13.275      862.410
07/13/2013  06:06:00      -88.946      -17.077       -3.275       34.717       24.365       16.448     1205.277      593.676      270.541        0.514        0.103       90.571       14.173        0.024      339.783       13.354      862.409
07/13/2013  06:07:00      -78.470      -22.526       -5.044       14.959       17.142       13.829      223.765      293.862      191.238        0.370        0.035       81.639        9.914        0.015      339.936       13.611      862.422
07/13/2013  06:08:00     -105.760      -30.168       -7.456       12.907       14.184       10.120      166.578      201.177      102.407        0.631        0.024      109.978        7.329        0.004      339.911       13.568      862.423
07/13/2013  06:09:00      -95.380      -42.687        1.325       17.756       14.813       12.359      315.280      219.420      152.745        0.580        0.034      104.496       10.806        0.011      339.947       13.630      862.433
07/13/2013  06:10:00      -60.872      -22.286        1.453       21.579       14.986       12.989      465.635      224.569      168.719        0.253        0.043       64.824       11.878        0.034      339.969       13.667      862.441
07/13/2013  06:11:00      -48.592      -29.848        4.063       21.441       17.110       10.809      459.729      292.737      116.833        0.207        0.043       57.027        4.633        0.007      340.012       13.741      862.437
07/13/2013  06:12:00      -58.011      -13.187       -1.429       12.575       14.890        8.242      158.125      221.718       67.937        0.199        0.022       59.491        6.254        0.011      340.083       13.859      862.437
07/13/2013  06:13:00      -64.703      -41.250       -2.659       25.205       16.494       12.731      635.269      272.043      162.074        0.348        0.053       76.734        8.317        0.012      340.166       13.998      862.440
07/13/2013  06:14:00      -16.402      -21.513       11.436       29.660       22.071       16.247      879.688      487.130      263.951        0.125        0.082       27.053       15.582        0.332      340.202       14.060      862.443
07/13/2013  06:15:00      -72.370      -77.807       -3.902       34.123       26.548       18.731     1164.366      704.788      350.869        0.676        0.111      106.261       17.912        0.028      340.137       13.950      862.451
07/13/2013  06:16:00      -26.235      -33.249       11.544       40.750       26.293       21.645     1660.586      691.334      468.518        0.237        0.141       42.353       22.714        0.288      340.160       13.988      862.459
07/13/2013  06:17:00      -70.225      -53.735       -0.119       48.872       27.140       20.366     2388.491      736.603      414.779        0.568        0.177       88.425       12.035        0.019      340.145       13.964      862.465
07/13/2013  06:18:00     -101.544      -62.323        3.073       52.310       39.729       23.490     2736.308     1578.379      551.776        0.953        0.243      119.144       24.519        0.042      340.106       13.898      862.467
07/13/2013  06:19:00      -83.586      -45.770        5.106       41.548       30.966       22.685     1726.268      958.886      514.608        0.615        0.160       95.297       21.188        0.049      340.107       13.900      862.475
07/13/2013  06:20:00      -80.962      -52.646       -3.717       39.856       26.204       18.511     1588.536      686.663      342.652        0.598        0.131       96.574       16.903        0.031      340.064       13.828      862.482
07/13/2013  06:21:00      -67.181      -40.128        6.177       40.592       28.163       21.585     1647.704      793.128      465.900        0.453        0.145       78.253       19.849        0.064      340.102       13.891      862.471
07/13/2013  06:22:00      -47.015      -32.950        1.033       45.706       32.111       25.749     2089.020     1031.105      663.030        0.354        0.189       57.412       26.030        0.206      340.190       14.039      862.478
07/13/2013  06:23:00      -61.204      -74.486       -2.073       40.027       32.862       20.388     1602.154     1079.930      415.663        0.620        0.155       96.406       21.673        0.051      340.222       14.094      862.491
07/13/2013  06:24:00      -71.266      -66.741       -1.064       38.724       40.195       25.077     1499.540     1615.602      628.869        0.664        0.187       97.638       26.704        0.075      340.350       14.310      862.500
07/13/2013  06:25:00      -81.863      -79.452        3.506       33.294       36.159       22.095     1108.518     1307.477      488.210        0.796        0.145      114.080       16.546        0.021      340.309       14.239      862.499
07/13/2013  06:26:00      -81.025      -72.651       -0.327       39.330       32.209       25.177     1546.845     1037.388      633.885        0.753        0.161      108.826       20.018        0.034      340.320       14.258      862.511
07/13/2013  06:27:00      -62.967      -65.257        3.298       37.751       43.283       18.614     1425.152     1873.431      346.465        0.594        0.182       90.683       17.455        0.037      340.322       14.260      862.506
07/13/2013  06:28:00      -55.953      -62.897       10.006       47.033       41.518       26.556     2212.088     1723.703      705.207        0.591        0.232       84.183       26.330        0.098      340.313       14.247      862.493
07/13/2013  06:29:00      -75.793      -70.084        8.609       50.591       38.155       28.713     2559.471     1455.774      824.410        0.778        0.242      103.229       31.402        0.093      340.334       14.283      862.502
07/13/2013  06:30:00      -69.948      -71.500        2.948       54.420       40.156       29.839     2961.589     1612.523      890.390        0.774        0.273      100.025       36.551        0.134      340.293       14.213      862.494
07/13/2013  06:31:00     -127.273     -116.408      -16.915       39.352       39.425       23.937     1548.561     1554.321      572.969        1.685        0.184      172.480       11.712        0.005      340.281       14.192      862.507
07/13/2013  06:32:00     -154.566     -125.765       -7.686       50.624       47.204       31.916     2562.824     2228.242     1018.648        2.279        0.290      199.267       31.653        0.025      340.270       14.172      862.513
07/13/2013  06:33:00     -143.876     -115.119       -0.982       61.269       42.665       36.542     3753.854     1820.317     1335.322        2.043        0.345      184.262       38.738        0.044      340.199       14.053      862.518
07/13/2013  06:34:00     -127.472     -106.752       -4.700       48.523       39.738       32.632     2354.511     1579.109     1064.863        1.633        0.250      166.268       30.128        0.033      340.217       14.086      862.522
07/13/2013  06:35:00     -125.536      -77.162       -4.456       36.944       35.613       26.348     1364.892     1268.297      694.206        1.253        0.166      147.354       19.621        0.018      340.195       14.048      862.519
07/13/2013  06:36:00     -124.906      -84.907       -4.813       29.904       31.406       26.084      894.274      986.341      680.381        1.270        0.128      151.032       18.603        0.015      340.209       14.071      862.532
07/13/2013  06:37:00      -89.409      -75.794        0.731       47.250       46.041       27.504     2232.609     2119.752      756.453        0.942        0.255      117.213       27.649        0.056      340.235       14.115      862.545
07/13/2013  06:38:00     -100.588      -86.022       -3.566       36.669       29.644       21.201     1344.597      878.786      449.485        1.010        0.134      132.354       17.124        0.017      340.216       14.083      862.563
07/13/2013  06:39:00     -103.498      -85.808        3.395       33.816       37.079       24.657     1143.523     1374.877      607.972        1.061        0.156      134.443       18.035        0.018      340.319       14.257      862.586
07/13/2013  06:40:00      -83.194      -74.085       -0.774       31.652       31.780       20.058     1001.821     1009.980      402.331        0.741        0.121      111.400       20.965        0.035      340.381       14.363      862.594
07/13/2013  06:41:00      -56.007      -84.297      -10.524       19.278       18.755       12.095      371.638      351.750      146.287        0.561        0.043      101.206       10.784        0.011      340.334       14.281      862.608
07/13/2013  06:42:00      -53.329      -59.745       -8.553       21.447       23.598       15.014      459.993      556.862      225.429        0.386        0.062       80.084       14.505        0.033      340.401       14.396      862.616
07/13/2013  06:43:00      -74.629      -87.692      -15.738       21.636       18.972       11.553      468.132      359.955      133.476        0.723        0.048      115.149       11.472        0.010      340.350       14.310      862.627
07/13/2013  06:44:00      -46.383      -58.173        8.871       26.754       40.298       21.013      715.755     1623.953      441.543        0.420        0.139       74.401       19.854        0.071      340.412       14.415      862.642
07/13/2013  06:45:00      -59.454      -50.153       -0.782       51.405       34.501       21.702     2642.524     1190.320      470.994        0.518        0.215       77.782       13.412        0.030      340.343       14.296      862.649
07/13/2013  06:46:00      -20.727      -15.415       14.374       54.909       29.380       25.706     3014.954      863.159      660.778        0.271        0.227       25.831       29.096        1.269      340.622       14.769      862.668
07/13/2013  06:47:00      -39.662      -18.437       10.351       37.269       31.386       22.964     1388.966      985.064      527.349        0.246        0.145       43.738       19.643        0.202      340.465       14.504      862.679
07/13/2013  06:48:00      -42.783      -25.363        4.719       35.750       26.310       18.864     1278.084      692.239      355.851        0.241        0.116       49.737       20.917        0.177      340.598       14.729      862.695
07/13/2013  06:49:00     -106.415      -81.125       -9.676       22.261       31.749       19.013      495.553     1008.005      361.488        0.993        0.093      133.811        6.191        0.002      340.427       14.441      862.699
07/13/2013  06:50:00     -100.188      -98.169      -11.679       29.818       25.989       17.673      889.098      675.429      312.338        1.084        0.094      140.267        9.221        0.004      340.426       14.439      862.714
07/13/2013  06:51:00      -81.804      -49.687       -2.727       28.406       19.429       19.584      806.909      377.468      383.539        0.537        0.078       95.711       14.694        0.024      340.523       14.601      862.720
07/13/2013  06:52:00      -70.054      -53.661       -0.426       40.531       19.114       19.151     1642.800      365.334      366.749        0.508        0.119       88.245       21.317        0.058      340.564       14.671      862.729
07/13/2013  06:53:00      -48.736      -58.000        2.850       29.870       24.565       16.904      892.189      603.415      285.751        0.376        0.089       75.758       14.367        0.036      340.534       14.619      862.725
07/13/2013  06:54:00      -31.822      -60.795       -0.763       15.028       12.956        9.522      225.843      167.857       90.667        0.260        0.024       68.620        8.033        0.014      340.543       14.636      862.734
07/13/2013  06:55:00      -30.783      -48.593        0.349        8.066       11.356        7.887       65.054      128.963       62.212        0.178        0.013       57.523        4.831        0.007      340.614       14.758      862.729
07/13/2013  06:56:00      -32.907      -57.842       -1.553       18.329       12.861       11.045      335.969      165.404      121.993        0.253        0.031       66.547       10.051        0.023      340.617       14.761      862.741
07/13/2013  06:57:00      -38.644      -43.893       -4.258       14.186       16.279        8.142      201.242      265.007       66.292        0.199        0.027       58.480        5.008        0.007      340.682       14.873      862.737
07/13/2013  06:58:00      -17.236      -39.721       -5.600       31.375       14.437       14.120      984.403      208.426      199.383        0.165        0.070       43.300       12.919        0.089      340.722       14.939      862.739
07/13/2013  06:59:00       34.148       -2.135        3.598       24.905       18.301       23.761      620.260      334.924      564.592        0.135        0.076       34.214       11.228        0.108      340.611       14.751      862.736
07/13/2013  07:00:00       14.264        1.685       21.324       30.154       19.689       22.650      909.240      387.664      513.019        0.124        0.090       14.363       22.250        2.400      340.951       15.327      862.742
07/13/2013  07:01:00       47.158      -14.348       -3.325       17.568       19.739       14.011      308.632      389.626      196.320        0.167        0.045       49.293        7.140        0.021      340.422       14.431      862.757
07/13/2013  07:02:00       33.119      -22.193        3.221       18.557       18.826       17.119      344.350      354.407      293.075        0.130        0.050       39.868       13.339        0.112      340.605       14.741      862.766
07/13/2013  07:03:00       38.097      -24.058       -0.630       21.008       18.556       21.889      441.322      344.330      479.136        0.165        0.063       45.058       15.437        0.117      340.621       14.767      862.774
07/13/2013  07:04:00       18.871      -13.773        6.828       23.531       27.345       21.302      553.692      747.759      453.794        0.117        0.088       23.363       19.302        0.683      340.844       15.146      862.786
07/13/2013  07:05:00       22.336      -11.845       18.094       21.332       17.284       21.226      455.036      298.720      450.553        0.109        0.060       25.282       17.864        0.499      340.979       15.374      862.812
07/13/2013  07:06:00       30.402       -7.736       31.094       22.903       15.345       19.301      524.530      235.468      372.537        0.154        0.057       31.371       10.582        0.114      341.083       15.551      862.832
07/13/2013  07:07:00       11.271      -24.437        5.604       15.319       23.439       22.196      234.685      549.396      492.645        0.102        0.064       26.911       11.628        0.187      341.001       15.412      862.857
07/13/2013  07:08:00        3.311      -29.124       -8.443       25.758       20.082       20.525      663.452      403.268      421.258        0.121        0.074       29.311        9.550        0.106      340.995       15.402      862.875
07/13/2013  07:09:00       -1.087      -14.716        8.838       14.778       12.954       17.987      218.380      167.800      323.548        0.050        0.035       14.756       10.255        0.483      341.340       15.985      862.881
07/13/2013  07:10:00        6.730      -10.532        3.694       14.779       15.719       18.371      218.409      247.095      337.493        0.049        0.040       12.498       11.269        0.813      341.219       15.780      862.889
07/13/2013  07:11:00      -25.931       17.116       17.094       15.706       15.615       17.038      246.688      243.843      290.302        0.102        0.039       31.070        6.557        0.045      341.325       15.960      862.899
07/13/2013  07:12:00        7.964       16.810        4.408       27.462       17.756       20.176      754.136      315.288      407.063        0.092        0.074       18.601       14.505        0.608      341.082       15.548      862.902
07/13/2013  07:13:00       11.980       15.793        5.620       12.731       12.419       13.572      162.074      154.222      184.199        0.046        0.025       19.823        5.381        0.074      341.278       15.879      862.908
07/13/2013  07:14:00       -9.456        3.117        9.401       10.057        9.448        7.930      101.144       89.262       62.881        0.022        0.013        9.956        5.589        0.315      341.651       16.511      862.914
07/13/2013  07:15:00       -6.686        0.374       20.586       12.319        8.764       11.546      151.769       76.800      133.310        0.042        0.018        6.697        7.939        1.406      342.090       17.257      862.917
07/13/2013  07:16:00        7.402        4.304       28.671       14.921       12.569       11.218      222.632      157.974      125.846        0.070        0.025        8.562        7.825        0.835      341.963       17.042      862.923
07/13/2013  07:17:00       13.552       -2.836       26.960       10.761        8.649        8.703      115.796       74.807       75.740        0.059        0.013       13.845        6.460        0.218      341.649       16.508      862.923
07/13/2013  07:18:00       25.595       -5.403        8.010       19.168       17.735       17.143      367.394      314.523      293.888        0.086        0.049       26.159       11.706        0.200      341.116       15.605      862.918
07/13/2013  07:19:00        8.860        2.032       16.480       15.458       12.192       15.442      238.937      148.654      238.448        0.049        0.031        9.090        8.899        0.958      341.553       16.346      862.921
07/13/2013  07:20:00       11.508       16.486      -11.746       20.318       31.498       21.565      412.808      992.115      465.047        0.121        0.093       20.105       11.127        0.306      341.372       16.039      862.931
07/13/2013  07:21:00      -20.626       23.730      -12.055       18.825       11.184       12.530      354.363      125.075      157.005        0.089        0.032       31.442       12.628        0.161      341.409       16.102      862.946
07/13/2013  07:22:00      -21.973        0.539        5.088       10.540       25.800       14.369      111.092      665.633      206.477        0.075        0.049       21.980       16.385        0.556      341.649       16.509      862.955
07/13/2013  07:23:00      -22.935      -39.836        5.202       15.569       17.425       17.520      242.405      303.628      306.957        0.150        0.043       45.966       10.224        0.049      341.609       16.440      862.954
07/13/2013  07:24:00        5.185       -6.116       -6.943       26.353       21.395       20.483      694.474      457.728      419.549        0.084        0.079        8.018        5.496        0.470      341.577       16.386      862.954
07/13/2013  07:25:00       18.214        9.188       25.484       23.263       19.260       19.217      541.156      370.937      369.284        0.117        0.064       20.400       13.586        0.444      341.763       16.701      862.950
07/13/2013  07:26:00       18.471       -9.180       -1.967       22.584       20.585       21.088      510.057      423.732      444.699        0.090        0.069       20.626       14.081        0.466      341.392       16.072      862.945
07/13/2013  07:27:00       24.309       -8.154        6.780       23.449       13.094       22.430      549.834      171.461      503.122        0.096        0.061       25.640       13.179        0.264      341.734       16.654      862.940
07/13/2013  07:28:00       10.790        3.357       19.872       14.511       15.071       24.704      210.568      227.141      610.294        0.079        0.052       11.300        8.287        0.538      342.021       17.140      862.954
07/13/2013  07:29:00       34.171       -7.466       13.481       30.643       25.978       24.020      938.977      674.849      576.976        0.180        0.110       34.978       15.248        0.190      341.503       16.262      862.965
07/13/2013  07:30:00       28.947      -16.289       -2.554       23.335       17.891       12.712      544.520      320.095      161.599        0.107        0.051       33.215       10.180        0.094      341.397       16.081      862.971
07/13/2013  07:31:00       15.081        7.221       11.255       19.269       23.554       21.976      371.298      554.801      482.954        0.091        0.070       16.720       15.938        0.909      341.804       16.772      862.975
07/13/2013  07:32:00       42.228      -11.003       29.130       35.543       25.416       23.623     1263.305      645.968      558.065        0.261        0.123       43.638       19.899        0.208      341.674       16.553      862.976
07/13/2013  07:33:00       15.416       10.138       13.285       21.300       20.424       19.065      453.679      417.160      363.486        0.088        0.062       18.451        9.096        0.243      341.749       16.678      862.977
07/13/2013  07:34:00      -38.552        0.972        4.581       11.910        7.220        6.722      141.838       52.133       45.187        0.087        0.012       38.564        1.905        0.002      341.681       16.564      862.981
07/13/2013  07:35:00      -32.711        7.085       -3.667       10.571        7.867        4.642      111.740       61.893       21.549        0.066        0.010       33.469        2.542        0.006      341.768       16.709      862.978
07/13/2013  07:36:00      -42.402       -9.545       -3.453       16.165       14.636        9.100      261.300      214.204       82.811        0.123        0.028       43.463        6.806        0.025      341.838       16.827      862.976
07/13/2013  07:37:00      -63.412      -39.508       -6.350       15.666       15.595       12.518      245.410      243.206      156.690        0.313        0.032       74.713       10.650        0.020      341.813       16.788      862.985
07/13/2013  07:38:00      -49.613      -52.325        1.122       19.813       14.488       11.972      392.550      209.911      143.337        0.297        0.037       72.106       11.687        0.026      341.832       16.819      862.992
07/13/2013  07:39:00      -19.545      -25.127       -1.763        5.368       19.214        8.835       28.816      369.191       78.063        0.075        0.024       31.834       10.164        0.102      341.904       16.943      863.008
07/13/2013  07:40:00        2.378       -2.596       21.877       13.508       13.409       17.747      182.473      179.814      314.950        0.058        0.034        3.521        6.237        3.138      342.817       18.495      863.018
07/13/2013  07:41:00       36.451      -19.783       18.185       29.756       26.594       22.752      885.443      707.242      517.676        0.208        0.106       41.473       17.783        0.184      341.896       16.928      863.039
07/13/2013  07:42:00        5.166       13.648       41.622       26.149       25.686       18.418      683.773      659.789      339.227        0.181        0.084       14.593       11.637        0.636      342.181       17.411      863.049
07/13/2013  07:43:00        3.358       -7.118       22.639       34.499       31.750       29.787     1190.206     1008.065      887.279        0.183        0.154        7.870       23.185        8.679      342.040       17.172      863.055
07/13/2013  07:44:00       -6.054        7.431       27.219       13.047       19.762       13.891      170.226      390.554      192.968        0.079        0.038        9.585        2.486        0.067      342.390       17.767      863.068
07/13/2013  07:45:00       -7.807      -10.767       26.726       15.021       15.368       15.692      225.616      236.176      246.237        0.080        0.035       13.300        9.354        0.495      342.854       18.556      863.074
07/13/2013  07:46:00       -0.687      -11.502       25.125       21.542       26.109       21.710      464.056      681.685      471.322        0.119        0.081       11.522       18.776        2.655      342.639       18.191      863.081
07/13/2013  07:47:00      -30.305      -76.887       -1.933       15.593       21.153        8.211      243.149      447.449       67.426        0.380        0.038       82.644        8.134        0.010      342.076       17.233      863.084
07/13/2013  07:48:00      -27.306      -77.818       -3.767       12.624       17.986       10.844      159.362      323.479      117.589        0.371        0.030       82.470        4.834        0.003      342.118       17.302      863.090
07/13/2013  07:49:00      -18.329      -87.746        3.885       12.656       12.917       13.086      160.168      166.841      171.245        0.427        0.025       89.640        7.670        0.007      342.181       17.410      863.086
07/13/2013  07:50:00      -13.356      -52.462        9.554       16.659       38.959       20.223      277.506     1517.834      408.967        0.261        0.110       54.136       20.941        0.150      342.649       18.207      863.079
07/13/2013  07:51:00      -28.201      -21.748        5.022       18.297       16.850       12.587      334.770      283.930      158.433        0.104        0.039       35.613       11.042        0.096      342.464       17.890      863.075
07/13/2013  07:52:00       -4.272       -8.725        8.432       20.154       20.009       28.622      406.165      400.371      819.230        0.090        0.081        9.715        9.926        1.044      342.981       18.771      863.070
07/13/2013  07:53:00        2.706      -27.605       10.398       33.648       34.986       20.502     1132.181     1224.009      420.313        0.183        0.139       27.738       14.017        0.255      342.628       18.170      863.063
07/13/2013  07:54:00      -62.608      -80.998       -2.327       27.505       24.114       20.223      756.537      581.499      408.959        0.612        0.087      102.374       10.776        0.011      342.299       17.611      863.068
07/13/2013  07:55:00      -36.744      -70.772       -5.204       16.483       23.502        9.709      271.684      552.323       94.261        0.365        0.046       79.742        8.245        0.011      342.309       17.629      863.078
07/13/2013  07:56:00      -37.269      -73.495       -8.753       37.838       28.303       26.023     1431.736      801.038      677.192        0.489        0.145       82.404       15.580        0.036      342.347       17.693      863.076
07/13/2013  07:57:00      -38.584      -83.013       -1.216       27.316       26.056       21.390      746.174      678.902      457.523        0.513        0.094       91.542       13.130        0.021      342.381       17.751      863.086
07/13/2013  07:58:00      -39.325      -97.817        1.550       23.433       17.468       14.903      549.089      305.117      222.110        0.610        0.054      105.426       10.187        0.009      342.400       17.782      863.090
07/13/2013  07:59:00      -54.315      -90.789       -3.343       30.775       33.068       15.825      947.121     1093.511      250.437        0.675        0.115      105.796       12.485        0.014      342.447       17.863      863.096
07/13/2013  08:00:00      -24.706      -48.788       16.293       39.935       43.138       29.202     1594.844     1860.872      852.770        0.378        0.215       54.687       29.926        0.299      343.019       18.837      863.099
07/13/2013  08:01:00      -48.209      -57.285        0.319       23.597       18.407       12.591      556.814      338.809      158.531        0.333        0.053       74.872        8.267        0.012      342.454       17.877      863.098
07/13/2013  08:02:00      -65.628      -81.397       -1.176       30.453       34.355       17.006      927.383     1180.258      289.216        0.666        0.120      104.559       17.393        0.028      342.504       17.958      863.090
07/13/2013  08:03:00      -31.249     -136.027       -3.376       22.072       28.417       16.200      487.177      807.515      262.446        1.052        0.078      139.570        8.576        0.004      342.443       17.855      863.105
07/13/2013  08:04:00      -31.337      -89.172      -10.654       14.882       21.671       11.459      221.487      469.638      131.319        0.493        0.041       94.518        8.494        0.008      342.440       17.849      863.109
07/13/2013  08:05:00      -51.961      -15.863       -6.914       16.203       21.813       12.508      262.523      475.813      156.438        0.195        0.045       54.329        9.907        0.033      342.604       18.130      863.116
07/13/2013  08:06:00      -25.599        3.289       12.207       32.352       32.488       25.036     1046.643     1055.461      626.820        0.177        0.136       25.809       23.481        0.828      343.184       19.118      863.119
07/13/2013  08:07:00      -60.653      -42.142        3.957       52.122       30.251       22.881     2716.725      915.105      523.563        0.481        0.208       73.856       27.432        0.138      342.843       18.537      863.133
07/13/2013  08:08:00       -9.320      -23.618       12.013       25.512       17.498       15.330      650.882      306.184      235.011        0.099        0.060       25.391       11.810        0.216      342.969       18.753      863.143
07/13/2013  08:09:00      -31.963       -9.810        2.689       19.539       11.888       16.581      381.761      141.332      274.943        0.096        0.040       33.435       12.865        0.148      342.870       18.584      863.139
07/13/2013  08:10:00     -107.056      -55.673       -3.735       51.243       35.528       22.040     2625.822     1262.274      485.745        0.947        0.219      120.667       24.555        0.041      342.696       18.285      863.136
07/13/2013  08:11:00      -47.290      -27.292       -2.903       38.464       33.233       25.146     1479.502     1104.452      632.336        0.310        0.161       54.600        6.304        0.013      342.811       18.482      863.127
07/13/2013  08:12:00      -35.887      -58.711        5.571       49.603       32.978       19.696     2460.412     1087.567      387.951        0.435        0.197       68.810       14.255        0.043      342.716       18.320      863.123
07/13/2013  08:13:00      -34.589      -45.191        9.047       26.888       35.715       17.924      722.943     1275.528      321.284        0.282        0.116       56.909        9.278        0.027      342.948       18.715      863.122
07/13/2013  08:14:00      -20.589      -69.657        4.283       22.576       22.560       17.632      509.672      508.943      310.893        0.331        0.066       72.636       14.001        0.037      342.743       18.365      863.122
07/13/2013  08:15:00      -60.621      -44.536        9.360       32.026       20.258       15.549     1025.675      410.372      241.760        0.371        0.084       75.222       13.203        0.031      342.800       18.463      863.121
07/13/2013  08:16:00      -18.435      -82.600        3.464       30.944       33.785       25.157      957.551     1141.433      632.883        0.495        0.137       84.632       21.260        0.063      342.831       18.516      863.120
07/13/2013  08:17:00      -67.979     -100.898       -5.043       36.858       43.273       23.011     1358.541     1872.543      529.501        0.929        0.188      121.661       13.726        0.013      342.790       18.446      863.120
07/13/2013  08:18:00      -33.407      -67.552       -0.401       28.492       54.803       16.576      811.811     3003.408      274.779        0.488        0.204       75.361       19.275        0.065      342.878       18.595      863.119
07/13/2013  08:19:00      -62.180      -33.451       -0.974       34.034       33.853       19.254     1158.298     1146.002      370.720        0.383        0.134       70.607       17.001        0.058      342.912       18.654      863.126
07/13/2013  08:20:00      -30.453       40.164       13.583       29.153       24.247       26.691      849.904      587.901      712.391        0.244        0.108       50.404       18.592        0.136      343.290       19.298      863.124
07/13/2013  08:21:00       -5.665       21.407       28.106       25.141       22.057       22.820      632.086      486.526      520.769        0.146        0.082       22.143       17.046        0.593      343.430       19.536      863.130
07/13/2013  08:22:00      -21.566        4.308       11.840       20.049       19.902       22.656      401.945      396.075      513.289        0.097        0.066       21.992       16.284        0.548      343.458       19.587      863.137
07/13/2013  08:23:00      -11.311      -52.800        6.985       17.567       36.615       21.911      308.584     1340.653      480.077        0.255        0.106       53.998       21.734        0.162      343.254       19.236      863.135
07/13/2013  08:24:00      -34.399      -17.921        7.501       18.637       40.954       24.779      347.352     1677.232      613.998        0.210        0.132       38.788       18.910        0.238      343.159       19.074      863.127
07/13/2013  08:25:00      -21.479       17.229       25.586       19.932       19.823       18.548      397.271      392.965      344.013        0.127        0.057       27.535       12.074        0.192      343.577       19.787      863.124
07/13/2013  08:26:00      -43.836        1.250        0.600       27.281       23.483       19.712      744.258      551.459      388.577        0.180        0.084       43.854       12.299        0.079      343.331       19.368      863.135
07/13/2013  08:27:00      -25.805        7.876        2.273       18.725       19.240       21.862      350.640      370.179      477.930        0.097        0.060       26.980       11.236        0.173      343.541       19.728      863.146
07/13/2013  08:28:00      -35.742       27.496       10.213       24.649       39.687       22.001      607.556     1575.079      484.024        0.240        0.133       45.094       23.683        0.276      343.370       19.434      863.149
07/13/2013  08:29:00      -18.242        1.355       24.389       19.545       18.436       15.772      382.011      339.900      248.763        0.095        0.049       18.292       11.598        0.402      344.041       20.579      863.153
07/13/2013  08:30:00      -23.417       -7.496       -4.680       23.568       26.278       21.037      555.444      690.542      442.548        0.116        0.084       24.588       12.669        0.265      343.553       19.745      863.159
07/13/2013  08:31:00      -62.791       -7.334       -6.291       25.979       19.334       16.357      674.930      373.823      267.545        0.268        0.066       63.218       10.069        0.025      343.272       19.266      863.169
07/13/2013  08:32:00      -24.169       -3.238       17.899       23.994       30.033       22.819      575.711      902.005      520.722        0.146        0.100       24.385       15.829        0.421      343.810       20.185      863.173
07/13/2013  08:33:00      -12.671      -16.979       -3.097       21.998       26.500       23.403      483.893      702.256      547.723        0.110        0.087       21.186       11.021        0.271      343.288       19.294      863.178
07/13/2013  08:34:00      -20.897        3.041       30.082       15.171       18.614       23.083      230.173      346.487      532.847        0.123        0.055       21.117       15.753        0.556      343.949       20.423      863.178
07/13/2013  08:35:00       -4.247        1.307       31.452       27.130       23.776       23.237      736.028      565.310      539.954        0.142        0.092        4.444       17.264       15.095      343.994       20.497      863.181
07/13/2013  08:36:00      -20.526       -6.322       20.539       20.046       29.104       23.229      401.861      847.059      539.582        0.134        0.089       21.478       21.199        0.974      343.953       20.429      863.185
07/13/2013  08:37:00      -22.649        7.613        6.159       19.237       17.789       26.836      370.062      316.434      720.196        0.101        0.070       23.894       17.305        0.525      343.979       20.474      863.190
07/13/2013  08:38:00      -26.363      -20.133        8.077       23.596       16.607       13.389      556.764      275.797      179.254        0.109        0.051       33.171       11.123        0.112      343.668       19.943      863.201
07/13/2013  08:39:00      -71.824      -44.400        4.021       30.394       34.650       22.194      923.788     1200.590      492.580        0.488        0.131       84.440       14.578        0.030      343.382       19.454      863.205
07/13/2013  08:40:00      -66.147      -28.586        2.327       24.256       33.239       19.467      588.372     1104.799      378.978        0.363        0.104       72.060       20.311        0.079      343.447       19.564      863.211
07/13/2013  08:41:00      -34.661      -74.678        7.487       18.803       24.277       16.951      353.570      589.370      287.321        0.403        0.062       82.330       10.723        0.017      343.475       19.611      863.220
07/13/2013  08:42:00      -42.997      -33.556        3.008       26.659       26.055       13.955      710.724      678.858      194.730        0.228        0.079       54.541       15.057        0.076      343.594       19.815      863.216
07/13/2013  08:43:00      -23.322      -18.889        5.042       19.444       20.093       12.094      378.069      403.725      146.253        0.093        0.046       30.012        6.544        0.048      343.767       20.111      863.214
07/13/2013  08:44:00       -2.114      -18.742       15.648       36.668       34.147       16.146     1344.560     1166.027      260.684        0.169        0.139       18.861       13.168        0.487      343.671       19.949      863.200
07/13/2013  08:45:00        3.656       24.773       41.152       28.152       25.752       22.281      792.522      663.152      496.433        0.214        0.098       25.041       22.229        0.788      343.924       20.381      863.194
07/13/2013  08:46:00      -31.757      -12.778        8.079       32.942       24.550       27.367     1085.153      602.726      748.932        0.184        0.122       34.231       19.569        0.327      343.272       19.267      863.184
07/13/2013  08:47:00      -23.164       12.832        6.701       19.005       23.614       20.333      361.174      557.600      413.412        0.104        0.067       26.480        7.520        0.081      344.130       20.730      863.190
07/13/2013  08:48:00      -16.055        1.223       21.286       23.893       17.441       25.535      570.897      304.195      652.043        0.112        0.076       16.102       13.528        0.706      344.410       21.211      863.197
07/13/2013  08:49:00      -18.132      -11.305       24.973       18.305       34.861       22.513      335.055     1215.319      506.842        0.157        0.103       21.367       11.638        0.297      344.373       21.147      863.205
07/13/2013  08:50:00      -10.993        4.234       40.347       23.871       28.811       22.959      569.827      830.083      527.129        0.185        0.096       11.780       15.101        1.643      344.370       21.141      863.215
07/13/2013  08:51:00      -22.522       -6.657       10.390       23.195       14.915       15.880      537.986      222.447      252.170        0.084        0.051       23.485       13.040        0.308      344.032       20.563      863.220
07/13/2013  08:52:00      -11.128       12.417       26.078       23.432       19.780       19.373      549.078      391.263      375.331        0.114        0.066       16.674       11.327        0.462      344.630       21.585      863.217
07/13/2013  08:53:00        5.527       29.588       20.069       29.533       33.669       24.390      872.206     1133.612      594.854        0.195        0.130       30.100       20.948        0.484      344.307       21.034      863.214
07/13/2013  08:54:00      -26.879       10.191       12.653       24.783       26.749       23.014      614.176      715.516      529.651        0.142        0.093       28.746       11.357        0.156      344.272       20.974      863.220
07/13/2013  08:55:00       30.940       -2.467       18.430       47.958       32.064       33.927     2299.940     1028.123     1151.059        0.289        0.224       31.039       34.149        1.210      344.254       20.942      863.226
07/13/2013  08:56:00       -1.796       16.005       39.664       44.333       31.354       29.769     1965.398      983.069      886.186        0.283        0.192       16.106       30.881        3.676      344.272       20.973      863.231
07/13/2013  08:57:00        1.069        5.729       26.709       40.620       29.484       30.091     1650.017      869.302      905.460        0.209        0.171        5.828       15.096        6.710      344.161       20.784      863.228
07/13/2013  08:58:00      -11.103       13.254       39.768       24.680       27.206       17.854      609.089      740.187      318.748        0.177        0.083       17.290        9.290        0.289      344.742       21.778      863.226
07/13/2013  08:59:00      -25.414        5.472       15.975       15.160       13.083       20.210      229.823      171.163      408.453        0.087        0.040       25.996       11.581        0.198      344.579       21.498      863.233
07/13/2013  09:00:00      -26.288        7.167       -8.883       28.820       38.276       26.889      830.620     1465.066      723.032        0.192        0.151       27.248       12.835        0.222      343.868       20.283      863.237
07/13/2013  09:01:00       -4.441       -8.820       44.642       22.513       47.399       26.635      506.845     2246.622      709.446        0.278        0.173        9.875       25.262        6.545      344.752       21.795      863.231
07/13/2013  09:02:00      -16.209      -32.022       11.234       24.538       28.750       28.683      602.105      826.569      822.721        0.183        0.113       35.891        7.916        0.049      344.654       21.627      863.230
07/13/2013  09:03:00       -9.906      -17.668       16.050       24.460       27.906       23.030      598.284      778.727      530.399        0.129        0.095       20.255       13.199        0.425      344.448       21.274      863.226
07/13/2013  09:04:00      -18.538        4.900       23.643       20.630       19.943       23.821      425.580      397.707      567.452        0.116        0.070       19.175       10.488        0.299      344.861       21.981      863.226
07/13/2013  09:05:00        1.836       32.160       56.441       23.709       37.430       21.043      562.132     1401.014      442.823        0.331        0.120       32.212       13.829        0.184      344.668       21.650      863.216
07/13/2013  09:06:00       48.882       -3.468       28.024       60.358       43.488       39.981     3643.028     1891.167     1598.475        0.516        0.357       49.005       43.895        0.802      344.254       20.944      863.203
07/13/2013  09:07:00       62.167       17.174       40.023       27.431       26.506       27.253      752.484      702.584      742.708        0.398        0.110       64.495       20.632        0.102      343.763       20.104      863.207
07/13/2013  09:08:00       43.892        7.738       11.567       24.483       15.808       23.516      599.418      249.897      552.981        0.176        0.070       44.569        7.121        0.026      344.200       20.851      863.197
07/13/2013  09:09:00       27.234       15.696       24.353       31.584       24.273       22.303      997.525      589.155      497.437        0.183        0.104       31.433       17.290        0.303      344.139       20.746      863.195
07/13/2013  09:10:00       30.121       -1.397       19.217       39.001       30.217       36.191     1521.103      913.071     1309.792        0.251        0.187       30.153       24.643        0.668      344.201       20.854      863.183
07/13/2013  09:11:00       42.514      -39.104       15.892       39.377       52.243       44.338     1550.543     2729.373     1965.865        0.492        0.312       57.763       38.326        0.440      343.914       20.361      863.175
07/13/2013  09:12:00        5.774       18.704       43.051       36.370       53.255       33.630     1322.768     2836.128     1130.958        0.376        0.264       19.575       14.887        0.578      344.681       21.672      863.164
07/13/2013  09:13:00      -25.115      -24.655       41.899       37.275       42.547       29.569     1389.423     1810.227      874.333        0.353        0.204       35.194       25.485        0.524      344.893       22.034      863.166
07/13/2013  09:14:00        4.908       27.408       50.855       38.746       31.425       24.486     1501.270      987.551      599.573        0.322        0.154       27.844       17.375        0.389      344.905       22.056      863.162
07/13/2013  09:15:00        7.797       20.740       49.813       29.719       26.291       21.036      883.191      691.202      442.533        0.249        0.101       22.157       19.629        0.785      344.870       21.996      863.160
07/13/2013  09:16:00       14.200       26.037       45.375       36.577       26.758       29.280     1337.883      716.002      857.332        0.292        0.146       29.658       20.893        0.496      344.610       21.551      863.161
07/13/2013  09:17:00        3.892       -1.121       38.528       24.263       35.556       22.290      588.687     1264.198      496.861        0.192        0.117        4.050       18.144       20.071      344.802       21.881      863.163
07/13/2013  09:18:00       12.802        4.977       39.864       23.255       36.005       22.334      540.783     1296.344      498.810        0.206        0.117       13.735       21.158        2.373      344.889       22.030      863.161
07/13/2013  09:19:00       10.793        0.924       21.756       27.816       20.779       26.640      773.744      431.759      709.685        0.125        0.096       10.833       11.148        1.059      345.014       22.245      863.153
07/13/2013  09:20:00      -58.313      -47.783       -4.278       31.414       37.155       21.226      986.853     1380.472      450.546        0.426        0.141       75.390       24.472        0.105      344.453       21.283      863.142
07/13/2013  09:21:00      -69.328      -22.048        0.214       21.759       15.606       12.552      473.447      243.539      157.564        0.308        0.044       72.750       12.644        0.030      344.384       21.166      863.134
07/13/2013  09:22:00      -60.824       -9.525       -2.950       17.831       13.233       10.719      317.928      175.124      114.906        0.220        0.030       61.565       10.212        0.028      344.415       21.217      863.121
07/13/2013  09:23:00      -32.778      -18.771        7.460       13.501       12.076        9.885      182.284      145.829       97.715        0.095        0.021       37.772        5.579        0.022      344.586       21.510      863.106
07/13/2013  09:24:00      -64.839      -29.074        3.109       34.349       39.858       19.537     1179.887     1588.642      381.691        0.410        0.158       71.059       18.210        0.066      344.717       21.735      863.094
07/13/2013  09:25:00      -98.003      -34.535        7.090       50.743       39.634       24.910     2574.870     1570.867      620.513        0.781        0.238      103.910       26.035        0.063      344.614       21.557      863.083
07/13/2013  09:26:00      -42.701       -6.864        9.321       31.558       12.428       17.838      995.929      154.446      318.193        0.171        0.073       43.249       20.007        0.214      344.960       22.152      863.071
07/13/2013  09:27:00       -6.943       20.811       21.727       19.090       18.148       20.922      364.415      329.335      437.750        0.104        0.057       21.938       11.694        0.284      345.795       23.581      863.053
07/13/2013  09:28:00       29.190       17.874        6.468       31.574       24.452       30.506      996.901      597.904      930.604        0.187        0.126       34.228       26.945        0.620      345.236       22.625      863.043
07/13/2013  09:29:00       17.882       18.813       45.301       26.081       27.462       19.248      680.217      754.141      370.500        0.226        0.090       25.956       14.474        0.311      345.075       22.347      863.023
07/13/2013  09:30:00       23.099       29.419       16.207       26.492       22.848       24.803      701.851      522.030      615.210        0.175        0.092       37.404       10.541        0.079      344.604       21.541      863.013
07/13/2013  09:31:00       18.767       13.113       32.885       36.109       30.755       26.257     1303.871      945.852      689.430        0.227        0.147       22.894       26.110        1.301      344.673       21.660      863.004
07/13/2013  09:32:00       14.122      -42.107       -0.352       19.984       20.860       21.009      399.368      435.119      441.377        0.162        0.064       44.412       11.376        0.066      344.166       20.792      863.010
07/13/2013  09:33:00        0.679      -42.914       -6.431       35.632       27.110       25.403     1269.613      734.967      645.295        0.227        0.132       42.919       22.065        0.264      344.357       21.120      863.000
07/13/2013  09:34:00       24.401        5.603       25.382       25.753       31.401       29.566      663.241      986.025      874.156        0.190        0.126       25.036       23.986        0.918      345.083       22.361      863.004
07/13/2013  09:35:00       85.779       41.681        6.762       28.401       26.625       32.647      806.620      708.871     1065.835        0.586        0.129       95.369       18.603        0.038      344.583       21.504      862.988
07/13/2013  09:36:00       57.428       66.922        2.902       38.680       43.223       38.307     1496.148     1868.186     1467.455        0.631        0.242       88.185       20.285        0.053      345.281       22.699      862.972
07/13/2013  09:37:00       90.584       62.250       26.595       29.762       28.527       27.208      885.755      813.795      740.281        0.761        0.122      109.911       14.171        0.017      344.887       22.026      862.959
07/13/2013  09:38:00       75.897       61.241        5.029       23.328       23.034       22.659      544.181      530.567      513.434        0.556        0.079       97.524       11.317        0.013      344.807       21.888      862.955
07/13/2013  09:39:00       84.702       72.107       -3.177       32.022       23.335       23.899     1025.422      544.515      571.184        0.726        0.107      111.238       15.831        0.020      344.968       22.163      862.938
07/13/2013  09:40:00       27.222       27.350       14.484       51.872       42.642       33.177     2690.711     1818.378     1100.743        0.365        0.280       38.589       20.370        0.279      345.168       22.507      862.922
07/13/2013  09:41:00       72.409       53.484       19.918       42.012       26.968       38.885     1765.039      727.290     1512.050        0.625        0.200       90.020       28.710        0.102      345.235       22.619      862.902
07/13/2013  09:42:00       38.746       74.420       19.999       54.332       36.431       31.853     2951.959     1327.209     1014.582        0.637        0.265       83.903        7.838        0.009      345.377       22.866      862.902
07/13/2013  09:43:00        4.273       23.686       37.633       25.695       35.108       24.468      660.255     1232.590      598.705        0.224        0.125       24.069       19.759        0.674      346.313       24.472      862.901
07/13/2013  09:44:00       59.629       39.979       17.013       40.419       34.648       29.582     1633.701     1200.514      875.074        0.458        0.185       71.791       14.916        0.043      345.818       23.621      862.908
07/13/2013  09:45:00       47.480        9.182       -0.436       34.439       42.889       33.598     1186.062     1839.431     1128.840        0.325        0.208       48.360       20.894        0.187      344.807       21.889      862.915
07/13/2013  09:46:00       38.609      -21.323       -0.002       28.828       34.871       36.746      831.033     1215.985     1350.250        0.267        0.170       44.106       30.961        0.493      345.318       22.765      862.928
07/13/2013  09:47:00        1.830      -14.518       14.729       20.559       32.477       26.756      422.672     1054.787      715.897        0.131        0.110       14.633       26.617        3.309      345.392       22.890      862.922
07/13/2013  09:48:00      -18.650        1.231       29.082       40.157       26.534       18.223     1612.551      704.059      332.091        0.192        0.132       18.691       21.699        1.348      345.409       22.920      862.915
07/13/2013  09:49:00      -41.344        3.790       25.314       33.068       21.352       26.730     1093.515      455.926      714.474        0.231        0.113       41.517       21.642        0.272      345.760       23.521      862.917
07/13/2013  09:50:00       12.090        1.985       27.286       39.939       25.922       21.895     1595.158      671.958      479.390        0.182        0.137       12.252       18.799        2.354      345.249       22.646      862.919
07/13/2013  09:51:00       -7.030        6.103       26.024       21.544       26.239       20.668      464.132      688.499      427.155        0.117        0.079        9.310       15.273        2.691      345.765       23.530      862.916
07/13/2013  09:52:00      -10.204        3.307       26.687       14.308       20.103       17.492      204.729      404.138      305.970        0.087        0.046       10.726       12.419        1.341      346.272       24.401      862.924
07/13/2013  09:53:00      -21.489      -45.608        6.352       25.848       60.609       19.864      668.107     3673.397      394.585        0.366        0.237       50.417       22.000        0.190      345.468       23.020      862.925
07/13/2013  09:54:00      -36.112      -60.628      -15.898       30.719       42.033       19.533      943.641     1766.778      381.529        0.416        0.155       70.568       22.398        0.101      345.245       22.638      862.923
07/13/2013  09:55:00      -16.529      -22.486       12.181       42.568       23.511       22.548     1812.047      552.785      508.412        0.190        0.144       27.908       24.863        0.794      345.843       23.666      862.922
07/13/2013  09:56:00       31.107       -7.973       21.886       30.920       21.005       26.542      956.032      441.197      704.466        0.181        0.105       32.113       22.763        0.502      345.410       22.923      862.919
07/13/2013  09:57:00       37.849      -10.040        9.529       23.611       25.857       27.033      557.457      668.607      730.797        0.179        0.098       39.158       12.552        0.103      344.941       22.118      862.910
07/13/2013  09:58:00       19.873       18.432        8.320       22.484       20.011       25.708      505.550      400.441      660.881        0.119        0.078       27.104       12.633        0.217      345.090       22.373      862.902
07/13/2013  09:59:00        6.053       19.884       46.138       19.172       25.730       15.980      367.567      662.046      255.373        0.192        0.064       20.785       12.711        0.374      345.590       23.231      862.906
07/13/2013  10:00:00       29.629       13.122       48.046       41.357       45.775       34.248     1710.397     2095.381     1172.930        0.417        0.249       32.404       33.400        1.062      345.482       23.045      862.908
07/13/2013  10:01:00       38.322        9.702       26.780       31.437       21.556       33.219      988.268      464.667     1103.484        0.242        0.128       39.531       18.560        0.220      345.520       23.111      862.913
07/13/2013  10:02:00       35.866        9.689        8.629       30.292       29.065       21.944      917.619      844.789      481.530        0.185        0.112       37.152       17.430        0.220      345.045       22.296      862.910
07/13/2013  10:03:00       13.299       51.987       13.130       27.299       21.877       22.703      745.257      478.604      515.440        0.240        0.087       53.661       14.611        0.074      345.249       22.645      862.908
07/13/2013  10:04:00       32.652       18.544       21.783       37.867       28.788       32.604     1433.895      828.735     1063.022        0.260        0.166       37.550       26.509        0.498      345.205       22.569      862.896
07/13/2013  10:05:00       46.578      -20.439       13.063       42.344       44.492       33.359     1793.011     1979.547     1112.836        0.382        0.244       50.866       27.898        0.301      345.202       22.565      862.892
07/13/2013  10:06:00       54.876       -0.717       36.388       58.396       50.656       36.164     3410.079     2566.016     1307.868        0.581        0.364       54.880       29.928        0.297      345.700       23.418      862.895
07/13/2013  10:07:00       65.989       41.834       58.275       51.839       48.023       44.748     2687.303     2306.177     2002.396        0.825        0.350       78.132       38.124        0.238      345.356       22.829      862.897
07/13/2013  10:08:00       98.527       77.838       37.055       40.380       24.471       28.141     1630.524      598.818      791.894        1.008        0.151      125.564       23.510        0.035      345.409       22.919      862.890
07/13/2013  10:09:00       86.477       58.150       29.159       31.889       29.865       25.466     1016.912      891.895      648.540        0.713        0.128      104.210       18.416        0.031      345.768       23.536      862.872
07/13/2013  10:10:00       83.048       44.978       21.502       40.558       57.383       33.411     1644.913     3292.765     1116.314        0.772        0.303       94.446       17.124        0.033      345.658       23.345      862.869
07/13/2013  10:11:00       37.839       -5.752       41.877       37.957       49.087       36.444     1440.725     2409.547     1328.197        0.420        0.259       38.274       32.318        0.713      345.654       23.341      862.852
07/13/2013  10:12:00       13.469      -22.684        1.543       42.635       44.063       31.749     1817.705     1941.563     1007.999        0.273        0.238       26.381       29.813        1.277      345.199       22.559      862.842
07/13/2013  10:13:00      -49.036      -22.411        7.767       20.788       40.686       23.188      432.146     1655.362      537.663        0.280        0.131       53.915        8.180        0.023      345.587       23.224      862.831
07/13/2013  10:14:00      -11.892      -23.704       -6.501       23.972       25.383       19.109      574.633      644.302      365.148        0.116        0.079       26.520       14.967        0.319      345.296       22.724      862.833
07/13/2013  10:15:00      -26.420      -34.486        0.278       27.347       24.097       19.628      747.851      580.675      385.243        0.180        0.086       43.444       12.540        0.083      345.483       23.046      862.827
07/13/2013  10:16:00       -6.353      -10.487       24.126       19.316       30.290       33.420      373.126      917.510     1116.910        0.157        0.120       12.261       20.153        2.701      346.266       24.391      862.805
07/13/2013  10:17:00      -24.074      -15.698        8.309       23.615       30.783       29.502      557.681      947.577      870.359        0.163        0.119       28.740       23.349        0.660      346.186       24.252      862.807
07/13/2013  10:18:00       16.174      -37.380       14.311       32.388       49.114       37.175     1049.007     2412.202     1382.012        0.335        0.242       40.729       31.720        0.607      346.287       24.427      862.804
07/13/2013  10:19:00       54.005      -60.161       18.978       29.035       45.220       30.773      843.021     2044.845      946.969        0.536        0.192       80.844       26.828        0.110      346.068       24.049      862.792
07/13/2013  10:20:00       11.247      -12.710        0.227       36.684       49.152       27.049     1345.722     2415.915      731.669        0.239        0.225       16.972       19.234        1.284      346.232       24.332      862.781
07/13/2013  10:21:00       35.822      -59.051       22.263       49.243       63.036       30.579     2424.838     3973.525      935.073        0.630        0.367       69.067       22.133        0.103      346.294       24.440      862.766
07/13/2013  10:22:00       14.150      -36.829       31.701       40.733       49.567       40.298     1659.151     2456.882     1623.945        0.415        0.287       39.454       26.853        0.463      346.570       24.913      862.754
07/13/2013  10:23:00       32.305       33.767       61.672       44.113       52.116       24.295     1945.948     2716.098      590.270        0.562        0.263       46.731        8.961        0.037      346.146       24.184      862.737
07/13/2013  10:24:00       61.254      -25.830       19.811       54.318       79.645       57.078     2950.448     6343.304     3257.904        0.868        0.628       66.478       63.645        0.917      345.653       23.339      862.745
07/13/2013  10:25:00       37.933       12.639       35.848       40.731       53.131       28.251     1659.042     2822.919      798.137        0.408        0.264       39.983       23.433        0.343      346.085       24.078      862.742
07/13/2013  10:26:00      100.445       54.231       32.444       64.908       46.080       46.144     4212.995     2123.375     2129.223        1.127        0.423      114.150       21.400        0.035      346.163       24.212      862.741
07/13/2013  10:27:00       48.528       39.718        4.897       39.051       35.671       30.582     1524.960     1272.416      935.255        0.384        0.187       62.710       21.957        0.123      346.584       24.936      862.740
07/13/2013  10:28:00       16.973       72.404        5.237       39.909       44.088       32.800     1592.721     1943.714     1075.835        0.508        0.231       74.367       21.501        0.084      346.529       24.843      862.734
07/13/2013  10:29:00       19.276       37.593       22.600       44.976       39.572       35.187     2022.830     1565.933     1238.090        0.356        0.241       42.247       22.175        0.276      346.650       25.051      862.733
07/13/2013  10:30:00        3.523       16.564       29.892       25.534       24.389       31.605      652.002      594.842      998.880        0.171        0.112       16.935       16.122        0.906      347.195       25.989      862.725
07/13/2013  10:31:00       31.894      -14.349        6.164       33.090       40.935       30.098     1094.953     1675.683      905.889        0.247        0.184       34.973       22.579        0.417      346.186       24.252      862.733
07/13/2013  10:32:00       50.617      -57.611       -5.212       64.876       74.189       50.698     4208.927     5504.056     2570.310        0.909        0.614       76.688       54.665        0.508      346.471       24.741      862.719
07/13/2013  10:33:00       19.192     -126.580      -19.013       45.039       56.223       34.338     2028.470     3161.072     1179.118        1.156        0.318      128.027       22.911        0.032      346.195       24.268      862.724
07/13/2013  10:34:00       14.519     -122.904       -9.657       62.897       54.513       37.875     3956.013     2971.672     1434.544        1.188        0.418      123.758       33.446        0.073      346.335       24.508      862.725
07/13/2013  10:35:00       66.350      -65.219       31.303       47.413       81.650       44.179     2247.951     6666.709     1951.799        1.025        0.543       93.037       50.000        0.289      346.301       24.450      862.745
07/13/2013  10:36:00       49.778       40.583       54.640       47.172       42.275       32.636     2225.210     1787.193     1065.133        0.609        0.254       64.225       22.671        0.125      346.198       24.273      862.732
07/13/2013  10:37:00       81.776      105.947       72.848       44.512       41.646       42.132     1981.303     1734.397     1775.132        1.435        0.275      133.836       29.442        0.048      345.910       23.778      862.734
07/13/2013  10:38:00       78.923       89.308       15.263       33.636       39.460       36.814     1131.399     1557.111     1355.277        0.924        0.202      119.184       27.379        0.053      346.102       24.108      862.729
07/13/2013  10:39:00       19.091       35.491       22.665       43.571       53.099       37.668     1898.414     2819.520     1418.891        0.414        0.307       40.299       24.328        0.364      346.831       25.361      862.726
07/13/2013  10:40:00       16.239        5.749       47.769       28.580       42.774       22.356      816.806     1829.575      499.803        0.286        0.157       17.227       17.199        0.997      346.361       24.554      862.722
07/13/2013  10:41:00       13.123      -21.461       27.259       41.658       43.003       30.056     1735.414     1849.230      903.340        0.293        0.224       25.155       17.195        0.467      346.257       24.374      862.721
07/13/2013  10:42:00       45.710      -16.233       35.623       32.733       41.009       35.748     1071.426     1681.759     1277.913        0.383        0.202       48.507       21.440        0.195      346.168       24.223      862.715
07/13/2013  10:43:00       56.238       -7.914       29.103       62.102       61.280       43.919     3856.633     3755.209     1928.896        0.680        0.477       56.792       30.092        0.281      346.174       24.233      862.712
07/13/2013  10:44:00       44.084        2.725       32.050       49.944       53.543       37.096     2494.382     2866.855     1376.148        0.486        0.337       44.169       31.927        0.523      346.555       24.887      862.699
07/13/2013  10:45:00       66.678       31.596       59.922       62.000       78.152       58.760     3843.954     6107.811     3452.787        1.122        0.670       73.786       62.587        0.719      346.208       24.291      862.697
07/13/2013  10:46:00       64.219       59.430       53.805       77.915       65.694       45.719     6070.673     4315.651     2090.239        1.151        0.624       87.498       34.395        0.155      346.577       24.925      862.683
07/13/2013  10:47:00       24.819       11.403       47.770       55.518       51.892       51.096     3082.278     2692.761     2610.834        0.571        0.419       27.313       33.631        1.516      346.726       25.181      862.669
07/13/2013  10:48:00       32.832       27.414       37.062       40.058       34.328       31.519     1604.669     1178.443      993.425        0.349        0.189       42.772       17.372        0.165      346.746       25.217      862.680
07/13/2013  10:49:00       38.084      -27.382        5.664       41.000       37.500       20.319     1681.037     1406.280      412.845        0.287        0.175       46.906       12.477        0.071      345.975       23.890      862.678
07/13/2013  10:50:00       33.544        2.804       28.330       44.682       32.077       30.669     1996.437     1028.959      940.592        0.295        0.198       33.661       28.588        0.721      346.555       24.887      862.685
07/13/2013  10:51:00      -23.263       18.542        2.368       24.672       28.069       26.253      608.729      787.870      689.198        0.149        0.104       29.748       13.150        0.195      346.692       25.122      862.680
07/13/2013  10:52:00      -47.175      -91.934       -8.456       44.609       78.437       28.544     1989.955     6152.404      814.777        0.985        0.448      103.332       33.653        0.106      346.252       24.365      862.687
07/13/2013  10:53:00      -52.831      -95.938        0.238       35.668       44.371       33.998     1272.227     1968.756     1155.862        0.820        0.220      109.523       24.349        0.049      346.551       24.880      862.677
07/13/2013  10:54:00      -24.248      -27.239        9.199       50.762       56.101       31.575     2576.739     3147.278      996.954        0.407        0.336       36.468       23.363        0.410      346.775       25.266      862.697
07/13/2013  10:55:00       -8.396      -21.021       10.191       38.937       39.481       29.903     1516.073     1558.747      894.163        0.229        0.198       22.635       22.934        1.027      346.747       25.217      862.700
07/13/2013  10:56:00      -62.413      -66.209       14.028       63.407       47.903       36.021     4020.434     2294.711     1297.498        0.804        0.381       90.989       37.573        0.171      346.640       25.033      862.703
07/13/2013  10:57:00      -48.576      -71.536       14.416       38.820       37.765       27.264     1506.984     1426.176      743.332        0.568        0.184       86.470       16.921        0.038      346.656       25.061      862.715
07/13/2013  10:58:00      -34.755      -56.475       -4.470       48.601       36.526       32.332     2362.034     1334.166     1045.354        0.458        0.237       66.313       16.583        0.063      346.545       24.870      862.707
07/13/2013  10:59:00       24.585       38.444       37.178       40.881       41.957       41.156     1671.285     1760.395     1693.800        0.429        0.256       45.633       35.451        0.604      346.863       25.419      862.710
07/13/2013  11:00:00       42.287       25.207       33.669       32.609       19.328       18.860     1063.318      373.558      355.712        0.267        0.090       49.230       15.202        0.095      347.025       25.695      862.697
07/13/2013  11:01:00       32.501       -0.616       12.094       36.922       50.049       27.058     1363.210     2504.921      732.160        0.290        0.230       32.507       23.224        0.510      345.773       23.544      862.704
07/13/2013  11:02:00       70.945      -67.673       -4.325       94.091       73.523       38.218     8853.041     5405.642     1460.586        1.267        0.786       98.045       35.775        0.133      345.828       23.636      862.693
07/13/2013  11:03:00       75.708      -59.564       10.319       77.347       81.620       56.841     5982.566     6661.789     3230.884        1.263        0.794       96.330       56.937        0.349      346.971       25.602      862.690
07/13/2013  11:04:00       22.437      -85.464       18.403       75.996       86.647       57.954     5775.336     7507.621     3358.694        1.239        0.832       88.360       53.808        0.371      347.244       26.073      862.682
07/13/2013  11:05:00       51.173       -7.915       45.584       78.713       57.762       49.116     6195.688     3336.452     2412.394        0.835        0.597       51.782       39.617        0.585      347.177       25.959      862.691
07/13/2013  11:06:00       23.556       38.028       72.902       49.461       91.491       51.956     2446.420     8370.685     2699.427        1.041        0.676       44.732       61.053        1.863      347.065       25.764      862.684
07/13/2013  11:07:00       20.204       66.935       86.366       59.685       54.529       42.663     3562.289     2973.413     1820.127        1.035        0.418       69.918       35.133        0.252      347.176       25.957      862.685
07/13/2013  11:08:00       22.437      117.879      131.680       60.195       53.397       33.702     3623.443     2851.274     1135.817        1.967        0.381      119.995       24.192        0.041      346.758       25.236      862.677
07/13/2013  11:09:00       37.359       22.082       67.842       47.338       59.625       47.091     2240.843     3555.192     2217.564        0.725        0.401       43.397       39.279        0.819      347.059       25.754      862.674
07/13/2013  11:10:00        6.608       88.930      118.746       44.862       82.310       60.064     2012.635     6774.984     3607.718        1.722        0.620       89.175       59.701        0.448      346.904       25.487      862.674
07/13/2013  11:11:00       70.998       -1.296       42.111       50.874       69.549       43.530     2588.182     4837.059     1894.845        0.807        0.466       71.009       44.676        0.396      346.186       24.253      862.694
07/13/2013  11:12:00       57.043       -5.736       21.667       36.292       25.028       30.925     1317.117      626.406      956.384        0.333        0.145       57.331       21.225        0.137      346.604       24.972      862.687
07/13/2013  11:13:00       40.173      -40.387        4.590       34.582       36.178       29.874     1195.934     1308.866      892.446        0.333        0.170       56.964       21.208        0.139      346.758       25.237      862.685
07/13/2013  11:14:00       23.025        9.054       18.593       35.978       45.306       33.711     1294.422     2052.614     1136.463        0.272        0.224       24.741       17.749        0.515      346.648       25.049      862.670
07/13/2013  11:15:00       21.834       29.956       41.774       42.343       40.635       37.963     1792.899     1651.164     1441.183        0.400        0.244       37.069       33.173        0.801      346.483       24.764      862.659
07/13/2013  11:16:00      103.670       44.445       27.891       54.984       70.500       44.845     3023.253     4970.253     2011.030        1.175        0.500      112.795       40.190        0.127      346.703       25.142      862.651
07/13/2013  11:17:00       76.181       57.844       24.067       98.997       69.885       60.919     9800.470     4883.956     3711.137        1.406        0.920       95.653       41.834        0.191      347.340       26.238      862.636
07/13/2013  11:18:00      163.752      110.649       43.557       42.852       39.398       44.813     1836.308     1552.178     2008.181        2.317        0.270      197.631       28.388        0.021      346.798       25.303      862.639
07/13/2013  11:19:00      137.978      108.192       25.844       47.395       34.633       35.902     2246.279     1199.434     1288.928        1.807        0.237      175.338       26.019        0.022      346.869       25.426      862.645
07/13/2013  11:20:00       53.733       84.129       59.115       61.712       44.911       44.565     3808.396     2016.972     1986.031        1.063        0.391       99.825       45.305        0.206      347.348       26.253      862.632
07/13/2013  11:21:00       72.905       66.056       50.479       42.010       39.894       42.042     1764.850     1591.548     1767.555        0.867        0.256       98.380       26.545        0.073      346.590       24.947      862.650
07/13/2013  11:22:00       27.480       20.099       24.200       39.248       41.254       40.699     1540.398     1701.898     1656.446        0.332        0.245       34.046       36.843        1.171      346.729       25.186      862.642
07/13/2013  11:23:00       75.414       26.591       27.170       45.360       44.899       29.450     2057.531     2015.924      867.314        0.604        0.247       79.964       18.398        0.053      346.550       24.879      862.642
07/13/2013  11:24:00       26.787       21.081       20.568       22.211       27.186       30.969      493.320      739.093      959.075        0.189        0.110       34.088       21.625        0.402      347.221       26.034      862.641
07/13/2013  11:25:00       42.652      -31.170       27.764       35.239       40.290       33.381     1241.765     1623.281     1114.305        0.377        0.199       52.827       11.746        0.049      346.760       25.241      862.630
07/13/2013  11:26:00       19.069       30.160       21.156       32.439       25.580       34.717     1052.273      654.316     1205.277        0.232        0.146       35.683       11.520        0.104      347.031       25.707      862.640
07/13/2013  11:27:00       18.632       17.173       23.961       21.019       29.449       25.809      441.808      867.223      666.089        0.160        0.099       25.339       20.258        0.639      347.407       26.354      862.628
07/13/2013  11:28:00       33.757       24.229       34.728       35.150       26.910       28.567     1235.500      724.146      816.076        0.285        0.139       41.552       18.741        0.203      346.873       25.434      862.623
07/13/2013  11:29:00        9.413       -1.730       30.832       34.830       29.046       24.687     1213.119      843.654      609.446        0.185        0.133        9.570       22.687        5.620      347.204       26.006      862.628
07/13/2013  11:30:00        4.286       17.891       36.442       38.243       34.240       23.058     1462.508     1172.349      531.666        0.242        0.158       18.397       19.676        1.144      347.417       26.374      862.622
07/13/2013  11:31:00      -14.110       20.900       40.533       16.236       22.648       13.769      263.618      512.922      189.572        0.162        0.048       25.218        4.390        0.030      347.882       27.173      862.625
07/13/2013  11:32:00      -40.914       12.254       -9.797       18.573       19.734       18.404      344.960      389.438      338.700        0.150        0.054       42.710       11.628        0.074      347.059       25.755      862.622
07/13/2013  11:33:00      -41.321       21.003        0.421       26.163       15.395       18.244      684.489      237.013      332.829        0.170        0.063       46.352       17.133        0.137      347.255       26.092      862.623
07/13/2013  11:34:00      -22.249       21.631       27.210       17.224       23.033       21.169      296.678      530.533      448.107        0.149        0.064       31.031       15.707        0.256      347.818       27.063      862.605
07/13/2013  11:35:00      -22.033       -8.580       25.157       42.577       24.443       25.428     1812.777      597.438      646.579        0.212        0.153       23.645       31.357        1.759      347.693       26.847      862.605
07/13/2013  11:36:00      -22.404      -10.164       24.514       34.948       47.073       32.831     1221.341     2215.837     1077.885        0.286        0.226       24.602       36.300        2.177      347.318       26.201      862.594
07/13/2013  11:37:00       13.002       32.358       36.774       30.174       17.780       22.011      910.468      316.115      484.491        0.214        0.086       34.873       14.055        0.162      347.246       26.078      862.595
07/13/2013  11:38:00      -10.316       19.105       21.525       17.723       17.672       20.871      314.089      312.317      435.619        0.100        0.053       21.712        7.053        0.106      347.471       26.466      862.586
07/13/2013  11:39:00      -10.098       44.938       18.219       25.343       34.808       24.908      642.279     1211.606      620.398        0.246        0.124       46.058       19.708        0.183      347.961       27.312      862.580
07/13/2013  11:40:00       -1.262       78.586        3.735       28.118       35.316       33.844      790.632     1247.253     1145.388        0.469        0.159       78.596       24.732        0.099      347.724       26.902      862.568
07/13/2013  11:41:00       26.380       30.872      -21.625       22.684       33.212       23.401      514.563     1103.009      547.600        0.214        0.108       40.608       10.950        0.073      347.163       25.934      862.559
07/13/2013  11:42:00       32.851       41.708       -9.907       25.136       46.829       25.350      631.840     2192.928      642.646        0.319        0.173       53.092       26.529        0.250      347.198       25.995      862.556
07/13/2013  11:43:00       73.272        3.686        9.654       27.745       30.746       31.941      769.789      945.312     1020.233        0.410        0.137       73.365       17.251        0.055      346.949       25.564      862.537
07/13/2013  11:44:00      -13.953        6.053       19.152       24.856       19.817       20.429      617.833      392.694      417.360        0.101        0.071       15.210       14.375        0.893      347.564       26.624      862.548
07/13/2013  11:45:00     -110.742       39.627       -6.786       53.675       48.852       28.367     2880.997     2386.503      804.692        0.997        0.304      117.618       27.381        0.054      347.324       26.211      862.541
07/13/2013  11:46:00     -144.669       76.633      -22.611       46.860       38.531       27.368     2195.814     1484.627      748.988        1.587        0.221      163.712       20.911        0.016      347.126       25.870      862.536
07/13/2013  11:47:00     -170.959      -12.074       -7.608       56.958       57.002       30.550     3244.196     3249.178      933.327        1.843        0.371      171.385       21.841        0.016      347.473       26.468      862.532
07/13/2013  11:48:00     -148.508       31.069      -15.291       55.789       56.968       22.844     3112.449     3245.345      521.858        1.507        0.344      151.723       15.050        0.010      347.263       26.105      862.533
07/13/2013  11:49:00      -73.645      -55.830        8.892       62.414       39.629       32.206     3895.566     1570.435     1037.241        0.756        0.325       92.415       31.097        0.113      347.680       26.824      862.533
07/13/2013  11:50:00     -104.536      -77.418      -14.571       34.746       20.111       23.914     1207.285      404.463      571.857        0.966        0.109      130.082        8.350        0.004      347.082       25.792      862.545
07/13/2013  11:51:00      -23.467      -47.976       -4.484       18.968       20.738       11.610      359.799      430.065      134.797        0.190        0.046       53.408       10.182        0.036      347.050       25.738      862.533
07/13/2013  11:52:00       -5.434       -3.384      -13.155       20.850       25.586       21.414      434.729      654.625      458.545        0.088        0.077        6.401       13.207        4.256      347.750       26.945      862.528
07/13/2013  11:53:00      -18.760      -42.174       10.701       40.775       31.358       25.341     1662.604      983.307      642.187        0.277        0.164       46.158       15.375        0.111      347.658       26.787      862.519
07/13/2013  11:54:00      -38.573      -22.336       14.970       33.646       35.803       20.903     1132.069     1281.853      436.936        0.253        0.143       44.573       12.882        0.084      347.604       26.694      862.509
07/13/2013  11:55:00      -10.455       29.128       37.076       16.691       20.589       19.897      278.579      423.906      395.898        0.172        0.055       30.947       12.017        0.151      348.272       27.849      862.502
07/13/2013  11:56:00      -84.927       50.819       -7.353       50.013       59.495       31.707     2501.340     3539.694     1005.354        0.845        0.352       98.971       30.176        0.093      347.393       26.329      862.497
07/13/2013  11:57:00      -15.734        7.156       34.293       57.191       34.737       25.966     3270.866     1206.656      674.247        0.331        0.258       17.285       32.314        3.495      348.214       27.747      862.497
07/13/2013  11:58:00     -167.325      -95.589       -7.566       53.726       47.191       33.090     2886.484     2227.013     1094.929        2.170        0.310      192.704       31.359        0.026      347.329       26.218      862.486
07/13/2013  11:59:00     -100.722      -73.454      -15.009       32.937       32.912       22.170     1084.840     1083.211      491.514        0.921        0.133      124.661        7.011        0.003      347.203       26.003      862.485
07/13/2013  12:00:00      -21.057      -37.481      -10.588       34.404       23.904       18.406     1183.668      571.417      338.785        0.203        0.105       42.991        6.186        0.021      347.304       26.176      862.490
07/13/2013  12:01:00       11.553      -34.912        9.470       31.762       44.567       30.748     1008.841     1986.238      945.453        0.269        0.197       36.774       28.250        0.590      347.743       26.934      862.476
07/13/2013  12:02:00       14.454       20.185       27.149       25.098       35.631       21.589      629.894     1269.585      466.070        0.186        0.118       24.827       12.795        0.266      347.581       26.655      862.458
07/13/2013  12:03:00       -0.602       27.798       36.223       18.246       28.510       18.729      332.913      812.828      350.760        0.179        0.075       27.804       11.979        0.186      347.368       26.287      862.454
07/13/2013  12:04:00       15.259       49.375       30.519       32.354       31.427       31.566     1046.797      987.664      996.404        0.332        0.152       51.679       21.937        0.180      347.232       26.055      862.446
07/13/2013  12:05:00       52.488       53.456       18.036       54.754       46.960       33.492     2998.006     2205.232     1121.746        0.613        0.316       74.917       24.408        0.106      347.522       26.552      862.445
07/13/2013  12:06:00       57.221       58.830        9.636       71.769       60.280       41.484     5150.772     3633.633     1720.909        0.866        0.525       82.068       48.464        0.349      347.949       27.289      862.433
07/13/2013  12:07:00       97.152      103.989        6.473       84.244       48.757       41.215     7096.979     2377.276     1698.672        1.573        0.559      142.310       35.124        0.061      347.716       26.887      862.414
07/13/2013  12:08:00       40.051       37.374       12.999       34.201       33.253       26.141     1169.703     1105.752      683.332        0.306        0.148       54.780       17.646        0.104      348.260       27.825      862.409
07/13/2013  12:09:00       34.173       31.129       38.981       68.336       36.762       31.596     4669.805     1351.426      998.284        0.534        0.351       46.226       21.608        0.219      348.364       28.006      862.406
07/13/2013  12:10:00      158.318      111.220        6.766       74.626       62.978       48.380     5569.024     3966.261     2340.642        2.468        0.594      193.480       24.399        0.016      347.770       26.979      862.407
07/13/2013  12:11:00      104.020       66.928       29.805       64.304       55.619       43.379     4134.984     3093.497     1881.761        1.265        0.456      123.691       40.479        0.107      347.677       26.820      862.422
07/13/2013  12:12:00       27.482       42.666       39.518       29.095       50.575       40.194      846.515     2557.835     1615.528        0.458        0.251       50.751        6.959        0.019      347.527       26.561      862.410
07/13/2013  12:13:00       38.306       16.482       54.305       45.147       38.359       37.558     2038.228     1471.411     1410.620        0.480        0.246       41.701       26.938        0.417      347.584       26.661      862.412
07/13/2013  12:14:00       92.863      -17.652       22.037       38.971       41.909       36.406     1518.710     1756.374     1325.396        0.701        0.230       94.526       36.794        0.152      347.098       25.820      862.406
07/13/2013  12:15:00       32.846       11.615       41.245       65.701       53.291       44.292     4316.620     2839.935     1961.814        0.601        0.456       34.840       31.538        0.819      347.385       26.317      862.381
07/13/2013  12:16:00       10.535       -6.117       44.806       48.660       62.620       51.691     2367.785     3921.216     2671.949        0.556        0.448       12.182       29.245        5.763      347.824       27.073      862.369
07/13/2013  12:17:00        9.464       12.815       67.228       33.070       46.302       32.337     1093.653     2143.912     1045.676        0.453        0.214       15.930       17.708        1.236      347.943       27.279      862.365
07/13/2013  12:18:00        4.840      -41.091       14.882       40.593       59.644       46.083     1647.827     3557.434     2123.609        0.463        0.366       41.375       28.844        0.486      347.420       26.376      862.364
07/13/2013  12:19:00       27.190      -47.355       30.395       48.746       57.537       46.419     2376.173     3310.563     2154.700        0.587        0.392       54.606       30.704        0.316      348.229       27.775      862.347
07/13/2013  12:20:00       -9.119      -28.167        7.835       38.856       49.679       35.809     1509.772     2468.051     1282.249        0.310        0.263       29.607       35.403        1.430      348.037       27.442      862.355
07/13/2013  12:21:00       58.290     -116.538        2.153       66.449       77.563       54.207     4415.475     6015.943     2938.354        1.517        0.668      130.303       43.759        0.113      347.677       26.818      862.335
07/13/2013  12:22:00      -13.853      -90.855       14.880       58.994      101.709       55.751     3480.346    10344.715     3108.121        1.280        0.847       91.906       53.129        0.334      348.237       27.788      862.324
07/13/2013  12:23:00       53.002      -30.777       34.022       63.180       92.425       74.505     3991.768     8542.424     5551.057        1.150        0.904       61.290       80.670        1.732      347.801       27.033      862.315
07/13/2013  12:24:00       21.825       14.422       35.219       41.598       72.811       64.284     1730.413     5301.411     4132.434        0.654        0.558       26.159       61.599        5.545      347.806       27.042      862.317
07/13/2013  12:25:00       35.154        0.104       34.967       53.876       57.876       45.518     2902.638     3349.633     2071.913        0.539        0.416       35.154       45.041        1.642      347.278       26.133      862.306
07/13/2013  12:26:00       52.540       16.999       33.794       50.303       31.390       40.500     2530.406      985.349     1640.210        0.467        0.258       55.222       11.677        0.045      347.761       26.965      862.295
07/13/2013  12:27:00       45.220        7.507       13.397       39.537       32.894       37.086     1563.204     1081.995     1375.343        0.315        0.201       45.839       29.327        0.409      347.804       27.040      862.287
07/13/2013  12:28:00       57.155      -33.502       13.504       36.851       35.466       29.177     1358.024     1257.821      851.318        0.402        0.173       66.250       11.253        0.029      347.685       26.834      862.279
07/13/2013  12:29:00       26.644       -0.618        3.232       30.700       29.785       22.761      942.491      887.130      518.058        0.153        0.117       26.652       13.344        0.251      347.744       26.937      862.264
07/13/2013  12:30:00       27.160       26.768       23.887       38.436       23.691       31.074     1477.357      561.241      965.577        0.251        0.150       38.134       21.847        0.328      347.329       26.219      862.254
07/13/2013  12:31:00       39.129       33.812       16.968       21.453       21.917       18.649      460.229      480.373      347.790        0.213        0.064       51.713        8.481        0.027      347.083       25.795      862.245
07/13/2013  12:32:00       24.967        6.289       17.312       19.254       21.903       22.468      370.721      479.746      504.804        0.116        0.068       25.747       18.836        0.535      347.347       26.250      862.227
07/13/2013  12:33:00        4.917      -28.368       -9.718       27.145       17.751       13.413      736.855      315.110      179.909        0.108        0.062       28.791        9.074        0.099      347.946       27.285      862.214
07/13/2013  12:34:00      -12.483      -37.638       18.807       29.826       47.974       27.038      889.580     2301.527      731.055        0.292        0.196       39.654       26.282        0.439      348.308       27.908      862.195
07/13/2013  12:35:00       20.444      -15.994       45.832       43.339       72.987       31.799     1878.308     5327.154     1011.151        0.549        0.411       25.957       37.983        2.141      347.718       26.891      862.174
07/13/2013  12:36:00        6.119     -142.143        4.489       45.637       54.242       25.988     2082.721     2942.198      675.381        1.298        0.285      142.275       22.274        0.025      347.792       27.015      862.178
07/13/2013  12:37:00      -27.959     -110.181       -6.775       22.955       28.004       24.135      526.915      784.237      582.522        0.743        0.095      113.673       14.616        0.017      347.625       26.728      862.185
07/13/2013  12:38:00        9.592      -40.756        9.838       35.986       29.145       27.213     1294.974      849.423      740.547        0.237        0.144       41.869       26.741        0.408      348.016       27.406      862.168
07/13/2013  12:39:00        4.912        5.981       38.041       20.793       11.164       11.571      432.340      124.646      133.898        0.110        0.035        7.739       11.858        2.348      348.668       28.532      862.158
07/13/2013  12:40:00      -38.648       37.282       17.280       48.743       33.188       25.825     2375.880     1101.416      666.928        0.366        0.207       53.699       19.107        0.127      348.197       27.717      862.136
07/13/2013  12:41:00       36.882       45.687       21.416       51.297       45.440       29.836     2631.366     2064.767      890.182        0.475        0.279       58.716       21.775        0.138      348.231       27.778      862.132
07/13/2013  12:42:00     -145.391       14.853      -14.621       86.229       24.613       25.752     7435.425      605.776      663.188        1.514        0.435      146.148       26.368        0.033      347.957       27.301      862.141
07/13/2013  12:43:00      -44.121       42.385       -6.222       56.853       38.393       28.320     3232.295     1474.049      802.020        0.464        0.275       61.182       31.518        0.265      348.064       27.489      862.140
07/13/2013  12:44:00       57.813       59.990       19.694       45.506       38.503       33.784     2070.757     1482.493     1141.326        0.601        0.235       83.313       21.918        0.069      348.468       28.186      862.125
07/13/2013  12:45:00       15.590        6.122       35.868       49.408       41.347       29.868     2441.144     1709.611      892.080        0.330        0.252       16.749       20.155        1.448      348.819       28.793      862.118
07/13/2013  12:46:00     -157.175      -42.561       -6.264       79.045       34.887       27.125     6248.082     1217.104      735.770        1.738        0.410      162.836       26.689        0.027      348.005       27.383      862.125
07/13/2013  12:47:00       -8.916       16.940       27.825       29.977       36.448       25.548      898.623     1328.435      652.697        0.201        0.144       19.143       23.601        1.520      348.474       28.198      862.105
07/13/2013  12:48:00       24.005       21.581       36.856       36.418       28.440       20.763     1326.287      808.849      431.118        0.248        0.128       32.280        9.361        0.084      349.002       29.112      862.108
07/13/2013  12:49:00       36.328       20.581       15.551       39.509       47.807       31.866     1560.967     2285.520     1015.425        0.342        0.243       41.753       18.047        0.187      347.911       27.226      862.099
07/13/2013  12:50:00       27.627      -25.043       35.096       37.355       44.443       24.657     1395.379     1975.213      607.968        0.330        0.199       37.288       17.976        0.232      347.906       27.214      862.105
07/13/2013  12:51:00        7.708       12.481       36.340       26.721       34.298       26.718      714.010     1176.379      713.857        0.207        0.130       14.669       21.099        2.069      347.726       26.905      862.083
07/13/2013  12:52:00       33.949       34.353       10.488       27.746       17.024       24.340      769.851      289.802      592.447        0.205        0.083       48.298       17.746        0.135      347.369       26.288      862.064
07/13/2013  12:53:00        1.923        8.326       38.508       16.656       40.287       26.502      277.415     1623.025      702.344        0.208        0.130        8.546       26.395        9.540      348.056       27.474      862.052
07/13/2013  12:54:00       31.585       -0.049       17.241       25.240       32.943       28.665      637.065     1085.245      821.683        0.192        0.127       31.585       23.643        0.560      347.710       26.876      862.034
07/13/2013  12:55:00       14.101       55.724        3.838       43.820       49.580       41.181     1920.189     2458.153     1695.864        0.470        0.304       57.480       28.195        0.241      348.166       27.666      862.023
07/13/2013  12:56:00       67.238       45.761       41.418       48.503       50.810       42.169     2352.581     2581.680     1778.229        0.752        0.336       81.333       31.088        0.146      347.820       27.067      862.008
07/13/2013  12:57:00      109.265       45.202       63.418       74.541       57.790       48.365     5556.332     3339.701     2339.162        1.462        0.562      118.246       36.149        0.093      347.817       27.061      861.988
07/13/2013  12:58:00       50.497       43.984        6.539       45.300       30.858       24.284     2052.066      952.203      589.700        0.406        0.180       66.967       16.346        0.060      348.302       27.900      862.000
07/13/2013  12:59:00       44.331       15.633       22.757       50.521       42.438       39.234     2552.378     1800.988     1539.337        0.431        0.295       47.007       26.045        0.307      348.619       28.448      861.986
07/13/2013  13:00:00      123.473       61.280       17.780       58.037       60.772       55.340     3368.279     3693.210     3062.498        1.472        0.506      137.843       30.710        0.050      348.562       28.348      861.976
07/13/2013  13:01:00       85.383       45.420       35.798       68.913       46.738       47.005     4748.942     2184.435     2209.428        0.989        0.457       96.712       26.693        0.076      348.849       28.845      861.979
07/13/2013  13:02:00      121.102       71.548       29.186      101.902       59.356       53.919    10384.018     3523.144     2907.261        1.872        0.841      140.658       38.539        0.075      348.392       28.054      861.979
07/13/2013  13:03:00      118.629       67.996       26.625       46.964       48.281       28.208     2205.584     2331.073      795.689        1.237        0.267      136.734       22.605        0.027      347.743       26.935      861.967
07/13/2013  13:04:00      143.483       77.528       34.460       48.409       41.704       38.897     2343.476     1739.263     1512.952        1.669        0.280      163.089       23.157        0.020      348.069       27.496      861.964
07/13/2013  13:05:00       39.556      -10.499       10.844       58.479       64.572       38.684     3419.796     4169.542     1496.486        0.544        0.454       40.926       17.042        0.173      348.483       28.212      861.947
07/13/2013  13:06:00      164.572      116.923       25.612       97.369       81.010       52.707     9480.656     6562.650     2778.010        3.011        0.941      201.879       25.230        0.016      348.507       28.251      861.940
07/13/2013  13:07:00      163.034      106.862       31.185       92.429       70.982       51.454     8543.102     5038.453     2647.532        2.760        0.811      194.935       24.385        0.016      348.657       28.511      861.932
07/13/2013  13:08:00       83.704       18.662       17.276       57.824       84.812       44.864     3343.572     7193.083     2012.748        1.010        0.627       85.759       35.197        0.168      348.495       28.234      861.930
07/13/2013  13:09:00       67.120       32.802       89.003       72.116       95.896       75.409     5200.728     9195.995     5686.582        1.679        1.004       74.707       64.841        0.753      348.753       28.680      861.910
07/13/2013  13:10:00       32.728      -43.901       13.894       75.542      115.506       75.441     5706.540    13341.606     5691.382        1.396        1.237       54.758       45.988        0.705      348.675       28.542      861.905
07/13/2013  13:11:00       47.801      -79.159       61.160       78.784      123.735       78.359     6206.936    15310.322     6140.094        1.997        1.383       92.472       71.908        0.605      348.806       28.769      861.908
07/13/2013  13:12:00      101.750     -191.098      -57.085       70.787       74.277       50.585     5010.806     5517.115     2558.846        3.161        0.654      216.498       32.348        0.022      348.423       28.104      861.933
07/13/2013  13:13:00       87.293     -119.020       -8.971       84.654       91.396       60.261     7166.243     8353.193     3631.420        2.050        0.958      147.601       57.658        0.153      348.334       27.953      861.942
07/13/2013  13:14:00       10.998        9.684       50.584       76.987       69.117       50.898     5927.048     4777.228     2590.595        0.803        0.665       14.654       47.472       10.495      348.715       28.613      861.951
07/13/2013  13:15:00       16.873      -98.315      -13.634       99.435       77.878       43.527     9887.232     6064.972     1894.576        1.399        0.892       99.753       37.673        0.143      348.496       28.234      861.928
07/13/2013  13:16:00       36.672      -93.398       19.607       45.854       52.111       42.872     2102.554     2715.524     1837.986        0.855        0.333      100.340       16.160        0.026      348.425       28.112      861.928
07/13/2013  13:17:00       16.323      -72.073       -1.834       31.087       58.166       41.328      966.371     3383.289     1708.034        0.576        0.303       73.898       27.991        0.143      348.535       28.302      861.919
07/13/2013  13:18:00      154.208      -76.200       17.635       68.448      155.406       80.322     4685.066    24150.937     6451.557        3.259        1.764      172.008       97.422        0.321      348.590       28.394      861.892
07/13/2013  13:19:00      225.584      100.914       22.045      136.492       99.221       76.672    18630.117     9844.872     5878.540        4.795        1.718      247.127       76.299        0.095      348.636       28.474      861.876
07/13/2013  13:20:00      150.507       90.786       37.066       88.278       59.520       63.281     7793.084     3542.689     4004.424        2.380        0.767      175.768       47.286        0.072      348.860       28.862      861.862
07/13/2013  13:21:00      157.704       77.392       54.214      116.917      104.000       74.730    13669.578    10815.979     5584.645        3.193        1.504      175.670       46.261        0.069      348.829       28.808      861.855
07/13/2013  13:22:00       52.977      -27.201       67.446       84.402      144.055       82.885     7123.684    20751.819     6869.962        2.141        1.737       59.552       97.622        2.687      348.845       28.837      861.833
07/13/2013  13:23:00       99.480        0.626      107.466      103.936      147.153       99.473    10802.731    21654.072     9894.810        3.189        2.118       99.482       98.613        0.983      348.937       28.996      861.801
07/13/2013  13:24:00       48.013       21.050       30.826       46.996       51.063       40.394     2208.654     2607.467     1631.689        0.507        0.322       52.425       27.780        0.281      349.241       29.526      861.809
07/13/2013  13:25:00       85.949       58.567       40.807       91.856      121.850       60.017     8437.483    14847.473     3602.044        1.968        1.344      104.006       63.583        0.374      349.094       29.268      861.788
07/13/2013  13:26:00       74.147       18.497       64.032       77.068      150.340       93.519     5939.543    22602.127     8745.739        2.361        1.864       76.420       62.225        0.663      349.027       29.152      861.783
07/13/2013  13:27:00       68.612      -11.551       -5.606       70.835       95.917       40.280     5017.637     9200.035     1622.510        1.035        0.792       69.578       38.510        0.306      348.847       28.842      861.802
07/13/2013  13:28:00      142.386       79.856       47.740       93.737       68.157       63.476     8786.713     4645.423     4029.245        2.319        0.873      163.251       51.121        0.098      348.837       28.821      861.795
07/13/2013  13:29:00       79.860       70.579       36.515       83.029       61.697       50.486     6893.736     3806.563     2548.809        1.297        0.662      106.579       29.851        0.078      348.979       29.069      861.786
07/13/2013  13:30:00       52.612       17.181       31.716       55.941       71.832       47.250     3129.356     5159.776     2232.563        0.729        0.526       55.346       41.817        0.571      349.060       29.211      861.773
07/13/2013  13:31:00        7.344       35.901       64.403       45.701       50.843       40.041     2088.583     2585.013     1603.287        0.588        0.314       36.645       33.550        0.838      349.277       29.588      861.746
07/13/2013  13:32:00        5.763        8.142       47.050       38.397       30.639       26.414     1474.331      938.772      697.690        0.271        0.156        9.975       14.769        2.192      349.437       29.864      861.738
07/13/2013  13:33:00        5.577       27.409       14.560       67.246       39.777       41.590     4521.968     1582.222     1729.765        0.441        0.392       27.970       28.955        1.072      349.063       29.218      861.725
07/13/2013  13:34:00       24.979     -107.000      -17.684       51.082       73.412       38.784     2609.345     5389.322     1504.187        1.094        0.475      109.877       37.345        0.116      348.686       28.563      861.715
07/13/2013  13:35:00       56.214     -125.839       -0.471       74.345      102.522       67.059     5527.185    10510.719     4496.873        1.976        1.027      137.824       65.775        0.228      348.988       29.086      861.692
07/13/2013  13:36:00      137.970     -184.894      -32.732       89.242       98.322       59.226     7964.219     9667.171     3507.716        3.771        1.057      230.698       55.902        0.059      348.587       28.388      861.690
07/13/2013  13:37:00       35.277      -46.477       48.725       48.548      137.013       66.620     2356.956    18772.492     4438.276        1.567        1.278       58.349       85.784        2.161      348.740       28.655      861.697
07/13/2013  13:38:00      173.398       86.397       13.034       83.523       47.881       42.080     6976.136     2292.578     1770.737        2.437        0.552      193.731       28.844        0.022      348.621       28.447      861.691
07/13/2013  13:39:00       43.207        5.829       32.138       41.840       39.475       32.605     1750.574     1558.261     1063.099        0.365        0.219       43.598       25.739        0.349      348.743       28.662      861.684
07/13/2013  13:40:00       63.788       12.506       44.988       65.078       88.102       52.970     4235.173     7761.945     2805.792        1.052        0.740       65.002       52.704        0.657      348.809       28.777      861.667
07/13/2013  13:41:00       51.734       45.219       76.673       61.952       60.314       48.871     3837.996     3637.735     2388.419        1.023        0.493       68.711       34.911        0.258      348.977       29.066      861.652
07/13/2013  13:42:00      135.205       39.092       88.835      131.282      110.138       73.732    17234.921    12130.409     5436.363        3.124        1.740      140.743       81.270        0.333      349.019       29.136      861.628
07/13/2013  13:43:00       71.502       57.178       88.562      110.480       84.997       63.997    12205.841     7224.544     4095.629        1.987        1.176       91.552       74.502        0.662      349.006       29.115      861.642
07/13/2013  13:44:00       53.611       -3.750       36.042       74.812       80.791       66.037     5596.876     6527.194     4360.886        1.033        0.824       53.742       61.934        1.328      349.309       29.642      861.624
07/13/2013  13:45:00      113.232      -33.287       76.494      118.639      124.361       83.636    14075.202    15465.566     6995.013        2.815        1.827      118.024       88.260        0.559      349.275       29.582      861.583
07/13/2013  13:46:00      155.464      -83.736       48.776      106.063      118.552       91.201    11249.382    14054.541     8317.670        3.358        1.681      176.581       92.665        0.275      348.968       29.049      861.571
07/13/2013  13:47:00      109.511        7.172       82.434       90.904      100.998       73.306     8263.590    10200.696     5373.729        2.133        1.192      109.746       80.395        0.537      349.007       29.115      861.574
07/13/2013  13:48:00      106.956       35.733       72.414       76.617       80.200       58.156     5870.190     6431.969     3382.081        1.682        0.784      112.767       60.019        0.283      349.018       29.137      861.554
07/13/2013  13:49:00       75.863       74.384      120.604      124.339      104.904       97.451    15460.100    11004.813     9496.691        3.089        1.798      106.246       98.621        0.862      349.176       29.410      861.535
07/13/2013  13:50:00      100.306      117.668       97.237      100.304       94.336       86.871    10060.838     8899.340     7546.652        2.993        1.325      154.619       75.540        0.239      348.901       28.933      861.527
07/13/2013  13:51:00      179.752     -189.075      -20.377      140.404      203.804      104.892    19713.323    41536.142    11002.418        7.035        3.613      260.884      130.609        0.251      348.910       28.948      861.506
07/13/2013  13:52:00      170.137      -14.117      101.263      124.233      157.838      105.746    15433.734    24912.810    11182.164        4.545        2.576      170.721      113.998        0.446      349.110       29.295      861.496
07/13/2013  13:53:00       89.975      -69.163       66.591       94.586      159.048      101.774     8946.544    25296.289    10358.000        3.095        2.230      113.486      121.079        1.138      349.271       29.575      861.507
07/13/2013  13:54:00       89.714     -120.817       17.458       99.875      126.966       89.560     9975.021    16120.452     8020.959        2.853        1.706      150.483       89.117        0.351      349.236       29.515      861.511
07/13/2013  13:55:00      129.369     -284.528      -31.612      132.775       57.221       48.777    17629.122     3274.262     2379.168        6.098        1.164      312.558       38.766        0.015      348.587       28.387      861.574
07/13/2013  13:56:00     -184.935     -105.146      -32.915       70.428      100.965       33.550     4960.035    10193.975     1125.586        3.131        0.814      212.736       26.155        0.015      348.496       28.230      861.563
07/13/2013  13:57:00      -93.077       26.379        5.589      124.457       59.025       50.148    15489.593     3484.004     2514.864        1.544        1.074       96.743       69.501        0.516      348.929       28.983      861.514
07/13/2013  13:58:00       77.457      -75.693       34.033       93.214      145.189       77.267     8688.888    21079.813     5970.192        2.431        1.787      108.301       87.344        0.650      349.030       29.157      861.486
07/13/2013  13:59:00      104.338     -213.029       -7.637       96.513      121.853       75.596     9314.785    14848.105     5714.759        4.310        1.494      237.208       66.615        0.079      349.289       29.604      861.463
07/13/2013  14:00:00      180.480     -250.870      -21.566       97.778      103.914       53.893     9560.579    10798.113     2904.416        5.961        1.163      309.045       21.011        0.005      348.810       28.773      861.493
07/13/2013  14:01:00      -35.483     -129.167        5.072       92.717       85.368       46.303     8596.404     7287.749     2143.963        1.799        0.901      133.952       47.175        0.124      349.223       29.492      861.501
07/13/2013  14:02:00      -28.121      -88.064        0.914       61.107       68.278       46.448     3734.098     4661.893     2157.439        0.955        0.528       92.445       41.784        0.204      349.252       29.545      861.509
07/13/2013  14:03:00       -0.466      -38.141       15.334       52.089       46.397       42.485     2713.280     2152.727     1804.947        0.418        0.334       38.144       28.365        0.553      349.295       29.618      861.517
07/13/2013  14:04:00      -39.006        1.202       25.670       30.069       26.003       17.687      904.117      676.143      312.826        0.204        0.095       39.025       11.115        0.081      349.351       29.715      861.518
07/13/2013  14:05:00        7.721       -4.655       32.937       20.026       39.854       20.860      401.048     1588.333      435.121        0.179        0.121        9.015       17.333        3.697      349.535       30.034      861.510
07/13/2013  14:06:00       39.815      -73.844       22.757       35.953       84.386       36.103     1292.627     7121.000     1303.456        0.863        0.486       83.894       44.037        0.276      349.142       29.352      861.505
07/13/2013  14:07:00      -32.565     -116.828        3.832       34.448       43.418       28.277     1186.664     1885.129      799.564        0.930        0.194      121.282       19.278        0.025      348.652       28.505      861.505
07/13/2013  14:08:00       -8.913       12.587       36.866       11.800       27.874       16.144      139.234      776.939      260.632        0.139        0.059       15.423       12.337        0.640      349.605       30.156      861.491
07/13/2013  14:09:00       23.938       17.298       29.785       26.439       20.130       19.672      699.020      405.202      386.985        0.163        0.075       29.533        9.844        0.111      349.576       30.106      861.473
07/13/2013  14:10:00       61.389       41.586        3.329       54.050       39.865       32.331     2921.359     1589.230     1045.307        0.553        0.278       74.148       23.748        0.103      349.233       29.510      861.448
07/13/2013  14:11:00       70.687       22.218        8.373       73.347       59.580       38.429     5379.808     3549.717     1476.798        0.798        0.520       74.096       25.319        0.117      349.310       29.644      861.430
07/13/2013  14:12:00       27.617        4.452       27.552       92.400       80.299       47.451     8537.752     6447.975     2251.589        0.939        0.862       27.973       46.805        2.800      349.276       29.585      861.429
07/13/2013  14:13:00      -36.047      -58.184       21.658      148.102       91.533       76.552    21934.170     8378.267     5860.184        2.066        1.809       68.445       56.294        0.676      349.163       29.388      861.412
07/13/2013  14:14:00       17.740      -91.756       20.014       72.689       96.054       54.565     5283.661     9226.423     2977.392        1.331        0.874       93.455       56.486        0.365      349.580       30.111      861.413
07/13/2013  14:15:00       -4.126      -91.800       -4.880       93.728       94.836       51.217     8784.918     8993.794     2623.189        1.443        1.020       91.893       37.853        0.170      349.560       30.076      861.430
07/13/2013  14:16:00       11.130        6.717       76.630       71.345      122.319       58.600     5090.146    14961.897     3433.925        1.476        1.174       12.999       71.110       29.924      349.400       29.800      861.453
07/13/2013  14:17:00      116.384       -5.915       51.763       88.776      171.606       84.146     7881.264    29448.676     7080.552        3.033        2.221      116.534       99.535        0.730      348.880       28.897      861.452
07/13/2013  14:18:00      213.395      120.679       54.041      103.004       75.045       81.595    10609.729     5631.812     6657.694        4.296        1.145      245.155       63.157        0.066      348.627       28.457      861.443
07/13/2013  14:19:00       81.965      104.569       47.496      115.648       90.965       62.023    13374.447     8274.700     3846.803        2.270        1.275      132.864       34.987        0.069      348.611       28.432      861.452
07/13/2013  14:20:00       -8.498      134.685      -16.731       61.345      113.737       35.330     3763.254    12936.039     1248.185        1.822        0.897      134.953       36.016        0.071      348.985       29.079      861.452
07/13/2013  14:21:00      124.809      122.865       13.938       98.810       63.767       47.481     9763.326     4066.278     2254.480        2.347        0.804      175.137       33.467        0.037      348.909       28.948      861.437
07/13/2013  14:22:00      112.687       90.482       24.212       83.109       65.922       58.659     6907.027     4345.696     3440.834        1.808        0.735      144.518       24.404        0.029      349.197       29.447      861.417
07/13/2013  14:23:00       92.118       86.346       10.671       68.867       60.019       31.120     4742.642     3602.307      968.440        1.268        0.466      126.259       30.289        0.058      349.125       29.324      861.417
07/13/2013  14:24:00       67.172       81.573       70.050       83.621       39.546       36.250     6992.519     1563.855     1314.081        1.297        0.494      105.670       26.307        0.062      348.933       28.991      861.407
07/13/2013  14:25:00      126.080       78.100       30.029       76.811       59.843       55.330     5899.927     3581.211     3061.366        1.772        0.627      148.310       27.375        0.034      349.086       29.255      861.382
07/13/2013  14:26:00       88.709       90.975       71.430       68.129       53.238       61.481     4641.515     2834.328     3779.882        1.625        0.563      127.065       59.954        0.223      349.078       29.241      861.366
07/13/2013  14:27:00       53.963       62.817      105.346       47.789      114.823       72.846     2283.801    13184.381     5306.559        1.936        1.039       82.813       87.482        1.116      348.944       29.008      861.343
07/13/2013  14:28:00       50.014       -7.476       71.437       54.021       55.267       44.531     2918.220     3054.434     1983.015        0.781        0.398       50.570       19.909        0.155      349.232       29.511      861.307
07/13/2013  14:29:00      149.422       73.122       42.230       81.674       64.401       49.350     6670.581     4147.536     2435.446        2.135        0.663      166.355       43.326        0.068      349.032       29.161      861.294
07/13/2013  14:30:00       98.539       60.523       25.309       62.902       60.593       41.780     3956.610     3671.569     1745.593        1.169        0.469      115.641       31.481        0.074      349.225       29.495      861.287
07/13/2013  14:31:00       21.493       54.554        9.903       52.840       40.362       41.857     2792.018     1629.076     1751.989        0.485        0.309       58.635       23.037        0.154      349.348       29.709      861.286
07/13/2013  14:32:00       48.611      -12.041       -9.328       52.215      101.797       32.813     2726.407    10362.671     1076.724        0.838        0.708       50.080       25.086        0.251      349.360       29.731      861.269
07/13/2013  14:33:00        0.986      -90.370       -6.989       36.877       53.489       21.049     1359.894     2861.108      443.058        0.644        0.233       90.375       19.202        0.045      349.340       29.696      861.264
07/13/2013  14:34:00        3.020      -32.489       14.033       28.044       41.792       26.316      786.446     1746.575      692.515        0.224        0.161       32.629       29.771        0.832      349.941       30.741      861.262
07/13/2013  14:35:00        7.847      -10.470       26.226       14.420       26.976       15.547      207.938      727.716      241.703        0.102        0.059       13.084       16.483        1.587      350.073       30.969      861.252
07/13/2013  14:36:00      -48.653       34.494        0.804       68.664       38.801       25.521     4714.755     1505.492      651.296        0.521        0.344       59.640       33.261        0.311      349.715       30.346      861.241
07/13/2013  14:37:00      -48.956       26.283       33.317       85.058       30.055       39.617     7234.803      903.302     1569.476        0.695        0.485       55.565       49.929        0.807      349.995       30.833      861.237
07/13/2013  14:38:00     -224.360       28.315      -15.154      110.292       64.604       43.478    12164.401     4173.694     1890.304        3.479        0.911      226.140       51.187        0.051      349.301       29.624      861.229
07/13/2013  14:39:00     -170.682      120.054      -15.836       61.686       81.169       42.754     3805.142     6588.424     1827.929        2.801        0.611      208.675       25.591        0.015      349.418       29.828      861.213
07/13/2013  14:40:00     -147.740       -0.572      -16.632       45.821       37.070       30.136     2099.591     1374.152      908.192        1.324        0.219      147.741       31.462        0.045      349.083       29.251      861.202
07/13/2013  14:41:00      -67.084       23.847       -8.120       31.224       23.237       21.626      974.923      539.954      467.701        0.356        0.099       71.197       10.881        0.023      349.438       29.868      861.168
07/13/2013  14:42:00     -122.161        9.501       -4.023       58.767       40.235       28.937     3453.544     1618.851      837.348        1.047        0.295      122.530       23.353        0.036      349.607       30.159      861.167
07/13/2013  14:43:00      -65.663       36.943       16.258      100.218      102.690       49.038    10043.738    10545.274     2404.726        1.446        1.150       75.342       43.415        0.332      349.834       30.551      861.184
07/13/2013  14:44:00     -238.532       22.872      -27.791       80.797       67.627       48.193     6528.164     4573.348     2322.549        3.581        0.671      239.626       33.409        0.019      349.365       29.735      861.182
07/13/2013  14:45:00     -326.980        1.404      -34.151       96.037       67.000       45.948     9223.155     4488.983     2111.253        6.195        0.791      326.983       48.110        0.022      349.368       29.742      861.165
07/13/2013  14:46:00     -225.050      -33.218        3.366      101.822      100.163       57.746    10367.784    10032.601     3334.646        3.774        1.187      227.489       54.050        0.056      349.716       30.345      861.146
07/13/2013  14:47:00     -156.928      -16.907        1.366       81.339       94.975       51.206     6616.048     9020.167     2622.041        2.158        0.913      157.836       44.708        0.080      349.926       30.712      861.153
07/13/2013  14:48:00      -86.405      138.355       -2.081       67.778       96.632       55.226     4593.840     9337.743     3049.942        2.179        0.849      163.119       48.460        0.088      349.677       30.280      861.157
07/13/2013  14:49:00      -80.713       90.597       -3.703       75.792       63.554       50.871     5744.498     4039.071     2587.866        1.355        0.619      121.336       55.855        0.212      349.655       30.242      861.142
07/13/2013  14:50:00      -62.247      226.357      -13.592       66.382      132.299       42.557     4406.626    17502.934     1811.128        3.950        1.186      234.759       50.207        0.046      349.289       29.606      861.135
07/13/2013  14:51:00      -82.421      133.680        8.643       57.841       98.857       44.038     3345.526     9772.667     1939.358        1.989        0.753      157.047       43.249        0.076      349.451       29.886      861.145
07/13/2013  14:52:00      -79.953      103.704       -6.431       51.429       59.146       39.077     2644.959     3498.235     1527.012        1.243        0.384      130.947       37.602        0.082      349.556       30.071      861.144
07/13/2013  14:53:00      -97.073      182.612      -24.006       50.609       69.020       39.617     2561.275     4763.754     1569.495        2.612        0.445      206.810       41.661        0.041      349.310       29.642      861.145
07/13/2013  14:54:00       -3.639      113.309       13.140       45.181       69.002       44.943     2041.364     4761.342     2019.829        1.092        0.441      113.368       41.676        0.135      349.674       30.275      861.142
07/13/2013  14:55:00       18.726      231.233      -22.909       48.577       63.860       42.429     2359.739     4078.038     1800.186        3.129        0.412      231.990       41.191        0.032      349.157       29.374      861.115
07/13/2013  14:56:00     -126.843      105.335       -9.689       77.386       89.315       38.495     5988.567     7977.177     1481.864        2.136        0.772      164.878       23.777        0.021      349.288       29.604      861.113
07/13/2013  14:57:00      -22.108       98.144        6.607       56.973       96.729       38.847     3245.874     9356.497     1509.084        1.214        0.706      100.603       38.090        0.143      349.631       30.201      861.101
07/13/2013  14:58:00       18.528      114.986       -8.034       50.010       68.538       42.912     2500.988     4697.392     1841.408        1.133        0.452      116.469       45.672        0.154      349.390       29.783      861.067
07/13/2013  14:59:00       -2.085      137.499      -14.274       42.334       73.988       31.538     1792.210     5474.158      994.622        1.369        0.413      137.515       30.963        0.051      349.227       29.500      861.057
07/13/2013  15:00:00      -46.834        8.831       11.331       88.916       64.766       39.266     7906.094     4194.633     1541.825        0.802        0.682       47.659       30.568        0.411      349.687       30.297      861.041
07/13/2013  15:01:00      -86.176        2.619       12.425       92.152       62.508       37.331     8491.907     3907.268     1393.612        1.069        0.690       86.216       42.755        0.246      350.110       31.033      861.029
07/13/2013  15:02:00     -217.247     -156.383        4.402      128.463      106.601       64.574    16502.655    11363.869     4169.834        5.185        1.602      267.679       69.293        0.067      349.712       30.339      861.021
07/13/2013  15:03:00     -218.122       19.421      -16.594       73.921       69.730       48.093     5464.289     4862.277     2312.922        3.043        0.632      218.985       25.244        0.013      349.645       30.223      861.024
07/13/2013  15:04:00     -289.922      -29.719      -35.339       95.005       91.287       47.114     9025.935     8333.304     2219.775        5.288        0.979      291.441       36.045        0.015      349.924       30.706      861.030
07/13/2013  15:05:00     -426.392      -60.158      -35.144      134.291      183.447       63.657    18034.203    33652.926     4052.229       12.119        2.787      430.614       56.025        0.017      349.727       30.364      861.010
07/13/2013  15:06:00     -401.003       -6.181      -52.143      154.110      131.740       70.330    23749.825    17355.442     4946.376       10.480        2.303      401.051       65.719        0.027      349.544       30.047      860.995
07/13/2013  15:07:00     -235.266     -170.354      -10.018      134.552      122.187       59.100    18104.133    14929.649     3492.812        6.049        1.826      290.466       62.019        0.046      349.586       30.120      861.034
07/13/2013  15:08:00     -219.706     -230.051       -8.006      125.225      119.676       70.256    15681.328    14322.258     4935.891        6.809        1.747      318.110       79.677        0.063      349.317       29.653      861.021
07/13/2013  15:09:00     -244.014     -201.846       -1.417      109.045      114.449       55.734    11890.895    13098.579     3106.240        6.419        1.405      316.678       44.703        0.020      349.228       29.499      861.040
07/13/2013  15:10:00     -167.518     -171.425       12.439      121.785       65.469       53.093    14831.656     4286.159     2818.883        3.977        1.097      239.685       50.402        0.044      349.303       29.629      861.024
07/13/2013  15:11:00      -45.051      -44.172        6.575       58.390       52.347       31.829     3409.400     2740.253     1013.100        0.559        0.358       63.093       17.228        0.075      349.672       30.272      861.001
07/13/2013  15:12:00     -207.431      -97.390       -2.005      148.909      103.269       56.171    22173.958    10664.574     3155.217        4.425        1.800      229.156       70.250        0.094      349.536       30.033      860.995
07/13/2013  15:13:00     -154.894      -39.766        2.779      121.230       83.561       50.426    14696.759     6982.490     2542.758        2.490        1.211      159.917       47.593        0.089      349.680       30.285      861.005
07/13/2013  15:14:00     -134.808      -80.877       -2.417      101.664      113.107       48.685    10335.541    12793.208     2370.274        2.510        1.275      157.207       54.282        0.119      349.641       30.216      861.018
07/13/2013  15:15:00     -104.044      146.638      -23.705       80.656       97.575       54.737     6505.461     9520.941     2996.156        2.595        0.951      179.799       48.254        0.072      349.422       29.835      861.012
07/13/2013  15:16:00      -54.702       34.256       -5.860       59.174       58.530       36.926     3501.588     3425.800     1363.552        0.624        0.415       64.543       29.752        0.212      349.651       30.234      860.987
07/13/2013  15:17:00      -80.414      -20.024       13.010       70.473       71.894       32.974     4966.484     5168.788     1087.260        0.913        0.561       82.869       37.864        0.209      349.899       30.664      860.957
07/13/2013  15:18:00      -16.007       21.028        7.903       68.818       69.460       35.318     4735.914     4824.721     1247.383        0.578        0.540       26.428       32.244        1.489      349.912       30.688      860.943
07/13/2013  15:19:00      -22.181      118.861      -21.262       94.607      103.987       39.019     8950.515    10813.244     1522.521        1.817        1.064      120.913       24.545        0.041      349.476       29.930      860.910
07/13/2013  15:20:00     -104.900      -22.214       -2.632       85.397       52.842       42.108     7292.691     2792.226     1773.061        1.168        0.593      107.227       33.907        0.100      350.012       30.862      860.910
07/13/2013  15:21:00     -102.072      -44.784        9.326      119.693       81.751       36.763    14326.468     6683.147     1351.531        1.743        1.118      111.464       38.689        0.120      349.798       30.488      860.923
07/13/2013  15:22:00     -287.403     -122.498       -5.844      154.027      148.346       74.444    23724.412    22006.545     5541.868        7.445        2.564      312.419       83.693        0.072      349.678       30.280      860.924
07/13/2013  15:23:00     -152.993     -157.678       23.874      190.650      162.425      109.076    36347.480    26381.840    11897.663        6.172        3.731      219.703      123.296        0.315      349.601       30.147      860.872
07/13/2013  15:24:00     -147.194     -107.974       16.653      164.986      111.537       73.566    27220.331    12440.486     5411.988        3.933        2.254      182.550       71.773        0.155      349.667       30.260      860.870
07/13/2013  15:25:00     -166.822     -143.433       -4.945      137.250      115.631       73.481    18837.648    13370.535     5399.394        4.301        1.880      220.006       79.826        0.132      349.595       30.135      860.876
07/13/2013  15:26:00     -224.840      -71.996        7.823      131.357       90.892       54.216    17254.736     8261.404     2939.380        4.212        1.423      236.086       60.629        0.066      349.709       30.331      860.865
07/13/2013  15:27:00     -417.513     -110.300      -10.111      197.485      107.327       65.433    39000.231    11519.099     4281.423       12.068        2.740      431.836       79.817        0.034      349.571       30.092      860.873
07/13/2013  15:28:00     -370.245     -107.797      -14.454      122.154      124.707       57.415    14921.490    15551.876     3296.490        9.133        1.688      385.618       54.130        0.020      349.394       29.786      860.869
07/13/2013  15:29:00     -261.775     -153.378      -18.222      189.403      128.404       62.296    35873.382    16487.463     3880.760        7.430        2.812      303.399       76.761        0.064      349.285       29.597      860.866
07/13/2013  15:30:00     -141.700      -87.051       -4.810       69.815       80.343       40.662     4874.142     6454.941     1653.395        2.033        0.649      166.303       42.647        0.066      349.445       29.876      860.848
07/13/2013  15:31:00     -112.725       88.654       -1.242       77.728       87.750       47.940     6041.719     7700.053     2298.288        1.830        0.802      143.410       39.016        0.074      349.767       30.436      860.856
07/13/2013  15:32:00     -179.306        9.001      -34.187      116.094       89.228       66.726    13477.884     7961.575     4452.350        2.964        1.295      179.532       55.206        0.095      349.725       30.360      860.831
07/13/2013  15:33:00      -94.856      200.893      -16.307       79.376      154.762       54.494     6300.500    23951.241     2969.578        4.141        1.661      222.161       40.403        0.033      349.638       30.212      860.835
07/13/2013  15:34:00      -85.136      279.623      -36.625       59.870       85.131       40.953     3584.381     7247.202     1677.125        4.964        0.625      292.297       11.368        0.002      349.348       29.706      860.835
07/13/2013  15:35:00     -139.093      201.523      -39.334       74.344      111.451       55.114     5526.961    12421.389     3037.607        4.124        1.049      244.864       46.068        0.035      349.584       30.116      860.844
07/13/2013  15:36:00     -121.753      212.716      -11.881       66.118       84.386       59.916     4371.648     7120.924     3589.885        3.764        0.754      245.096       41.663        0.029      349.585       30.117      860.821
07/13/2013  15:37:00      -49.892      115.553      -14.108       79.474       89.164       46.544     6316.130     7950.269     2166.321        1.623        0.822      125.864       52.193        0.172      349.582       30.115      860.789
07/13/2013  15:38:00     -302.766       -9.543      -40.237      129.313      139.958       54.671    16721.872    19588.106     2988.895        6.633        1.965      302.917       45.934        0.023      349.702       30.320      860.777
07/13/2013  15:39:00     -473.854      -96.072      -25.855      162.246      133.102       76.887    26323.655    17716.271     5911.557       14.218        2.498      483.495       71.009        0.022      349.761       30.421      860.732
07/13/2013  15:40:00     -547.914     -146.970      -33.566      166.254      115.526       62.975    27640.228    13346.349     3965.901       18.394        2.248      567.283       49.522        0.008      349.417       29.825      860.776
07/13/2013  15:41:00     -278.420       -6.855      -16.907      150.685       67.273       48.217    22705.956     4525.592     2324.877        5.370        1.478      278.504       50.237        0.033      349.377       29.758      860.829
07/13/2013  15:42:00        4.826       49.305       34.257       58.602       54.831       45.603     3434.245     3006.436     2079.595        0.607        0.426       49.541       46.031        0.863      349.600       30.147      860.767
07/13/2013  15:43:00     -202.784       30.214       -6.690      116.077       83.609       45.901    13473.868     6990.492     2106.921        3.232        1.129      205.022       46.579        0.052      349.560       30.076      860.739
07/13/2013  15:44:00     -182.847      -26.623      -13.015       77.873       56.034       35.608     6064.174     3139.815     1267.926        2.239        0.524      184.775       30.025        0.026      349.322       29.663      860.711
07/13/2013  15:45:00     -233.299      -45.259      -15.651      124.658      109.603       52.405    15539.555    12012.729     2746.313        4.350        1.515      237.648       54.322        0.052      349.721       30.353      860.691
07/13/2013  15:46:00     -316.269      -54.682      -16.193       92.082      119.311       47.948     8479.108    14235.064     2299.033        6.414        1.251      320.962       39.535        0.015      349.682       30.285      860.671
07/13/2013  15:47:00     -223.667      -53.281       -8.323      135.956      124.383       75.681    18483.939    15471.006     5727.567        4.630        1.984      229.925       86.467        0.141      349.784       30.465      860.652
07/13/2013  15:48:00      -43.367       11.064       10.746      130.639       88.096       56.189    17066.641     7760.924     3157.201        1.505        1.399       44.756       52.506        1.376      349.690       30.303      860.641
07/13/2013  15:49:00     -136.321      116.926       -5.453       80.141       82.327       52.016     6422.587     6777.745     2705.620        2.409        0.795      179.597       49.937        0.077      349.833       30.549      860.653
07/13/2013  15:50:00     -147.332      152.201      -15.919      106.690      100.065       56.476    11382.845    10013.005     3189.495        3.485        1.229      211.830       55.351        0.068      349.508       29.984      860.655
07/13/2013  15:51:00      -54.584      127.068      -11.149       51.136       76.398       47.719     2614.930     5836.684     2277.093        1.499        0.536      138.295       39.858        0.083      349.538       30.038      860.649
07/13/2013  15:52:00     -109.961      135.121      -22.594       57.675       53.316       42.435     3326.449     2842.642     1800.721        1.941        0.398      174.210       39.557        0.052      349.568       30.090      860.654
07/13/2013  15:53:00     -139.081       21.295       -3.738       97.167      103.280       44.907     9441.354    10666.854     2016.610        2.096        1.106      140.702       36.866        0.069      349.742       30.392      860.657
07/13/2013  15:54:00     -237.404      -49.279       -3.549      100.003      130.754       54.028    10000.507    17096.508     2918.998        4.440        1.501      242.464       37.102        0.023      349.685       30.290      860.624
07/13/2013  15:55:00     -203.094      -52.647        1.299      120.327       81.710       53.369    14478.556     6676.574     2848.272        3.401        1.200      209.807       59.481        0.080      349.767       30.433      860.596
07/13/2013  15:56:00     -136.267      -75.618        2.331      147.840       71.966       45.298    21856.591     5179.119     2051.878        2.668        1.454      155.842       41.768        0.072      349.889       30.647      860.595
07/13/2013  15:57:00     -250.837      -81.599      -19.677      103.889      105.058       50.574    10792.945    11037.098     2557.760        4.717        1.219      263.775       45.150        0.029      349.834       30.550      860.606
07/13/2013  15:58:00     -382.977       -8.386      -17.125      163.468      127.529       66.233    26721.908    16263.653     4386.824        9.719        2.369      383.069       62.971        0.027      350.025       30.882      860.592
07/13/2013  15:59:00     -309.881       22.557      -18.336      172.636      137.115       70.854    29803.184    18800.601     5020.289        7.524        2.681      310.701       57.486        0.034      349.963       30.774      860.573
07/13/2013  16:00:00     -275.233      -44.329      -16.800      203.833      123.432       71.357    41548.043    15235.443     5091.781        6.993        3.094      278.780       64.173        0.053      350.027       30.886      860.548
07/13/2013  16:01:00     -248.807      -48.540       12.352      165.895      133.130       74.158    27521.251    17723.608     5499.467        5.757        2.537      253.497       77.360        0.093      349.860       30.596      860.537
07/13/2013  16:02:00     -207.798     -138.456       11.073      165.641      146.252       63.594    27436.789    21389.729     4044.226        5.766        2.644      249.700       67.013        0.072      349.801       30.493      860.529
07/13/2013  16:03:00     -379.249     -124.440       -1.184      248.810      198.690      110.730    61906.528    39477.850    12261.206       13.646        5.682      399.143      136.292        0.117      349.585       30.118      860.534
07/13/2013  16:04:00     -438.722      -67.465      -27.286      109.871      109.484       60.352    12071.651    11986.818     3642.381       11.273        1.385      443.879       53.468        0.015      349.375       29.753      860.550
07/13/2013  16:05:00     -236.553     -124.136        0.170      104.629       83.952       47.827    10947.194     7047.994     2287.434        4.582        1.014      267.146       43.804        0.027      349.743       30.392      860.531
07/13/2013  16:06:00     -168.948      -95.487       12.408      146.212      114.536       58.776    21377.911    13118.519     3454.628        3.788        1.898      194.065       73.188        0.142      349.922       30.702      860.557
07/13/2013  16:07:00     -169.963       24.410       -3.819       94.763      149.121       66.021     8980.120    22236.961     4358.812        3.253        1.779      171.707       46.414        0.073      349.941       30.737      860.549
07/13/2013  16:08:00     -355.764       36.060      -26.678      193.092      112.547       55.138    37284.493    12666.892     3040.173        9.078        2.650      357.586       79.785        0.050      349.749       30.403      860.533
07/13/2013  16:09:00     -388.221      -56.809      -31.276       99.917      110.960       55.233     9983.387    12312.057     3050.692        9.013        1.267      392.355       45.794        0.014      349.456       29.892      860.532
07/13/2013  16:10:00     -172.711      -34.313       -5.655       73.995       63.060       37.192     5475.244     3976.626     1383.233        2.093        0.542      176.087       37.035        0.044      349.592       30.132      860.511
07/13/2013  16:11:00     -140.015       93.338      -15.487      102.123       97.666       43.598    10429.077     9538.550     1900.801        2.521        1.093      168.274       43.505        0.067      349.995       30.831      860.495
07/13/2013  16:12:00     -179.858       28.211      -20.339       93.089       71.938       46.672     8665.512     5175.038     2178.238        2.479        0.801      182.057       44.604        0.060      349.802       30.496      860.494
07/13/2013  16:13:00     -154.509       18.691      -15.444       56.670       61.842       48.984     3211.447     3824.420     2399.439        1.695        0.472      155.635       20.204        0.017      350.102       31.017      860.484
07/13/2013  16:14:00     -111.980       37.060        3.008       95.608       61.354       42.050     9140.907     3764.260     1768.171        1.429        0.734      117.953       42.792        0.132      350.258       31.289      860.478
07/13/2013  16:15:00     -212.972      207.104      -39.938      155.130      108.246       69.570    24065.392    11717.130     4839.949        6.523        2.031      297.067       77.363        0.068      349.622       30.183      860.485
07/13/2013  16:16:00     -314.557       80.640      -39.659      144.358      123.904       54.933    20839.376    15352.169     3017.581        7.311        1.960      324.729       69.890        0.046      349.377       29.755      860.479
07/13/2013  16:17:00     -140.658       22.136      -27.115       65.157       71.767       31.657     4245.466     5150.571     1002.179        1.570        0.520      142.389       33.753        0.056      349.356       29.722      860.458
07/13/2013  16:18:00      -72.971       84.483       -5.115       83.955       67.238       52.638     7048.377     4520.938     2770.799        1.341        0.717      111.634       57.279        0.263      349.751       30.409      860.450
07/13/2013  16:19:00      -47.055      -31.984       15.995       74.988       33.869       27.831     5623.136     1147.121      774.556        0.552        0.377       56.896       32.863        0.334      349.844       30.570      860.425
07/13/2013  16:20:00     -215.302      -72.786        1.449      138.654       94.567       61.112    19225.014     8942.925     3734.629        4.177        1.595      227.273       57.829        0.065      350.064       30.949      860.445
07/13/2013  16:21:00     -343.794     -245.566        4.970      179.652      159.892       90.883    32274.993    25565.311     8259.773       12.230        3.305      422.489      101.675        0.058      349.618       30.175      860.434
07/13/2013  16:22:00     -184.920      -78.327       13.437      163.354      116.356       56.581    26684.435    13538.652     3201.428        4.196        2.171      200.824       58.919        0.086      349.818       30.522      860.432
07/13/2013  16:23:00     -393.655      -76.039      -22.964      166.273       95.827       65.891    27646.787     9182.833     4341.663       10.121        2.059      400.932       75.454        0.035      349.843       30.564      860.470
07/13/2013  16:24:00     -226.121      -73.965      -25.408      153.626       95.238       47.813    23601.074     9070.364     2286.118        4.610        1.748      237.910       48.927        0.042      349.692       30.303      860.450
07/13/2013  16:25:00     -367.394     -110.036       -9.506      154.116       93.960       63.893    23751.761     8828.573     4082.309        9.191        1.833      383.518       79.869        0.043      349.558       30.072      860.479
07/13/2013  16:26:00     -302.742      -85.889       -7.168      112.432      172.422       57.991    12640.879    29729.341     3362.997        7.240        2.287      314.690       55.222        0.031      349.486       29.945      860.458
07/13/2013  16:27:00     -137.500     -123.838        4.485      136.273      176.488       63.367    18570.383    31148.159     4015.396        4.399        2.687      185.047       62.267        0.113      349.916       30.694      860.462
07/13/2013  16:28:00      -87.894      -44.975       11.429       87.268       77.299       54.695     7615.790     5975.128     2991.537        1.323        0.829       98.732       52.992        0.288      349.611       30.166      860.474
07/13/2013  16:29:00      -67.402      -20.549        0.864      116.994       49.981       41.342    13687.674     2498.092     1709.185        1.143        0.895       70.465       57.057        0.656      349.637       30.208      860.441
07/13/2013  16:30:00     -116.982       52.988       -3.199      120.057       83.560       48.343    14413.743     6982.285     2337.033        2.011        1.187      128.424       55.038        0.184      349.576       30.105      860.428
07/13/2013  16:31:00     -123.452       11.855       -2.398      104.871       81.526       55.964    10997.945     6646.520     3131.963        1.808        1.039      124.020       58.087        0.219      349.881       30.633      860.406
07/13/2013  16:32:00     -357.055      -73.243      -26.493      180.585      117.417       86.426    32610.814    13786.783     7469.412        9.370        2.693      364.490       80.628        0.049      350.062       30.946      860.419
07/13/2013  16:33:00     -341.968     -147.602      -35.402      226.146      142.292       70.616    51142.065    20247.104     4986.556       10.816        3.819      372.463       84.152        0.051      349.554       30.065      860.408
07/13/2013  16:34:00     -210.322      -31.103        3.968      107.338       80.766       64.928    11521.458     6523.119     4215.627        3.373        1.113      212.609       57.465        0.073      349.983       30.809      860.430
07/13/2013  16:35:00     -265.630      -77.247       -6.852      111.821       92.263       56.603    12503.842     8512.536     3203.894        5.039        1.211      276.634       50.266        0.033      349.907       30.677      860.424
07/13/2013  16:36:00     -297.605      -51.266      -23.801      120.361      136.062       69.419    14486.888    18512.900     4819.051        6.478        1.891      301.989       61.587        0.042      349.938       30.729      860.399
07/13/2013  16:37:00     -200.042     -113.625       -3.219      139.317       96.775       54.935    19409.278     9365.403     3017.856        4.236        1.590      230.060       67.656        0.086      349.857       30.591      860.393
07/13/2013  16:38:00      -64.710      -14.552       25.071      136.486       68.312       51.769    18628.524     4666.588     2680.032        1.550        1.299       66.326       68.782        1.075      350.036       30.902      860.367
07/13/2013  16:39:00     -337.527      -96.677      -33.235      230.243      167.823       84.029    53011.610    28164.530     7060.812       10.629        4.412      351.099      110.356        0.099      349.970       30.787      860.380
07/13/2013  16:40:00     -408.577     -115.328      -33.408      167.723      174.582       74.862    28131.158    30478.788     5604.297       12.277        3.211      424.542       84.028        0.039      349.788       30.469      860.369
07/13/2013  16:41:00     -423.545       89.968      -40.200      144.630       97.561       60.390    20917.748     9518.106     3646.945       11.159        1.704      432.995       61.957        0.020      349.424       29.838      860.392
07/13/2013  16:42:00     -253.740       -5.530      -10.614       86.187      107.117       50.027     7428.193    11474.052     2502.718        4.296        1.070      253.801       38.815        0.023      349.459       29.898      860.372
07/13/2013  16:43:00     -236.461      -13.416      -19.891      102.547      140.563       63.585    10515.855    19757.885     4043.023        4.540        1.716      236.841       49.687        0.044      349.759       30.419      860.336
07/13/2013  16:44:00     -150.812       40.122      -26.371       52.722       78.512       48.935     2779.563     6164.178     2394.640        1.819        0.567      156.058       26.074        0.028      349.694       30.309      860.325
07/13/2013  16:45:00     -158.824       78.401      -14.104      120.257      122.860       60.129    14461.833    15094.663     3615.459        3.236        1.659      177.121       61.175        0.119      349.739       30.386      860.325
07/13/2013  16:46:00     -275.149       15.653      -21.084      137.809       94.936       55.707    18991.429     9012.923     3103.259        5.375        1.555      275.594       59.258        0.046      349.729       30.369      860.318
07/13/2013  16:47:00     -185.156       50.138       -8.238      106.201      107.808       67.443    11278.629    11622.585     4548.566        3.215        1.372      191.824       54.463        0.081      349.752       30.408      860.309
07/13/2013  16:48:00     -381.658      -22.377      -26.970      168.762      101.538       66.975    28480.499    10310.056     4485.653        9.507        2.164      382.313       68.702        0.032      349.625       30.186      860.288
07/13/2013  16:49:00     -493.049        6.880      -45.534      164.914      122.504       61.286    27196.717    15007.144     3755.980       14.558        2.298      493.097       49.032        0.010      349.769       30.437      860.270
07/13/2013  16:50:00     -358.324      -59.380      -25.844      125.576      142.436       62.510    15769.212    20288.008     3907.475        8.627        1.998      363.211       54.834        0.023      350.080       30.976      860.312
07/13/2013  16:51:00     -224.171      -46.753        3.975      125.431       79.626       55.629    15732.902     6340.252     3094.628        3.881        1.258      228.994       52.172        0.052      350.041       30.910      860.308
07/13/2013  16:52:00     -356.439     -126.527        1.747      273.108      128.614       67.544    74587.779    16541.501     4562.130       11.936        4.785      378.230       70.199        0.034      349.885       30.638      860.314
07/13/2013  16:53:00     -504.777     -191.032      -22.931      192.761      179.344       86.084    37156.849    32164.169     7410.459       18.426        3.837      539.716       91.253        0.029      349.429       29.847      860.300
07/13/2013  16:54:00     -519.375      -70.414      -31.063      161.957      141.400       82.871    26230.004    19994.089     6867.579       16.437        2.655      524.126       82.537        0.025      349.514       29.993      860.298
07/13/2013  16:55:00     -487.167     -167.797      -22.145      157.276      149.015       73.208    24735.871    22205.480     5359.339       15.913        2.615      515.255       75.623        0.022      349.533       30.028      860.306
07/13/2013  16:56:00     -395.264     -138.513      -15.087      165.069      111.507       65.584    27247.913    12433.807     4301.220       10.981        2.199      418.831       55.128        0.017      349.480       29.935      860.301
07/13/2013  16:57:00     -240.848     -155.242      -18.764      116.310      110.690       54.233    13528.062    12252.372     2941.231        5.559        1.436      286.545       53.567        0.035      349.401       29.798      860.294
07/13/2013  16:58:00     -126.246      -93.218      -16.209       97.629       66.994       50.040     9531.488     4488.150     2504.022        2.070        0.826      156.932       46.650        0.088      349.457       29.896      860.245
07/13/2013  16:59:00     -292.477      -54.853      -12.944      130.789       83.558       51.496    17105.794     6981.900     2651.875        5.772        1.337      297.577       48.745        0.027      349.763       30.428      860.258
07/13/2013  17:00:00     -428.102     -112.174      -12.681       98.837      102.585       53.583     9768.734    10523.607     2871.139       10.958        1.158      442.555       48.347        0.012      349.626       30.189      860.237
07/13/2013  17:01:00     -196.925     -122.696       29.514      222.282      114.667       90.455    49409.212    13148.551     8182.159        6.271        3.537      232.022      118.502        0.261      349.878       30.626      860.252
07/13/2013  17:02:00     -290.134      -63.866      -10.563      142.699      139.341       61.115    20363.040    19416.037     3735.089        6.593        2.176      297.080       74.720        0.063      349.829       30.541      860.251
07/13/2013  17:03:00     -202.000     -135.717        2.877      160.041      117.552       65.079    25613.186    13818.473     4235.273        5.144        2.183      243.358       64.649        0.071      349.861       30.598      860.230
07/13/2013  17:04:00     -297.662     -203.388       -0.324      185.329      128.041       78.787    34347.012    16394.543     6207.336        9.345        2.847      360.513       86.878        0.058      349.723       30.357      860.218
07/13/2013  17:05:00     -327.095      -45.313       -7.203      186.757      139.722       74.215    34878.355    19522.200     5507.925        8.449        2.995      330.219       82.281        0.062      349.944       30.741      860.236
07/13/2013  17:06:00     -265.919     -109.585       -2.874      144.514      137.857       82.437    20884.250    19004.658     6795.901        6.470        2.334      287.614       82.896        0.083      349.858       30.591      860.266
07/13/2013  17:07:00     -346.133      -92.110      -13.255      170.524      199.767       88.029    29078.584    39907.000     7749.136       10.259        3.837      358.180       90.021        0.063      349.657       30.242      860.278
07/13/2013  17:08:00     -414.186     -191.115      -26.191      202.408      141.304       86.483    40968.923    19966.724     7479.256       13.857        3.421      456.152       81.786        0.032      349.527       30.018      860.295
07/13/2013  17:09:00     -298.488     -129.161       -0.306      169.654      112.000       74.351    28782.401    12543.994     5528.112        7.631        2.343      325.234       80.407        0.061      349.521       30.008      860.302
07/13/2013  17:10:00     -257.466      -92.561      -10.922      174.497      106.596       64.104    30449.069    11362.761     4109.324        6.044        2.296      273.598       76.327        0.078      349.548       30.054      860.291
07/13/2013  17:11:00     -376.992     -164.482      -11.014      212.178      171.638       79.597    45019.500    29459.593     6335.744       12.504        4.041      411.312       81.594        0.039      349.539       30.038      860.285
07/13/2013  17:12:00     -317.951     -127.034        6.303      180.003      138.388       71.944    32401.063    19151.284     5175.899        8.699        2.836      342.390       89.318        0.068      349.647       30.226      860.261
07/13/2013  17:13:00     -233.665     -231.382       -0.548      156.686      176.546       66.801    24550.529    31168.454     4462.349        8.415        3.009      328.842       70.760        0.046      349.426       29.842      860.256
07/13/2013  17:14:00     -198.514      -85.549        7.002      163.190      109.813       72.240    26630.908    12058.915     5218.566        4.533        2.195      216.163       78.912        0.133      349.640       30.214      860.245
07/13/2013  17:15:00     -143.886      -75.574       12.882      114.664       90.251       52.791    13147.750     8145.209     2786.850        2.533        1.204      162.526       58.136        0.128      349.759       30.422      860.203
07/13/2013  17:16:00     -463.883     -130.391      -17.384      197.346      138.900       94.566    38945.573    19293.106     8942.640       14.982        3.359      481.860       87.199        0.033      349.654       30.236      860.239
07/13/2013  17:17:00     -211.719      -44.988       -6.998      121.559      110.737       60.069    14776.657    12262.628     3608.256        3.877        1.532      216.446       42.546        0.039      349.737       30.382      860.289
07/13/2013  17:18:00     -241.635      -61.115       12.096      146.906      131.809       68.130    21581.378    17373.660     4641.736        5.292        2.180      249.244       74.032        0.088      349.792       30.477      860.260
07/13/2013  17:19:00     -312.083      -63.576      -35.882      114.738       99.401       57.175    13164.736     9880.466     3268.997        6.451        1.316      318.493       56.347        0.031      349.649       30.229      860.271
07/13/2013  17:20:00     -385.058      -33.760      -28.025      107.318      121.013       56.845    11517.161    14644.164     3231.338        8.979        1.470      386.535       58.362        0.023      349.714       30.340      860.265
07/13/2013  17:21:00     -232.487      -76.109      -34.612      119.405      109.692       52.106    14257.547    12032.265     2715.087        4.502        1.450      244.628       30.269        0.015      349.644       30.220      860.241
07/13/2013  17:22:00     -193.115      -63.186       12.092      131.849      107.330       71.404    17384.198    11519.639     5098.531        3.771        1.700      203.189       67.852        0.112      349.839       30.558      860.227
07/13/2013  17:23:00     -217.381      -51.162      -11.573      148.672       91.156       49.869    22103.320     8309.492     2486.904        4.145        1.645      223.320       49.451        0.049      349.711       30.336      860.243
07/13/2013  17:24:00     -288.471     -138.255       -2.005      155.121      128.813       64.342    24062.478    16592.746     4139.896        7.356        2.240      319.891       66.003        0.043      349.707       30.331      860.237
07/13/2013  17:25:00     -362.325     -130.469      -11.562      167.503      124.697       68.819    28057.354    15549.425     4735.999        9.838        2.417      385.099       58.295        0.023      349.741       30.388      860.232
07/13/2013  17:26:00     -444.018      -97.007      -19.444      144.999      149.949       72.852    21024.841    22484.585     5307.378       12.787        2.441      454.491       62.812        0.019      349.626       30.189      860.229
07/13/2013  17:27:00     -231.076      -69.609       -0.037      140.423      105.464       57.882    19718.598    11122.733     3350.355        4.621        1.710      241.333       63.996        0.070      349.725       30.360      860.250
07/13/2013  17:28:00     -270.319        2.660      -20.376       91.866       79.645       44.011     8439.397     6343.387     1936.957        4.510        0.836      270.332       32.378        0.014      349.409       29.813      860.212
07/13/2013  17:29:00     -361.403      -59.114        2.543      166.364      101.417       76.706    27677.077    10285.348     5883.838        8.897        2.192      366.205       80.328        0.048      349.640       30.212      860.241
07/13/2013  17:30:00     -223.176        0.962       11.914      177.452       85.265       64.050    31489.312     7270.154     4102.342        4.640        2.143      223.178       79.485        0.127      349.731       30.372      860.238
07/13/2013  17:31:00     -562.227      -76.523      -33.561      220.455      157.738       88.518    48600.385    24881.232     7835.435       20.218        4.066      567.411       85.915        0.023      349.484       29.943      860.256
07/13/2013  17:32:00     -226.853      -93.160        6.116      205.678      151.810       91.334    42303.601    23046.344     8341.829        6.692        3.685      245.237      103.022        0.176      349.541       30.042      860.262
07/13/2013  17:33:00     -106.313       -4.131       15.414      121.660       84.028       61.790    14801.037     7060.664     3818.009        1.861        1.284      106.393       62.238        0.342      349.681       30.286      860.255
07/13/2013  17:34:00     -279.866     -140.222        4.163      196.608      117.695       61.543    38654.526    13852.185     3787.582        7.714        2.815      313.029       69.990        0.050      349.677       30.278      860.261
07/13/2013  17:35:00     -261.905     -141.858        5.015      211.299      135.973       68.886    44647.122    18488.522     4745.228        7.830        3.394      297.856       81.695        0.075      349.532       30.026      860.242
07/13/2013  17:36:00     -238.029      -38.690        3.960      182.343      115.248       61.450    33249.004    13282.105     3776.120        5.423        2.515      241.153       72.187        0.090      349.598       30.141      860.242
07/13/2013  17:37:00      -60.738       43.482        2.612       60.714       68.904       36.799     3686.167     4747.795     1354.191        0.769        0.489       74.698       37.646        0.254      349.691       30.306      860.238
07/13/2013  17:38:00     -181.998      -25.052      -10.636       87.585      120.664       59.091     7671.143    14559.690     3491.691        2.979        1.286      183.714       55.274        0.091      349.710       30.335      860.218
07/13/2013  17:39:00     -197.524       16.652      -20.693      184.594      121.661       62.811    34075.053    14801.486     3945.260        4.626        2.641      198.225       73.902        0.139      349.584       30.118      860.224
07/13/2013  17:40:00     -349.542     -110.550      -20.075      175.216      138.092       84.388    30700.617    19069.313     7121.276        9.584        2.845      366.607       94.938        0.067      349.597       30.139      860.204
07/13/2013  17:41:00     -330.947      -37.845      -12.286      137.702      139.449       74.524    18961.975    19445.922     5553.813        7.753        2.198      333.104       58.642        0.031      349.643       30.216      860.214
07/13/2013  17:42:00     -260.557      -13.296      -15.110      139.888      117.646       55.778    19568.731    13840.499     3111.170        5.240        1.826      260.896       58.107        0.050      349.677       30.276      860.208
07/13/2013  17:43:00     -498.273      -43.914      -44.931      141.398      151.171       75.734    19993.492    22852.540     5735.650       15.039        2.429      500.205       76.224        0.023      349.532       30.025      860.207
07/13/2013  17:44:00     -373.815     -147.634      -27.968      187.309      137.341       76.357    35084.698    18862.419     5830.432       11.103        2.989      401.912       72.147        0.032      349.560       30.073      860.224
07/13/2013  17:45:00     -217.487     -118.658       -2.076      190.947      108.707       70.187    36460.628    11817.115     4926.204        5.728        2.660      247.751       73.065        0.087      349.632       30.201      860.238
07/13/2013  17:46:00     -333.935       10.874      -31.400      154.158      115.656       69.430    23764.800    13376.400     4820.570        7.728        2.098      334.112       57.571        0.030      349.533       30.027      860.238
07/13/2013  17:47:00     -333.595      -69.083      -26.085      154.507       99.952       66.816    23872.391     9990.327     4464.340        7.753        1.916      340.673       56.616        0.028      349.568       30.088      860.203
07/13/2013  17:48:00     -284.680     -125.923        1.744      137.732      102.291       60.224    18970.208    10463.548     3626.906        6.497        1.653      311.287       64.951        0.044      349.602       30.147      860.209
07/13/2013  17:49:00     -252.781      -67.025      -15.659      106.396      126.939       63.064    11320.048    16113.549     3977.101        5.002        1.571      261.516       52.366        0.040      349.655       30.239      860.216
07/13/2013  17:50:00     -362.511      -91.201       -4.146      254.600      141.018       74.777    64821.122    19886.110     5591.582       11.501        4.515      373.807       92.015        0.061      349.701       30.319      860.226
07/13/2013  17:51:00     -376.369     -137.218       -9.044      172.070      170.437      109.774    29608.179    29048.773    12050.395       11.562        3.535      400.602      108.255        0.073      349.562       30.077      860.220
07/13/2013  17:52:00     -485.242     -207.319      -35.844      187.970      198.755       96.024    35332.721    39503.693     9220.658       18.187        4.203      527.675       89.371        0.029      349.368       29.739      860.217
07/13/2013  17:53:00     -443.093     -191.723      -28.465      214.601      193.350       99.056    46053.432    37384.314     9812.159       16.356        4.662      482.793      109.869        0.052      349.305       29.632      860.222
07/13/2013  17:54:00     -375.819     -162.399       -8.823      213.910      147.732       84.838    45757.418    21824.634     7197.488       12.122        3.739      409.407      112.077        0.075      349.367       29.738      860.237
07/13/2013  17:55:00     -306.475     -149.687       -1.537      216.302      154.355       99.393    46786.461    23825.582     9879.054        9.840        4.025      341.076      110.865        0.106      349.391       29.781      860.206
07/13/2013  17:56:00     -300.283     -215.857       -8.772      162.259      137.090       80.411    26327.933    18793.768     6465.937        9.420        2.579      369.816       86.638        0.055      349.389       29.777      860.224
07/13/2013  17:57:00     -286.909     -214.595       15.695      182.576      124.315       87.220    33334.082    15454.196     7607.400        9.249        2.820      358.284       97.447        0.074      349.320       29.659      860.215
07/13/2013  17:58:00     -306.650     -201.086      -15.818      214.514      173.492       86.062    46016.196    30099.493     7406.685       10.910        4.176      366.701      103.552        0.080      349.379       29.759      860.184
07/13/2013  17:59:00     -353.245      -86.934        6.228      123.626      160.351       64.089    15283.387    25712.291     4107.380        8.873        2.255      363.785       65.466        0.032      349.341       29.693      860.168
07/13/2013  18:00:00     -194.285      -43.201       -3.607      136.496       87.878       55.111    18631.143     7722.497     3037.200        3.450        1.470      199.030       67.431        0.115      349.560       30.074      860.172
07/13/2013  18:01:00     -178.463       22.235       -9.452       64.608       61.793       35.731     4174.257     3818.342     1276.728        2.085        0.463      179.843       30.124        0.028      349.612       30.165      860.161
07/13/2013  18:02:00     -164.240      -95.876        4.260      191.975       96.967       69.326    36854.357     9402.552     4806.062        4.361        2.553      190.176       73.588        0.150      349.695       30.310      860.182
07/13/2013  18:03:00     -295.916     -119.646        9.868      199.144      131.419       84.272    39658.488    17270.967     7101.701        8.299        3.202      319.189       89.221        0.078      349.509       29.986      860.191
07/13/2013  18:04:00     -306.299     -181.449        4.114      197.681      126.853      103.468    39077.899    16091.752    10705.705        9.630        3.294      356.010      106.180        0.089      349.283       29.594      860.187
07/13/2013  18:05:00     -195.490     -163.162        9.741      199.900      166.051      102.687    39960.019    27573.033    10544.653        7.149        3.904      254.634      110.045        0.187      349.303       29.628      860.188
07/13/2013  18:06:00     -295.112     -114.398       -7.206      147.835      118.275       63.885    21855.223    13989.075     4081.285        7.007        1.996      316.509       63.209        0.040      349.353       29.716      860.187
07/13/2013  18:07:00     -326.647      -67.833       -1.550      210.347      184.655       83.822    44246.035    34097.502     7026.203        9.832        4.268      333.615       97.665        0.086      349.372       29.749      860.202
07/13/2013  18:08:00     -362.557     -250.619      -25.503      183.995      163.858      111.108    33854.212    26849.392    12344.957       13.396        3.652      440.746      112.752        0.065      349.277       29.585      860.169
07/13/2013  18:09:00     -315.096     -142.048        3.811      250.451      223.857      101.355    62725.617    50111.827    10272.887       12.127        6.156      345.634      111.978        0.105      349.350       29.711      860.154
07/13/2013  18:10:00     -279.469     -151.204       14.458      196.732      147.116       93.791    38703.399    21643.252     8796.762        8.515        3.457      317.751       98.488        0.096      349.372       29.747      860.191
07/13/2013  18:11:00     -360.359     -183.000      -10.002      211.650      165.902       86.449    44795.868    27523.475     7473.414       12.160        3.990      404.163       98.489        0.059      349.258       29.550      860.199
07/13/2013  18:12:00     -291.910     -187.443       -7.912      206.875      150.032       88.729    42797.334    22509.581     7872.887        9.678        3.659      346.910      105.070        0.092      349.255       29.546      860.186
07/13/2013  18:13:00     -238.979     -245.682       -4.575      188.311      160.805      102.509    35461.037    25858.333    10508.066        9.465        3.591      342.739      117.242        0.117      349.312       29.645      860.166
07/13/2013  18:14:00     -242.583     -136.883        3.448      134.326      135.062       68.124    18043.443    18241.746     4640.824        5.925        2.046      278.538       83.109        0.089      349.402       29.801      860.171
07/13/2013  18:15:00     -380.587     -210.118       -4.552      220.776      166.477       99.334    48741.868    27714.502     9867.225       13.765        4.316      434.737      110.080        0.064      349.288       29.603      860.172
07/13/2013  18:16:00     -420.794     -222.205      -13.093      261.026      229.577      111.165    68134.559    52705.658    12357.572       17.988        6.660      475.860      120.693        0.064      349.328       29.671      860.173
07/13/2013  18:17:00     -263.150     -219.987        3.953      176.733      116.802       80.870    31234.665    13642.786     6539.968        8.453        2.571      342.990       79.055        0.053      349.287       29.601      860.210
07/13/2013  18:18:00     -335.602     -276.397        6.741      239.149      161.861       90.008    57192.362    26198.908     8101.520       14.026        4.575      434.769      113.904        0.069      349.239       29.518      860.201
07/13/2013  18:19:00     -408.602     -203.642        2.327      244.837      137.760       95.886    59945.278    18977.689     9194.050       14.826        4.406      456.537      116.869        0.066      349.164       29.388      860.224
07/13/2013  18:20:00     -316.268     -196.655       -4.890      185.874      145.345       67.769    34549.219    21125.166     4592.612        9.948        3.013      372.423       76.329        0.042      349.221       29.485      860.246
07/13/2013  18:21:00     -423.642     -250.592      -32.956      194.469      131.898       89.396    37818.066    17397.189     7991.597       15.327        3.160      492.208       83.086        0.028      349.159       29.378      860.244
07/13/2013  18:22:00     -310.688     -190.003        7.207      214.040      163.587      108.063    45813.135    26760.851    11677.709       10.845        4.213      364.181      115.059        0.100      349.176       29.409      860.236
07/13/2013  18:23:00     -326.616     -255.336       -2.279      208.597      184.327       94.298    43512.594    33976.622     8892.064       12.911        4.319      414.578       98.263        0.056      349.191       29.436      860.228
07/13/2013  18:24:00     -227.935     -103.852       19.324      189.149      130.582       88.816    35777.316    17051.626     7888.315        6.190        3.036      250.479       94.998        0.144      349.241       29.522      860.218
07/13/2013  18:25:00     -338.265     -245.248       14.169      256.925      217.621       90.983    66010.399    47359.014     8277.987       14.818        6.082      417.815      121.024        0.084      349.159       29.378      860.223
07/13/2013  18:26:00     -435.976     -312.366        5.208      228.411      157.135       96.745    52171.513    24691.548     9359.604       18.693        4.311      536.328      109.283        0.042      349.096       29.269      860.219
07/13/2013  18:27:00     -280.301     -232.735       -3.804      157.375      143.620       85.977    24766.840    20626.754     7391.999        9.276        2.639      364.327       97.052        0.071      349.172       29.402      860.238
07/13/2013  18:28:00     -341.385     -173.484       -2.922      196.578      115.517       68.267    38643.039    13344.084     4660.369       10.164        2.832      382.937       82.023        0.046      349.218       29.482      860.240
07/13/2013  18:29:00     -641.496     -331.197      -36.014      216.803      176.488       92.696    47003.660    31148.115     8592.614       30.461        4.337      721.948      102.784        0.020      349.065       29.215      860.246
07/13/2013  18:30:00     -214.039     -159.647        7.677      164.885      134.164       68.977    27187.206    17999.990     4757.892        6.064        2.497      267.020       85.340        0.102      349.210       29.469      860.267
07/13/2013  18:31:00     -281.138     -146.782       19.077      216.096      177.067      103.126    46697.628    31352.651    10635.053        9.480        4.434      317.149      128.485        0.164      349.201       29.453      860.291
07/13/2013  18:32:00     -471.367     -309.190      -17.789      239.216      172.827       99.945    57224.387    29869.083     9989.020       20.757        4.854      563.725      105.478        0.035      349.045       29.181      860.289
07/13/2013  18:33:00     -362.482     -193.144       -9.091      209.655      158.330      107.845    43955.285    25068.492    11630.586       12.470        4.033      410.729      123.416        0.090      349.078       29.238      860.297
07/13/2013  18:34:00     -329.294     -156.454       17.739      229.877      145.282       78.952    52843.483    21106.831     6233.374       10.669        4.009      364.571       93.240        0.065      349.056       29.201      860.296
07/13/2013  18:35:00     -416.696     -120.669      -12.703      230.243      140.654       82.567    53011.866    19783.473     6817.272       13.397        3.981      433.816       96.525        0.050      349.073       29.230      860.283
07/13/2013  18:36:00     -368.422     -218.496        1.063      184.721      124.074       87.697    34121.889    15394.374     7690.743       12.033        2.860      428.340       99.433        0.054      349.071       29.226      860.299
07/13/2013  18:37:00     -348.064     -182.820      -16.717      178.247      142.133       89.544    31771.849    20201.708     8018.047       10.741        3.000      393.156       70.952        0.033      349.098       29.272      860.299
07/13/2013  18:38:00     -466.756     -269.622      -23.988      244.248      177.883      107.628    59657.255    31642.276    11583.696       19.699        5.144      539.034      120.136        0.050      348.974       29.058      860.294
07/13/2013  18:39:00     -286.400     -160.741        5.267      172.551      148.187       82.691    29773.848    21959.399     6837.824        8.322        2.929      328.425       97.871        0.089      349.072       29.228      860.323
07/13/2013  18:40:00     -448.511     -198.624       -6.354      214.168      182.254       98.562    45867.773    33216.486     9714.509       16.471        4.440      490.524      114.932        0.055      348.966       29.045      860.327
07/13/2013  18:41:00     -331.862     -166.374       -9.017      141.755      164.822       75.498    20094.348    27166.268     5699.995        9.542        2.648      371.232       70.886        0.036      349.056       29.199      860.348
07/13/2013  18:42:00     -415.638     -227.893       -7.427      200.418      160.637       86.882    40167.345    25804.107     7548.439       14.912        3.676      474.015       72.603        0.023      348.949       29.014      860.326
07/13/2013  18:43:00     -326.170     -180.118        2.515      167.975      165.155       88.809    28215.576    27276.275     7886.998       10.109        3.169      372.598       94.647        0.065      348.997       29.100      860.370
07/13/2013  18:44:00     -348.381     -271.187      -10.400      160.511      145.291       90.749    25763.659    21109.370     8235.437       12.505        2.755      441.488       81.662        0.034      348.979       29.066      860.362
07/13/2013  18:45:00     -253.797     -176.780      -11.858      143.532      140.816       69.843    20601.488    19829.024     4877.982        7.055        2.265      309.296       74.442        0.058      349.072       29.228      860.366
07/13/2013  18:46:00     -312.368      -91.131      -17.007      229.044      161.355       76.676    52461.045    26035.422     5879.140        9.525        4.219      325.390       91.848        0.080      349.038       29.170      860.347
07/13/2013  18:47:00     -369.017      -53.192      -27.606      227.323      152.694       80.102    51675.834    23315.600     6416.316       11.057        4.070      372.831       79.513        0.045      349.035       29.163      860.372
07/13/2013  18:48:00     -379.396      -42.695      -12.994      200.637      169.084       93.201    40255.226    28589.567     8686.352       11.172        3.877      381.791      105.416        0.076      349.017       29.133      860.364
07/13/2013  18:49:00     -331.001      -79.698       -6.151      217.994      149.988       84.926    47521.269    22496.353     7212.401        9.658        3.862      340.461      105.252        0.096      349.090       29.259      860.377
07/13/2013  18:50:00     -394.256     -211.689      -16.430      187.133      154.434       92.078    35018.946    23849.844     8478.372       13.392        3.367      447.493       82.874        0.034      348.919       28.962      860.348
07/13/2013  18:51:00     -444.643     -239.204      -37.170      219.153      193.930      104.708    48028.213    37608.754    10963.792       17.643        4.830      504.902      105.010        0.043      348.906       28.940      860.346
07/13/2013  18:52:00     -552.919     -265.281      -20.310      275.433      208.353      104.651    75863.384    43410.820    10951.786       25.334        6.511      613.264      132.257        0.047      348.818       28.787      860.370
07/13/2013  18:53:00     -349.819     -314.229      -14.531      215.902      155.635       93.453    46613.711    24222.119     8733.527       15.043        3.978      470.227      115.197        0.060      348.867       28.872      860.360
07/13/2013  18:54:00     -387.702     -336.876      -19.614      217.481      161.505      119.253    47297.798    26083.958    14221.194       17.588        4.380      513.613      130.907        0.065      348.848       28.839      860.348
07/13/2013  18:55:00     -364.378     -227.057      -26.440      173.025      169.251       86.950    29937.635    28645.905     7560.374       12.557        3.307      429.332       81.095        0.036      348.844       28.833      860.379
07/13/2013  18:56:00     -502.891     -188.949      -27.058      220.627      165.196       73.398    48676.295    27289.863     5387.317       18.533        4.068      537.216       80.330        0.022      348.824       28.799      860.395
07/13/2013  18:57:00     -546.503     -164.188      -36.747      239.897      134.390       83.808    57550.733    18060.649     7023.839       20.479        4.132      570.634       96.514        0.029      348.823       28.796      860.385
07/13/2013  18:58:00     -464.734     -139.475      -28.753      224.626      181.865       82.038    50456.773    33074.974     6730.160       16.324        4.513      485.213       93.722        0.037      348.862       28.863      860.381
07/13/2013  18:59:00     -319.535     -173.834       -3.314      208.114      160.507       97.979    43311.334    25762.549     9599.888       10.549        3.934      363.760      113.291        0.097      348.876       28.888      860.398
07/13/2013  19:00:00     -412.386     -107.406       -6.359      228.373      145.626       75.969    52154.081    21207.056     5771.279       13.037        3.957      426.143      102.178        0.057      348.837       28.821      860.400
07/13/2013  19:01:00     -514.116     -214.645      -15.821      212.363      192.724       97.734    45098.013    37142.637     9551.948       20.120        4.590      557.125      109.425        0.039      348.780       28.723      860.399
07/13/2013  19:02:00     -452.973     -121.279      -14.212      178.974      182.651       94.956    32031.867    33361.371     9016.570       14.724        3.720      468.928       88.385        0.036      348.790       28.739      860.422
07/13/2013  19:03:00     -481.892     -184.356       -6.185      248.606      170.113      112.679    61804.988    28938.411    12696.466       18.482        5.172      515.953      130.910        0.064      348.751       28.671      860.428
07/13/2013  19:04:00     -356.179     -195.175      -24.104      200.433      169.618       77.607    40173.544    28770.426     6022.903       12.024        3.748      406.148       82.478        0.041      348.745       28.662      860.427
07/13/2013  19:05:00     -313.071     -156.211       -0.266      199.234      178.844       90.176    39694.331    31985.260     8131.779       10.110        3.991      349.879      111.052        0.101      348.770       28.706      860.448
07/13/2013  19:06:00     -424.308     -205.819      -30.697      193.761      127.530       85.285    37543.309    16263.928     7273.543       14.220        3.054      471.591       78.965        0.028      348.758       28.684      860.463
07/13/2013  19:07:00     -338.587     -100.080        0.915      251.527      163.961      105.089    63265.665    26883.143    11043.607       11.291        5.060      353.069      132.719        0.141      348.781       28.725      860.477
07/13/2013  19:08:00     -460.656     -283.885      -27.681      229.498      207.535       94.496    52669.298    43070.976     8929.422       19.909        5.233      541.105      108.743        0.040      348.708       28.597      860.476
07/13/2013  19:09:00     -313.696     -100.005        8.588      211.109      144.779       79.144    44566.982    20960.975     6263.732        9.012        3.590      329.251       94.019        0.082      348.769       28.703      860.543
07/13/2013  19:10:00     -255.676      -76.706       12.853      238.435      162.743       97.804    56851.191    26485.386     9565.661        8.214        4.645      266.934      125.606        0.221      348.764       28.697      860.548
07/13/2013  19:11:00     -249.217     -223.361       12.579      205.105      152.891      100.406    42068.132    23375.525    10081.411        9.383        3.776      334.663      127.980        0.146      348.721       28.620      860.562
07/13/2013  19:12:00     -414.367     -278.559      -18.156      188.224      160.429       80.440    35428.331    25737.581     6470.613       15.862        3.382      499.294       71.416        0.020      348.672       28.535      860.548
07/13/2013  19:13:00     -343.920     -300.683      -37.065      150.051      151.055       89.977    22515.259    22817.516     8095.828       13.174        2.671      456.827       80.792        0.031      348.685       28.558      860.576
07/13/2013  19:14:00     -247.861      -50.261       -0.239      140.943      125.803       67.834    19865.033    15826.410     4601.398        5.212        2.015      252.906       70.391        0.077      348.798       28.753      860.609
07/13/2013  19:15:00     -244.772     -115.574        4.338      207.146      162.523      107.963    42909.533    26413.774    11656.034        7.712        4.049      270.686      120.948        0.200      348.669       28.530      860.599
07/13/2013  19:16:00     -257.540     -163.690       -9.290      146.954      148.124       70.448    21595.459    21940.620     4962.934        7.084        2.425      305.157       75.900        0.062      348.665       28.523      860.622
07/13/2013  19:17:00     -283.936      -24.978      -13.492      163.695      103.937       55.763    26795.912    10802.801     3109.524        6.106        2.035      285.032       62.695        0.048      348.681       28.553      860.651
07/13/2013  19:18:00     -315.475      -13.604      -18.012      208.174       93.128       67.930    43336.289     8672.836     4614.523        7.832        2.831      315.768       89.090        0.080      348.734       28.643      860.643
07/13/2013  19:19:00     -368.309      -73.427      -17.567      180.355      133.880       70.857    32527.877    17923.949     5020.665        9.840        2.774      375.557       93.545        0.062      348.665       28.522      860.675
07/13/2013  19:20:00     -214.291     -131.499       17.236      215.436      158.539       74.254    46412.589    25134.651     5513.649        7.027        3.853      251.421      104.194        0.172      348.678       28.547      860.676
07/13/2013  19:21:00     -424.620      -96.187      -10.587      232.097      150.697       88.267    53868.830    22709.718     7791.099       13.700        4.218      435.378       94.322        0.047      348.575       28.369      860.679
07/13/2013  19:22:00     -546.204      -97.271      -35.138      239.532      181.772       89.270    57375.649    33041.077     7969.045       20.369        4.919      554.797       97.012        0.031      348.504       28.244      860.674
07/13/2013  19:23:00     -320.491      -88.013       14.430      196.654      139.040       79.533    38672.672    19332.220     6325.431        8.749        3.217      332.357      101.145        0.093      348.522       28.275      860.688
07/13/2013  19:24:00     -174.996      -39.303        8.722      146.935      110.822       65.487    21589.895    12281.613     4288.508        3.519        1.908      179.355       68.176        0.144      348.597       28.407      860.712
07/13/2013  19:25:00     -488.721       -0.603      -27.611      159.407      131.821       78.039    25410.557    17376.874     6090.072       14.423        2.444      488.722       78.842        0.026      348.491       28.222      860.739
07/13/2013  19:26:00     -269.884      -21.470      -11.218      131.446      109.916       61.400    17277.963    12081.544     3769.916        5.327        1.656      270.736       60.218        0.049      348.545       28.317      860.751
07/13/2013  19:27:00     -305.004      -33.932       -8.065      128.976       98.033       60.575    16634.853     9610.428     3669.380        6.207        1.496      306.886       66.390        0.047      348.523       28.278      860.781
07/13/2013  19:28:00     -436.734      -58.157      -33.126      224.868      140.965       88.214    50565.614    19871.014     7781.710       13.670        3.911      440.589       97.552        0.049      348.481       28.205      860.780
07/13/2013  19:29:00     -509.897     -114.380      -23.927      188.306      130.508       90.057    35459.116    17032.376     8110.173       16.711        3.030      522.569       87.319        0.028      348.398       28.062      860.789
07/13/2013  19:30:00     -292.447      -68.923       -2.909      185.766      117.979       78.712    34509.022    13918.969     6195.632        7.244        2.731      300.459       87.634        0.085      348.442       28.139      860.789
07/13/2013  19:31:00     -376.698      -77.017      -12.693      178.066      131.528       75.422    31707.436    17299.630     5688.472       10.133        2.735      384.491       88.544        0.053      348.384       28.038      860.832
07/13/2013  19:32:00     -282.539      -94.554       -9.763      169.526      132.739       70.627    28739.121    17619.512     4988.233        7.010        2.567      297.941       80.347        0.073      348.400       28.065      860.834
07/13/2013  19:33:00     -484.143     -133.658      -21.142      185.600      146.866       74.269    34447.382    21569.550     5515.894       15.711        3.077      502.253       80.231        0.026      348.344       27.967      860.826
07/13/2013  19:34:00     -425.130      -63.066      -20.454      181.048      131.502       85.811    32778.489    17292.728     7363.517       12.127        2.872      429.782       93.003        0.047      348.336       27.952      860.863
07/13/2013  19:35:00     -495.773      -57.273      -30.517      195.002      152.098       82.782    38025.789    23133.701     6852.824       15.899        3.401      499.070       85.746        0.030      348.281       27.858      860.864
07/13/2013  19:36:00     -296.692      -65.768       -7.460      210.051      102.874       65.742    44121.311    10583.047     4322.074        7.570        2.951      303.894       87.733        0.083      348.318       27.924      860.874
07/13/2013  19:37:00     -409.663      -58.364       -8.439      152.445      163.610       75.138    23239.488    26768.096     5645.754       11.347        2.783      413.799       78.711        0.036      348.285       27.865      860.882
07/13/2013  19:38:00     -381.709      -95.752      -10.135      251.680      162.166       76.864    63342.606    26297.901     5908.079       12.524        4.777      393.535       99.680        0.064      348.246       27.799      860.875
07/13/2013  19:39:00     -263.728      -60.523      -13.129      138.702      130.922       81.344    19238.338    17140.453     6616.766        5.818        2.150      270.584       73.386        0.074      348.279       27.856      860.901
07/13/2013  19:40:00     -382.783     -107.352      -10.483      209.777      185.803       90.338    44006.262    34522.844     8160.911       12.241        4.335      397.552       87.263        0.048      348.217       27.746      860.906
07/13/2013  19:41:00     -550.135     -186.100       -4.894      218.060      160.462       97.340    47550.271    25747.971     9475.170       21.002        4.139      580.759      105.316        0.033      348.158       27.646      860.907
07/13/2013  19:42:00     -435.765      -66.163      -22.617      197.371      167.225       84.281    38955.125    27964.074     7103.277       13.439        3.701      440.759       98.437        0.050      348.175       27.676      860.914
07/13/2013  19:43:00     -361.759     -111.096      -11.284      148.513      175.004       74.461    22056.061    30626.284     5544.400       10.077        2.911      378.433       75.848        0.040      348.153       27.637      860.934
07/13/2013  19:44:00     -375.680     -157.885       -8.333      153.131      132.443       73.440    23449.225    17541.144     5393.378       10.625        2.319      407.509       75.158        0.034      348.122       27.583      860.966
07/13/2013  19:45:00     -341.760      -10.448      -13.324      169.467      104.834       74.144    28719.221    10990.252     5497.356        8.114        2.260      341.920       85.058        0.062      348.142       27.618      860.986
07/13/2013  19:46:00     -333.009      -60.405      -27.481      147.775      122.523       55.180    21837.341    15011.890     3044.800        7.759        1.995      338.443       53.507        0.025      348.141       27.617      860.979
07/13/2013  19:47:00     -381.294      -75.062      -25.349      150.336      159.345       67.909    22600.994    25390.903     4611.676       10.212        2.630      388.612       59.081        0.023      348.087       27.523      860.997
07/13/2013  19:48:00     -414.523      -97.214      -11.996      193.850      142.253       73.542    37577.902    20235.949     5408.490       12.231        3.161      425.770       83.273        0.038      348.092       27.532      860.982
07/13/2013  19:49:00     -313.595        1.648      -10.148      169.792      119.626       82.143    28829.298    14310.480     6747.528        7.416        2.494      313.599       83.956        0.072      348.088       27.526      861.009
07/13/2013  19:50:00     -256.647      -40.643       -5.738      166.246      104.295       64.584    27637.806    10877.492     4171.094        5.511        2.134      259.845       59.756        0.053      348.062       27.480      861.040
07/13/2013  19:51:00     -396.502      -52.489      -14.890      207.891      188.137       74.251    43218.531    35395.366     5513.154       12.214        4.206      399.961       90.484        0.051      348.018       27.404      861.053
07/13/2013  19:52:00     -430.862       18.779      -18.570      166.907      164.881       94.548    27858.004    27185.586     8939.408       12.515        3.199      431.271       88.263        0.042      347.998       27.370      861.058
07/13/2013  19:53:00     -377.810      -52.953      -27.458      164.401      115.116       66.745    27027.695    13251.799     4454.925        9.551        2.237      381.503       61.355        0.026      347.970       27.322      861.090
07/13/2013  19:54:00     -380.176     -107.946       -3.289      171.984      133.889       78.389    29578.657    17926.346     6144.908       10.491        2.682      395.204       84.692        0.046      347.932       27.256      861.100
07/13/2013  19:55:00     -405.305     -100.147      -12.282      141.931      125.332       75.800    20144.314    15708.039     5745.600       10.802        2.080      417.495       75.099        0.032      347.899       27.197      861.126
07/13/2013  19:56:00     -528.679     -107.157      -58.181      193.306      196.634       85.425    37367.403    38665.007     7297.470       18.883        4.166      539.429       85.143        0.025      347.876       27.157      861.141
07/13/2013  19:57:00     -328.561      -41.707      -32.017      121.007      108.520       66.028    14642.711    11776.672     4359.755        7.074        1.539      331.197       61.466        0.034      347.860       27.130      861.167
07/13/2013  19:58:00     -492.184      -19.424      -41.118      165.600      166.014       72.170    27423.196    27560.745     5208.491       15.224        3.010      492.567       65.961        0.018      347.834       27.083      861.188
07/13/2013  19:59:00     -353.767     -136.623      -16.445      260.346      171.489       74.988    67779.978    29408.614     5623.165       12.343        5.141      379.232       70.487        0.035      347.823       27.067      861.187
07/13/2013  20:00:00     -402.458      -47.740      -16.520      180.654      128.291       77.576    32635.982    16458.511     6018.062       10.981        2.756      405.279       89.844        0.049      347.797       27.024      861.202
07/13/2013  20:01:00     -315.438      -67.842       -7.093      218.775      122.791       77.354    47862.478    15077.643     5983.608        8.653        3.446      322.651      101.039        0.098      347.749       26.941      861.203
07/13/2013  20:02:00     -537.576     -160.561      -12.428      208.159      176.958       98.327    43330.075    31314.171     9668.215       19.960        4.216      561.042      109.059        0.038      347.740       26.926      861.193
07/13/2013  20:03:00     -417.531     -146.636        1.526      182.577      132.721       74.678    33334.389    17614.977     5576.815       12.617        2.826      442.532       69.409        0.025      347.745       26.933      861.190
07/13/2013  20:04:00     -367.418      -15.875      -11.153      136.118      115.458       68.762    18527.977    13330.525     4728.224        8.597        1.829      367.761       67.318        0.034      347.727       26.901      861.217
07/13/2013  20:05:00     -335.132     -109.060      -27.202      189.800      142.413       86.253    36023.866    20281.385     7439.531        9.433        3.187      352.430       93.755        0.071      347.715       26.880      861.202
07/13/2013  20:06:00     -434.387      -59.658       -5.736      156.940      128.072       75.867    24630.079    16402.441     5755.764       11.953        2.339      438.464       74.098        0.029      347.695       26.846      861.220
07/13/2013  20:07:00     -452.549      -46.043      -32.110      138.531      114.430       71.432    19190.911    13094.230     5102.466       12.266        1.869      454.886       59.823        0.017      347.678       26.816      861.222
07/13/2013  20:08:00     -504.793      -68.308      -39.033      155.430      110.613       67.482    24158.332    12235.186     4553.790       15.097        2.047      509.393       73.966        0.021      347.667       26.799      861.215
07/13/2013  20:09:00     -300.416      -67.002      -10.460      118.182      100.037       57.499    13967.021    10007.435     3306.183        6.106        1.364      307.797       49.385        0.026      347.638       26.748      861.235
07/13/2013  20:10:00     -340.338     -152.461        1.755      188.549      143.573       76.914    35550.752    20613.312     5915.808       10.057        3.104      372.926       70.557        0.036      347.586       26.660      861.244
07/13/2013  20:11:00     -364.789      -69.067        0.437      208.338      176.591       84.588    43404.647    31184.263     7155.089       10.978        4.087      371.270       90.439        0.059      347.589       26.665      861.240
07/13/2013  20:12:00     -533.084      -90.027      -41.600      173.389      136.036       83.851    30063.713    18505.804     7030.937       17.480        2.780      540.632       83.794        0.024      347.587       26.662      861.261
07/13/2013  20:13:00     -375.857      -74.195       -8.202      190.369      137.106       92.733    36240.174    18798.158     8599.494       10.523        3.182      383.110      103.246        0.073      347.551       26.600      861.256
07/13/2013  20:14:00     -431.451     -105.251       -6.136      185.767      143.685       83.679    34509.221    20645.388     7002.245       12.970        3.108      444.103       93.351        0.044      347.545       26.589      861.265
07/13/2013  20:15:00     -280.165      -45.347       -1.966      164.362       94.070       56.067    27014.802     8849.195     3143.513        5.977        1.950      283.811       61.488        0.047      347.530       26.564      861.268
07/13/2013  20:16:00     -575.915       -8.627      -43.644      182.675      148.077       88.658    33370.180    21926.796     7860.183       19.839        3.158      575.980       82.876        0.021      347.516       26.538      861.267
07/13/2013  20:17:00     -345.242     -126.372      -17.159      179.192      109.275       65.990    32109.735    11941.128     4354.746        9.192        2.420      367.644       69.519        0.036      347.499       26.509      861.287
07/13/2013  20:18:00     -466.980      -99.467      -18.563      164.396      142.179       76.369    27025.998    20214.807     5832.231       14.068        2.654      477.455       66.554        0.019      347.504       26.518      861.270
07/13/2013  20:19:00     -494.629      -80.315      -38.482      190.313      149.534       74.885    36219.090    22360.476     5607.747       15.838        3.209      501.107       71.561        0.020      347.469       26.455      861.284
07/13/2013  20:20:00     -296.127      -77.492      -18.098      152.644      145.879       77.474    23300.338    21280.765     6002.162        7.229        2.529      306.098       66.675        0.047      347.432       26.391      861.300
07/13/2013  20:21:00     -330.163      -40.996      -27.256       99.549       99.103       51.005     9909.904     9821.316     2601.496        6.688        1.117      332.698       48.360        0.021      347.433       26.392      861.324
07/13/2013  20:22:00     -327.290      -83.059        5.468      156.108      105.867       60.537    24369.603    11207.785     3664.698        7.664        1.962      337.665       74.618        0.049      347.391       26.322      861.342
07/13/2013  20:23:00     -435.719      -62.612       -9.297      276.917      134.928      106.177    76683.260    18205.446    11273.600       14.999        5.308      440.195      139.669        0.101      347.410       26.355      861.345
07/13/2013  20:24:00     -341.599        8.190      -31.980      162.721      151.006       71.405    26477.966    22802.945     5098.714        8.607        2.719      341.697       72.286        0.045      347.405       26.346      861.359
07/13/2013  20:25:00     -262.854      -56.524      -22.559      134.452      157.365       59.024    18077.245    24763.816     3483.779        5.955        2.316      268.863       56.362        0.044      347.377       26.297      861.375
07/13/2013  20:26:00     -258.317     -165.290      -28.156      154.174      102.196       69.701    23769.766    10444.088     4858.262        6.695        1.954      306.673       62.440        0.041      347.377       26.299      861.383
07/13/2013  20:27:00     -255.823     -105.501       -5.055      159.839       97.872       71.654    25548.517     9578.861     5134.305        5.842        2.013      276.723       76.051        0.076      347.357       26.264      861.391
07/13/2013  20:28:00     -231.049      -64.611        7.381      132.747      101.750       68.012    17621.653    10352.962     4625.693        4.510        1.630      239.913       75.326        0.099      347.319       26.199      861.424
07/13/2013  20:29:00     -201.563      -71.555        5.864      154.880       83.036       59.977    23987.668     6895.018     3597.274        4.012        1.724      213.888       69.007        0.104      347.329       26.217      861.450
07/13/2013  20:30:00     -191.240      -54.285       -0.327      128.103       85.596       54.512    16410.484     7326.590     2971.508        3.311        1.335      198.795       57.428        0.083      347.277       26.127      861.451
07/13/2013  20:31:00     -179.758      -31.609      -28.507      115.483       99.085       53.521    13336.215     9817.891     2864.459        3.007        1.301      182.516       56.989        0.097      347.278       26.128      861.467
07/13/2013  20:32:00     -329.184     -108.874      -21.293       88.139       85.840       65.567     7768.433     7368.421     4299.047        7.005        0.972      346.721       48.952        0.020      347.297       26.159      861.467
07/13/2013  20:33:00     -288.066      -14.570      -30.569      140.125      118.547       49.443    19634.952    14053.362     2444.616        6.012        1.807      288.434       44.524        0.024      347.257       26.091      861.490
07/13/2013  20:34:00     -104.432       29.089       -1.542      123.961       85.659       52.862    15366.401     7337.421     2794.380        1.862        1.275      108.408       35.990        0.110      347.237       26.060      861.495
07/13/2013  20:35:00     -296.156      -75.851       -5.992      158.442      110.839       56.219    25103.758    12285.363     3160.527        6.702        2.027      305.715       67.514        0.049      347.246       26.072      861.494
07/13/2013  20:36:00     -165.181      -28.724      -28.223      143.143       70.747       53.256    20489.800     5005.095     2836.204        2.861        1.417      167.659       57.832        0.119      347.226       26.039      861.510
07/13/2013  20:37:00     -217.682      -36.632      -22.994       97.734      102.642       58.895     9551.938    10535.456     3468.667        3.640        1.178      220.743       48.441        0.048      347.194       25.983      861.503
07/13/2013  20:38:00      -99.874      -19.644       -2.410      102.863       88.384       49.523    10580.827     7811.725     2452.516        1.560        1.042      101.788       52.444        0.265      347.130       25.875      861.533
07/13/2013  20:39:00     -110.694      -40.611       -7.616       89.964       68.962       39.183     8093.594     4755.731     1535.277        1.417        0.719      117.908       30.732        0.068      347.095       25.816      861.536
07/13/2013  20:40:00     -186.202      -90.701       -3.039       95.860       72.536       46.312     9189.108     5261.485     2144.822        2.975        0.830      207.117       51.272        0.061      347.054       25.742      861.548
07/13/2013  20:41:00      -91.349        5.706      -34.717       92.838      109.838       43.530     8618.961    12064.377     1894.903        1.608        1.129       91.527       15.895        0.030      347.087       25.801      861.550
07/13/2013  20:42:00     -206.187       83.832      -42.191       92.385      102.573       46.092     8534.915    10521.284     2124.493        3.625        1.059      222.578       18.823        0.007      347.119       25.855      861.560
07/13/2013  20:43:00     -172.250       96.570       -1.051      127.896       85.257       63.975    16357.495     7268.774     4092.779        3.335        1.386      197.474       76.205        0.149      347.126       25.866      861.549
07/13/2013  20:44:00     -122.662      135.196      -17.571      119.448      135.443       58.819    14267.792    18344.809     3459.704        3.485        1.804      182.548       57.445        0.099      347.165       25.935      861.550
07/13/2013  20:45:00     -175.213       31.164      -12.029      118.260       88.690       63.542    13985.393     7865.954     4037.626        2.885        1.294      177.963       75.266        0.179      347.162       25.928      861.564
07/13/2013  20:46:00     -259.391       42.670      -33.941      112.041       98.390       55.496    12553.227     9680.656     3079.773        4.778        1.266      262.878       49.420        0.035      347.190       25.977      861.592
07/13/2013  20:47:00     -224.732       26.299      -25.055      110.154      127.497       53.932    12133.835    16255.489     2908.687        4.155        1.565      226.266       53.557        0.056      347.164       25.931      861.602
07/13/2013  20:48:00     -193.750        8.596      -17.418      107.596       97.864       40.937    11576.821     9577.285     1675.808        3.037        1.141      193.940       39.529        0.042      347.116       25.851      861.591
07/13/2013  20:49:00     -158.232        8.475       -3.719      101.814      111.188       60.046    10366.056    12362.833     3605.528        2.572        1.317      158.459       55.143        0.121      347.114       25.848      861.622
07/13/2013  20:50:00     -132.212       61.454        8.067      103.617      115.182       61.779    10736.380    13266.936     3816.647        2.457        1.391      145.797       54.445        0.139      347.030       25.702      861.633
07/13/2013  20:51:00     -191.725       97.455      -25.970       78.714      101.727       55.553     6195.820    10348.477     3086.084        3.328        0.982      215.072       38.576        0.032      347.062       25.756      861.667
07/13/2013  20:52:00     -174.382       62.887      -24.232      102.270      114.273       60.772    10459.067    13058.432     3693.222        3.108        1.361      185.375       55.523        0.090      347.026       25.694      861.679
07/13/2013  20:53:00      -72.314       78.053      -19.863       64.189       84.872       50.142     4120.267     7203.303     2514.203        1.277        0.692      106.403       27.446        0.067      347.010       25.669      861.690
07/13/2013  20:54:00     -197.624      -19.772      -34.659       60.942       56.736       39.327     3713.888     3218.927     1546.605        2.456        0.424      198.611       30.311        0.023      347.047       25.732      861.721
07/13/2013  20:55:00     -236.770       11.700      -17.017      126.156      103.810       64.535    15915.367    10776.479     4164.706        4.367        1.543      237.059       59.733        0.063      346.974       25.606      861.746
07/13/2013  20:56:00     -131.264       98.530      -27.472       79.350      100.275       49.655     6296.437    10055.060     2465.654        2.325        0.941      164.129       48.136        0.086      346.959       25.579      861.749
07/13/2013  20:57:00     -114.524      154.484      -14.595       78.905      122.265       44.708     6226.043    14948.621     1998.840        3.018        1.159      192.305       39.537        0.042      346.939       25.544      861.761
07/13/2013  20:58:00     -103.462       58.111      -12.855       74.568      113.303       50.194     5560.386    12837.636     2519.413        1.758        1.046      118.664       55.361        0.218      346.929       25.529      861.772
07/13/2013  20:59:00     -149.540       14.970      -17.765       57.865       86.814       32.925     3348.407     7536.695     1084.051        1.743        0.598      150.287       26.854        0.032      346.921       25.514      861.795
07/13/2013  21:00:00      -60.758       31.424      -10.262       52.019       43.696       32.772     2705.967     1909.337     1074.001        0.524        0.284       68.403       27.908        0.166      346.782       25.276      861.806
07/13/2013  21:01:00      -73.951       86.528      -10.877       67.971       90.980       42.199     4620.113     8277.275     1780.750        1.387        0.734      113.824       39.881        0.123      346.834       25.366      861.823
07/13/2013  21:02:00     -107.149      113.133      -25.755       55.586       71.605       35.459     3089.766     5127.229     1257.346        1.721        0.474      155.820       33.549        0.046      346.820       25.342      861.831
07/13/2013  21:03:00     -105.148      107.774      -25.749       36.214       62.949       29.069     1311.450     3962.533      845.025        1.473        0.306      150.570       33.599        0.050      346.832       25.363      861.845
07/13/2013  21:04:00     -178.562      111.173      -25.251       89.851       74.954       35.758     8073.233     5618.156     1278.600        2.992        0.748      210.342       36.521        0.030      346.796       25.299      861.853
07/13/2013  21:05:00     -118.369      173.889      -28.100       84.625       87.936       42.919     7161.339     7732.710     1842.078        3.088        0.837      210.354       30.035        0.020      346.776       25.264      861.890
07/13/2013  21:06:00     -190.399      117.163      -29.129       79.760       96.849       39.291     6361.693     9379.798     1543.766        3.405        0.864      223.560       38.230        0.029      346.735       25.193      861.912
07/13/2013  21:07:00     -138.519       90.016      -25.936       87.905       60.392       42.343     7727.314     3647.152     1792.893        2.056        0.658      165.198       42.114        0.065      346.733       25.189      861.911
07/13/2013  21:08:00     -115.165      159.288      -20.647       65.055       62.101       40.502     4232.149     3856.535     1640.379        2.439        0.486      196.559       40.032        0.041      346.754       25.225      861.925
07/13/2013  21:09:00     -141.143      135.910      -28.741       63.192       90.510       41.373     3993.281     8192.096     1711.765        2.656        0.695      195.941       38.853        0.039      346.762       25.241      861.930
07/13/2013  21:10:00     -118.349      144.482      -20.466       79.715       74.116       40.320     6354.550     5493.224     1625.666        2.438        0.674      186.765       36.557        0.038      346.702       25.137      861.946
07/13/2013  21:11:00     -112.833      164.029      -23.490       71.009       95.535       44.617     5042.235     9126.927     1990.679        2.817        0.808      199.090       48.968        0.060      346.702       25.138      861.965
07/13/2013  21:12:00     -195.988       50.656      -26.215       68.878       91.070       37.732     4744.229     8293.702     1423.689        2.806        0.723      202.429       33.719        0.028      346.750       25.220      861.984
07/13/2013  21:13:00     -261.347       55.270      -42.049       79.357       81.503       48.577     6297.599     6642.713     2359.681        4.421        0.765      267.128       41.520        0.024      346.784       25.277      862.004
07/13/2013  21:14:00     -109.114      104.780      -23.501       61.803       59.327       37.334     3819.609     3519.683     1393.814        1.608        0.437      151.277       36.633        0.059      346.720       25.168      862.008
07/13/2013  21:15:00     -130.362       17.701       -6.575       51.542       48.756       36.194     2656.550     2377.152     1309.975        1.185        0.317      131.558       35.373        0.072      346.761       25.241      862.004
07/13/2013  21:16:00     -182.666       77.649      -26.334       75.685       87.094       51.528     5728.182     7585.318     2655.138        2.803        0.798      198.485       49.044        0.061      346.726       25.179      862.037
07/13/2013  21:17:00     -199.624       75.501      -26.875       74.614       63.930       40.109     5567.273     4086.996     1608.752        2.877        0.563      213.424       34.647        0.026      346.713       25.155      862.067
07/13/2013  21:18:00     -107.086       95.997       -8.437       63.148       66.400       41.353     3987.701     4408.941     1710.049        1.543        0.505      143.815       34.609        0.058      346.612       24.985      862.096
07/13/2013  21:19:00     -152.812      146.001      -33.937       71.003       90.550       47.414     5041.485     8199.316     2248.127        3.065        0.774      211.348       46.535        0.048      346.611       24.981      862.093
07/13/2013  21:20:00     -174.157      180.333      -34.044       78.344       93.347       48.035     6137.829     8713.743     2307.365        4.058        0.858      250.700       52.212        0.043      346.561       24.894      862.101
07/13/2013  21:21:00     -211.492       62.326      -18.060      114.175       83.868       60.089    13036.038     7033.843     3610.641        3.631        1.184      220.485       65.446        0.088      346.536       24.853      862.104
07/13/2013  21:22:00     -140.616       79.437      -20.797       73.230      133.893       44.851     5362.617    17927.259     2011.643        2.590        1.265      161.503       41.643        0.066      346.561       24.895      862.133
07/13/2013  21:23:00     -202.582       21.800      -30.037      104.129       74.046       44.178    10842.778     5482.776     1951.711        3.034        0.914      203.751       39.227        0.037      346.532       24.845      862.156
07/13/2013  21:24:00     -173.566       55.872      -34.747       63.357      104.525       45.375     4014.081    10925.429     2058.860        2.572        0.850      182.337       39.282        0.046      346.478       24.752      862.171
07/13/2013  21:25:00     -157.588       36.343      -14.597       68.376       52.117       40.360     4675.323     2716.186     1628.892        1.769        0.451      161.724       33.842        0.044      346.440       24.686      862.187
07/13/2013  21:26:00     -105.222       64.800      -10.212       58.074       57.522       39.913     3372.599     3308.732     1593.045        1.182        0.414      123.575       33.225        0.072      346.375       24.577      862.211
07/13/2013  21:27:00     -211.349      175.721      -52.426       75.945       79.085       43.417     5767.625     6254.405     1885.046        4.610        0.695      274.857       46.141        0.028      346.367       24.561      862.233
07/13/2013  21:28:00     -205.410       34.278      -20.913       94.233      139.383       63.387     8879.939    19427.640     4017.943        3.806        1.616      208.250       46.976        0.051      346.404       24.623      862.222
07/13/2013  21:29:00     -290.473      -37.243      -33.804       98.928       90.939       64.151     9786.722     8269.864     4115.402        5.453        1.109      292.851       61.064        0.043      346.384       24.590      862.211
07/13/2013  21:30:00     -151.311      -50.391       -3.865       77.073       70.840       51.427     5940.268     5018.357     2644.783        1.952        0.680      159.481       46.758        0.086      346.328       24.497      862.229
07/13/2013  21:31:00     -173.080      -60.057       -9.306       64.428       64.186       36.815     4151.031     4119.797     1355.371        2.164        0.481      183.204       30.772        0.028      346.263       24.382      862.245
07/13/2013  21:32:00     -164.272      -53.268      -10.551       39.595       57.219       25.910     1567.779     3274.015      671.320        1.772        0.276      172.693       18.548        0.012      346.237       24.339      862.265
07/13/2013  21:33:00     -257.425      -76.381      -20.537       83.891       51.172       38.813     7037.748     2618.557     1506.443        4.184        0.558      268.517       39.948        0.022      346.193       24.258      862.279
07/13/2013  21:34:00     -240.302      -50.598      -26.029      107.625       62.566       45.797    11583.233     3914.554     2097.383        3.929        0.880      245.572       44.882        0.033      346.209       24.289      862.293
07/13/2013  21:35:00     -229.994      -91.833      -17.497       89.521       62.064       48.444     8014.053     3851.965     2346.799        3.792        0.711      247.650       39.825        0.026      346.227       24.318      862.307
07/13/2013  21:36:00     -281.537      -23.128      -27.039       97.034       81.079       53.599     9415.621     6573.835     2872.844        4.969        0.943      282.486       57.136        0.041      346.183       24.242      862.321
07/13/2013  21:37:00     -177.890      101.246      -18.876       99.899       83.944       59.207     9979.751     7046.618     3505.461        3.139        1.027      204.684       62.238        0.092      346.154       24.195      862.332
07/13/2013  21:38:00     -167.834       47.618      -24.140       91.507      108.084       53.962     8373.479    11682.259     2911.944        2.699        1.148      174.459       53.419        0.094      346.184       24.246      862.324
07/13/2013  21:39:00     -161.128        3.046      -22.967       79.256       83.550       32.639     6281.443     6980.648     1065.324        2.041        0.716      161.156       20.904        0.017      346.232       24.329      862.342
07/13/2013  21:40:00     -100.596       29.567      -10.303       64.776       64.238       33.827     4195.905     4126.566     1144.299        1.028        0.473      104.851       34.782        0.110      346.191       24.260      862.348
07/13/2013  21:41:00     -191.237      -34.885      -10.461       88.354       72.321       46.600     7806.358     5230.330     2171.548        2.655        0.760      194.393       45.941        0.056      346.216       24.302      862.354
07/13/2013  21:42:00     -215.779      -89.301      -26.812      105.441       66.209       46.913    11117.773     4383.675     2200.794        3.647        0.885      233.528       44.053        0.036      346.148       24.183      862.359
07/13/2013  21:43:00     -268.184      -84.064      -17.835       96.233       91.571       52.935     9260.705     8385.177     2802.156        4.987        1.022      281.051       43.763        0.024      346.066       24.043      862.370
07/13/2013  21:44:00     -274.952      -52.025       -3.364      117.138       87.843       52.176    13721.406     7716.397     2722.344        5.123        1.208      279.831       40.378        0.021      346.060       24.032      862.375
07/13/2013  21:45:00     -255.387      -58.715      -15.229       94.298       81.877       54.439     8892.083     6703.849     2963.659        4.373        0.928      262.050       45.222        0.030      346.098       24.096      862.381
07/13/2013  21:46:00     -323.424       -4.764      -26.169      132.006      106.897       70.677    17425.609    11427.062     4995.217        6.957        1.692      323.459       69.542        0.046      346.081       24.068      862.378
07/13/2013  21:47:00     -287.225      -36.586      -13.138      111.905       90.350       60.923    12522.832     8163.043     3711.649        5.420        1.220      289.546       57.997        0.040      346.043       24.002      862.390
07/13/2013  21:48:00     -322.524      -31.438      -27.231       88.673       95.673       49.400     7862.955     9153.362     2440.377        6.260        0.973      324.052       45.913        0.020      346.056       24.026      862.391
07/13/2013  21:49:00     -228.080      -88.286       -4.799      113.909       85.336       57.394    12975.361     7282.309     3294.118        4.169        1.178      244.570       53.310        0.048      346.008       23.943      862.399
07/13/2013  21:50:00     -323.441      -34.875      -31.840      100.264       69.538       46.877    10052.925     4835.603     2197.438        6.196        0.854      325.316       35.075        0.012      345.984       23.903      862.414
07/13/2013  21:51:00     -332.782      -66.916      -24.365      113.109       78.154       50.992    12793.698     6108.083     2600.183        6.865        1.075      339.443       47.384        0.019      346.020       23.965      862.433
07/13/2013  21:52:00     -237.586     -100.484       -9.813      109.208      100.031       59.000    11926.379    10006.228     3480.942        4.602        1.271      257.961       51.890        0.040      346.242       24.345      862.409
07/13/2013  21:53:00     -348.615      -59.348      -11.546      147.093      127.345       77.668    21636.444    16216.811     6032.316        8.453        2.194      353.631       77.791        0.048      346.363       24.553      862.395
07/13/2013  21:54:00     -302.008     -113.272      -11.933      139.960      135.671       63.557    19588.922    18406.500     4039.483        7.310        2.102      322.551       58.070        0.032      346.361       24.549      862.409
07/13/2013  21:55:00     -398.112     -142.154      -22.834      169.619      106.211       70.360    28770.454    11280.819     4950.570       11.210        2.250      422.730       74.349        0.031      346.319       24.478      862.415
07/13/2013  21:56:00     -336.432      -69.615      -10.141      148.882      111.088       67.130    22165.975    12340.550     4506.413        7.857        1.951      343.559       76.151        0.049      346.358       24.544      862.421
07/13/2013  21:57:00     -364.647      -82.192      -16.425      158.077      104.393       72.314    24988.381    10897.796     5229.262        9.055        2.056      373.795       83.015        0.049      346.342       24.517      862.421
07/13/2013  21:58:00     -293.591      -24.860       -8.328      150.263      108.004       62.774    22578.987    11664.758     3940.541        6.253        1.909      294.641       72.778        0.061      346.314       24.469      862.411
07/13/2013  21:59:00     -203.672      -54.713       -2.107      118.522       96.418       57.030    14047.549     9296.392     3252.411        3.553        1.330      210.893       62.738        0.088      346.258       24.372      862.401
07/13/2013  22:00:00     -310.953     -183.371      -10.523      170.885      107.401       64.426    29201.663    11534.980     4150.698        8.765        2.244      360.995       79.863        0.049      346.285       24.421      862.377
07/13/2013  22:01:00     -322.324      -68.038      -12.091      119.666      111.507       65.861    14319.999    12433.852     4337.652        6.987        1.555      329.426       67.568        0.042      346.260       24.375      862.381
07/13/2013  22:02:00     -382.211      -73.017      -22.464      149.736       83.634       58.399    22420.993     6994.578     3410.478        9.237        1.641      389.123       59.249        0.023      346.243       24.346      862.379
07/13/2013  22:03:00     -344.268      -99.024       -7.749      151.044      108.628       64.242    22814.293    11800.106     4127.071        8.356        1.937      358.227       80.018        0.050      346.234       24.331      862.394
07/13/2013  22:04:00     -336.716      -96.261       -1.812      158.129      150.136       73.194    25004.721    22540.922     5357.310        8.776        2.645      350.205       78.333        0.050      346.236       24.335      862.395
07/13/2013  22:05:00     -351.951      -34.143      -18.064      178.281      117.611       66.735    31784.123    13832.459     4453.568        8.771        2.504      353.603       86.567        0.060      346.237       24.337      862.395
07/13/2013  22:06:00     -337.018       -1.691      -10.737      150.490      118.211       72.723    22647.145    13973.903     5288.602        7.780        2.095      337.022       79.775        0.056      346.228       24.320      862.419
07/13/2013  22:07:00     -315.520      -63.412      -36.649       90.735      119.188       55.219     8232.788    14205.735     3049.146        6.520        1.274      321.829       45.392        0.020      346.222       24.309      862.437
07/13/2013  22:08:00     -371.663      -27.524      -32.261      109.570      104.075       63.153    12005.629    10831.568     3988.363        8.337        1.341      372.680       55.373        0.022      346.226       24.317      862.462
07/13/2013  22:09:00     -303.443       11.353      -35.191       91.127       95.564       37.337     8304.125     9132.542     1394.024        5.613        0.942      303.656       33.807        0.012      346.176       24.232      862.485
07/13/2013  22:10:00     -186.431       32.152      -17.868       67.315       70.194       36.157     4531.357     4927.168     1307.321        2.344        0.538      189.183       34.006        0.032      346.164       24.211      862.522
07/13/2013  22:11:00      -90.777       31.166        3.348       54.516       42.350       27.662     2972.048     1793.545      765.167        0.738        0.277       95.978       27.806        0.084      346.114       24.128      862.538
07/13/2013  22:12:00     -182.644      141.454      -34.387       64.906       82.696       40.738     4212.747     6838.585     1659.573        3.363        0.636      231.015       39.126        0.029      346.057       24.028      862.570
07/13/2013  22:13:00     -149.652      200.130      -34.022       68.344       70.977       41.030     4670.855     5037.729     1683.470        3.750        0.570      249.895       34.697        0.019      345.992       23.916      862.564
07/13/2013  22:14:00      -85.669      173.715      -24.737       51.057       77.391       34.366     2606.792     5989.310     1181.009        2.395        0.489      193.690       36.895        0.036      345.935       23.818      862.567
07/13/2013  22:15:00      -93.962      190.942      -28.835       72.221       85.723       38.572     5215.867     7348.447     1487.813        3.008        0.703      212.809       33.621        0.025      345.889       23.739      862.562
07/13/2013  22:16:00     -140.007      208.138      -37.021       60.196       98.529       46.057     3623.567     9707.948     2121.242        3.987        0.773      250.846       40.489        0.026      345.871       23.708      862.559
07/13/2013  22:17:00     -102.884      122.662      -12.148       76.012       58.498       41.993     5777.748     3421.994     1763.422        1.837        0.548      160.098       41.603        0.068      345.811       23.607      862.577
07/13/2013  22:18:00     -176.811      123.339      -18.925       83.258      105.815       52.321     6931.927    11196.887     2737.443        3.385        1.043      215.580       48.494        0.051      345.924       23.799      862.602
07/13/2013  22:19:00     -159.428       99.724      -17.031       94.330      103.983       43.019     8898.177    10812.546     1850.594        2.860        1.078      188.048       41.077        0.048      345.888       23.738      862.612
07/13/2013  22:20:00     -205.884      201.008      -43.134       74.910       85.746       41.831     5611.522     7352.320     1749.871        4.968        0.736      287.736       38.139        0.018      345.853       23.676      862.621
07/13/2013  22:21:00     -145.238      184.078      -24.851      107.294      119.425       56.405    11511.925    14262.215     3181.580        4.227        1.448      234.476       67.210        0.082      345.790       23.569      862.624
07/13/2013  22:22:00     -153.402      239.378      -37.795       85.789       95.342       45.314     7359.682     9090.020     2053.394        5.038        0.925      284.313       50.874        0.032      345.760       23.517      862.632
07/13/2013  22:23:00     -153.315      255.858      -30.961       82.190       97.926       53.378     6755.261     9589.461     2849.259        5.456        0.960      298.276       49.157        0.027      345.703       23.420      862.627
07/13/2013  22:24:00     -123.896      273.768      -31.843       75.622       84.933       58.721     5718.674     7213.651     3448.107        5.384        0.819      300.498       50.724        0.028      345.700       23.415      862.626
07/13/2013  22:25:00      -56.118      295.299      -31.563       60.104       78.860       43.892     3612.490     6218.944     1926.497        5.155        0.588      300.584       38.007        0.016      345.777       23.546      862.576
07/13/2013  22:26:00      -42.742      247.941      -31.513       58.052       49.698       31.855     3369.985     2469.855     1014.765        3.557        0.343      251.598       12.152        0.002      345.723       23.452      862.573
07/13/2013  22:27:00     -181.672      163.958      -36.698       77.650       80.025       51.473     6029.450     6403.943     2649.455        3.816        0.754      244.718       45.567        0.035      345.747       23.496      862.655
07/13/2013  22:28:00      -85.328      114.565      -17.105       70.427       79.718       43.238     4959.985     6354.989     1869.523        1.694        0.659      142.850       44.320        0.096      345.731       23.469      862.680
07/13/2013  22:29:00     -168.250      206.361      -37.978       76.737       94.591       40.451     5888.527     8947.389     1636.273        4.440        0.824      266.258       48.575        0.033      345.725       23.456      862.688
07/13/2013  22:30:00      -95.592      142.015       -6.084       84.894       73.451       55.794     7207.070     5395.064     3112.998        2.253        0.786      171.191       50.482        0.087      345.736       23.476      862.662
07/13/2013  22:31:00      -73.615      324.925      -24.681       82.741      125.537       56.771     6846.080    15759.449     3222.911        6.871        1.291      333.160       66.045        0.039      345.722       23.452      862.640
07/13/2013  22:32:00     -102.949      258.275      -23.632       87.646      100.414       53.472     7681.822    10083.010     2859.227        4.924        1.031      278.037       47.893        0.030      345.725       23.458      862.633
07/13/2013  22:33:00     -136.096      144.968      -28.773       78.723       78.997       34.714     6197.376     6240.569     1205.036        2.700        0.682      198.841       36.388        0.033      345.686       23.392      862.675
07/13/2013  22:34:00     -202.872      167.741      -43.810       78.801       81.243       43.774     6209.565     6600.453     1916.132        4.297        0.736      263.238       41.460        0.025      345.802       23.590      862.725
07/13/2013  22:35:00     -154.754      168.644      -34.757       61.678       85.757       48.508     3804.182     7354.260     2353.023        3.355        0.676      228.888       44.420        0.038      345.787       23.564      862.731
07/13/2013  22:36:00     -240.776      186.568      -52.544      126.524       91.872       56.830    16008.444     8440.519     3229.616        6.160        1.384      304.599       62.543        0.042      345.891       23.743      862.751
07/13/2013  22:37:00     -189.401      135.272      -28.537      110.420      108.439       60.899    12192.656    11758.951     3708.726        4.132        1.383      232.747       57.026        0.060      345.859       23.690      862.777
07/13/2013  22:38:00     -244.635       90.705      -28.539       91.684       80.398       52.397     8406.004     6463.760     2745.458        4.325        0.881      260.909       48.376        0.034      345.882       23.726      862.782
07/13/2013  22:39:00     -183.871       33.528      -20.587       98.515      122.903       49.184     9705.284    15105.243     2419.080        3.129        1.361      186.902       44.237        0.056      345.835       23.647      862.786
07/13/2013  22:40:00     -138.655       31.865      -27.988       80.740       70.371       46.072     6518.906     4952.107     2122.668        1.731        0.680      142.270       37.822        0.071      345.721       23.453      862.780
07/13/2013  22:41:00     -240.032      -98.720       -1.894      153.221      143.342       83.980    23476.573    20546.925     7052.685        5.921        2.554      259.540       97.847        0.142      345.751       23.502      862.767
07/13/2013  22:42:00     -122.257       35.195      -23.550      102.684       64.110       48.414    10543.952     4110.144     2343.958        1.687        0.850      127.222       39.936        0.099      345.908       23.775      862.752
07/13/2013  22:43:00     -218.775      125.396      -31.750       92.139      107.641       52.614     8489.663    11586.609     2768.263        4.372        1.142      252.164       42.667        0.029      345.828       23.634      862.764
07/13/2013  22:44:00     -200.049      228.813      -45.332       85.285       81.265       48.765     7273.592     6603.967     2377.984        5.534        0.813      303.932       44.524        0.021      345.717       23.443      862.768
07/13/2013  22:45:00     -203.751      246.908      -47.002      114.877      106.334       63.943    13196.727    11306.837     4088.683        6.663        1.430      320.122       56.812        0.031      345.643       23.315      862.760
07/13/2013  22:46:00     -202.707      179.283      -34.358       94.051       91.683       50.238     8845.532     8405.813     2523.862        4.709        0.989      270.615       44.597        0.027      345.695       23.407      862.753
07/13/2013  22:47:00     -152.272      171.337      -32.231       73.438       70.989       36.490     5393.129     5039.501     1331.492        3.267        0.588      229.223       35.488        0.024      345.613       23.267      862.757
07/13/2013  22:48:00     -128.635       85.075      -17.955       67.938       90.934       42.372     4615.556     8269.079     1795.396        1.939        0.734      154.223       30.704        0.040      345.519       23.105      862.782
07/13/2013  22:49:00     -170.303       56.570      -20.713       94.681       98.935       54.548     8964.522     9788.041     2975.482        2.718        1.086      179.453       62.701        0.122      345.493       23.061      862.796
07/13/2013  22:50:00     -125.440       30.976      -14.126       75.592      110.388       50.858     5714.185    12185.491     2586.503        1.869        1.024      129.208       48.855        0.143      345.490       23.055      862.783
07/13/2013  22:51:00     -148.820       68.733      -16.426       67.121       71.745       42.782     4505.272     5147.340     1830.337        1.931        0.574      163.926       32.088        0.038      345.444       22.978      862.794
07/13/2013  22:52:00      -89.867       90.859       -5.531       75.282      103.106       52.459     5667.334    10630.831     2751.898        1.770        0.953      127.795       57.182        0.200      345.471       23.023      862.800
07/13/2013  22:53:00     -128.136       69.870       -8.747       58.235       62.119       45.477     3391.313     3858.735     2068.115        1.535        0.466      145.947       29.058        0.040      345.561       23.177      862.792
07/13/2013  22:54:00     -170.683      232.249      -39.222       79.975       79.708       44.450     6395.953     6353.345     1975.839        4.966        0.736      288.223       49.513        0.030      345.681       23.381      862.795
07/13/2013  22:55:00     -123.808      132.234       -8.204       70.772       82.994       47.399     5008.683     6887.983     2246.687        2.351        0.707      181.147       36.560        0.041      345.621       23.281      862.790
07/13/2013  22:56:00     -147.174      212.217      -10.755      108.906      119.728       61.615    11860.593    14334.709     3796.373        4.840        1.500      258.256       65.764        0.065      345.748       23.496      862.787
07/13/2013  22:57:00     -144.427       54.783      -12.515       65.060      103.202       39.877     4232.848    10650.664     1590.212        2.024        0.824      154.468       28.601        0.034      345.751       23.503      862.800
07/13/2013  22:58:00     -106.082      143.325      -17.393       72.444       86.419       43.653     5248.089     7468.279     1905.608        2.336        0.731      178.313       41.184        0.053      345.660       23.346      862.801
07/13/2013  22:59:00      -99.454      -23.364      -22.484       56.863       59.622       26.885     3233.450     3554.727      722.782        0.923        0.376      102.161       26.012        0.065      345.680       23.384      862.831
07/13/2013  23:00:00      -32.990       24.129        8.483       36.448       43.465       32.892     1328.455     1889.240     1081.903        0.302        0.215       40.872       20.009        0.240      345.650       23.332      862.841
07/13/2013  23:01:00      -82.363      111.970      -22.786       53.856       70.043       33.445     2900.436     4906.065     1118.542        1.438        0.446      139.000       28.476        0.042      345.672       23.368      862.830
07/13/2013  23:02:00      -98.017      100.415      -17.590       65.820       60.464       37.003     4332.336     3655.860     1369.205        1.468        0.468      140.323       37.279        0.071      345.633       23.301      862.854
07/13/2013  23:03:00     -168.757       94.710      -16.145      121.878       56.952       40.834    14854.193     3243.495     1667.449        2.873        0.988      193.517       43.755        0.051      345.658       23.344      862.855
07/13/2013  23:04:00     -131.384      186.870      -24.838       68.400       95.510       54.855     4678.567     9122.164     3009.102        3.480        0.840      228.434       56.167        0.060      345.669       23.363      862.850
07/13/2013  23:05:00     -111.193      105.553      -16.078       68.501       72.678       41.637     4692.444     5282.091     1733.640        1.773        0.585      153.314       42.269        0.076      345.622       23.281      862.881
07/13/2013  23:06:00     -100.225       64.583      -15.718       53.862      103.804       32.261     2901.101    10775.175     1040.785        1.459        0.736      119.231       26.702        0.050      345.623       23.285      862.897
07/13/2013  23:07:00     -154.303       22.181      -13.719       74.052       57.752       35.359     5483.768     3335.303     1250.274        1.728        0.503      155.889       26.994        0.030      345.617       23.273      862.915
07/13/2013  23:08:00     -101.184      -15.952       -1.384       49.252       53.392       34.113     2425.784     2850.710     1163.675        0.847        0.322      102.433       27.839        0.074      345.484       23.046      862.917
07/13/2013  23:09:00      -79.219       37.140       -9.745       31.582       31.176       19.976      997.440      971.919      399.052        0.506        0.118       87.493       11.156        0.016      345.521       23.109      862.920
07/13/2013  23:10:00      -49.373      111.785       -0.200       64.408       60.291       35.599     4148.374     3635.024     1267.264        1.199        0.453      122.203       35.783        0.086      345.491       23.058      862.925
07/13/2013  23:11:00      -80.024      202.443      -21.072       59.286      139.064       36.981     3514.855    19338.920     1367.601        3.602        1.211      217.686       40.365        0.034      345.589       23.225      862.913
07/13/2013  23:12:00     -106.025      171.845      -12.610       52.964       73.619       39.815     2805.150     5419.713     1585.251        2.537        0.491      201.921       42.404        0.044      345.524       23.114      862.939
07/13/2013  23:13:00      -60.154       81.289       -8.461       46.589       61.566       30.239     2170.537     3790.316      914.375        0.859        0.344      101.126       28.000        0.077      345.582       23.215      862.976
07/13/2013  23:14:00      -16.594      159.667      -17.577       40.185       61.605       21.121     1614.861     3795.204      446.105        1.597        0.293      160.527       24.284        0.023      345.567       23.188      862.979
07/13/2013  23:15:00      -63.945      156.053      -18.646       54.838       77.076       28.908     3007.205     5940.751      835.694        1.928        0.489      168.646       23.714        0.020      345.524       23.113      862.985
07/13/2013  23:16:00      -47.690      131.472      -10.571       41.350       83.940       33.975     1709.811     7045.965     1154.284        1.479        0.496      139.855       36.422        0.068      345.531       23.127      862.999
07/13/2013  23:17:00      -22.273       90.103      -10.081       26.773       52.851       17.206      716.775     2793.215      296.054        0.626        0.190       92.815       10.896        0.014      345.511       23.096      863.022
07/13/2013  23:18:00     -109.251       93.687      -19.262       66.923       56.566       38.325     4478.667     3199.732     1468.798        1.511        0.457      143.920       32.006        0.049      345.526       23.119      863.062
07/13/2013  23:19:00      -90.698       97.307       -8.705       60.662       51.643       36.619     3679.925     2667.010     1340.950        1.273        0.384      133.022       32.847        0.061      345.513       23.096      863.095
07/13/2013  23:20:00      -87.557       57.567      -20.260       39.123       35.624       21.647     1530.591     1269.061      468.590        0.733        0.163      104.786       16.892        0.026      345.493       23.062      863.110
07/13/2013  23:21:00      -70.498       56.362        4.330       55.421       47.758       35.275     3071.436     2280.854     1244.353        0.738        0.330       90.259       30.215        0.112      345.418       22.934      863.131
07/13/2013  23:22:00      -74.052       69.258      -18.255       42.247       27.784       26.191     1784.809      771.966      685.990        0.693        0.162      101.392       25.298        0.062      345.377       22.863      863.148
07/13/2013  23:23:00      -84.762      102.993      -16.886       74.974       99.042       42.715     5621.117     9809.321     1824.602        1.766        0.863      133.387       59.671        0.200      345.315       22.756      863.153
07/13/2013  23:24:00     -162.162      125.519      -15.327       83.820       79.906       48.565     7025.766     6384.897     2358.601        2.902        0.788      205.064       51.084        0.062      345.289       22.710      863.161
07/13/2013  23:25:00     -194.398      173.877      -43.131       94.499       89.821       46.691     8929.974     8067.890     2180.070        4.453        0.959      260.814       52.012        0.040      345.314       22.752      863.166
07/13/2013  23:26:00     -161.867        1.730       -0.585       91.819       61.454       45.453     8430.761     3776.645     2065.986        2.024        0.714      161.876       48.775        0.091      345.303       22.734      863.174
07/13/2013  23:27:00      -48.513       26.094       11.952       46.117       56.591       37.443     2126.786     3202.547     1401.951        0.495        0.337       55.086       20.010        0.132      345.178       22.522      863.179
07/13/2013  23:28:00     -111.951       57.720      -13.975       50.786       42.145       38.830     2579.241     1776.168     1507.776        1.096        0.293      125.955       32.774        0.068      345.262       22.667      863.191
07/13/2013  23:29:00     -103.754      150.466      -18.019       51.919       71.498       36.575     2695.545     5111.961     1337.723        2.144        0.457      182.770       30.106        0.027      345.228       22.608      863.186
07/13/2013  23:30:00     -169.321      110.955      -28.596       57.150       40.516       30.511     3266.157     1641.518      930.937        2.382        0.292      202.437       19.475        0.009      345.248       22.640      863.202
07/13/2013  23:31:00     -164.281       84.891       -9.210       72.036       56.364       39.112     5189.235     3176.855     1529.716        2.209        0.495      184.918       28.788        0.024      345.244       22.633      863.211
07/13/2013  23:32:00      -99.164      113.437      -13.414       78.036       45.927       38.628     6089.669     2109.320     1492.157        1.628        0.485      150.670       35.500        0.056      345.220       22.593      863.210
07/13/2013  23:33:00      -97.818      148.390      -15.193       57.371       72.167       36.964     3291.450     5208.100     1366.361        2.084        0.493      177.730       32.701        0.034      345.206       22.570      863.199
07/13/2013  23:34:00     -154.296      150.995      -28.437       73.942       79.524       37.304     5467.350     6324.093     1391.612        3.030        0.659      215.886       42.157        0.038      345.235       22.616      863.209
07/13/2013  23:35:00     -164.995      109.769      -24.681       79.294       81.639       34.413     6287.562     6664.984     1184.236        2.701        0.707      198.173       29.241        0.022      345.277       22.689      863.228
07/13/2013  23:36:00     -167.018      215.318      -44.582       74.874       70.490       40.152     5606.161     4968.894     1612.191        4.421        0.609      272.501       39.452        0.021      345.291       22.713      863.226
07/13/2013  23:37:00     -159.554      142.796      -34.193       78.141       84.163       46.825     6105.988     7083.456     2192.609        3.120        0.769      214.122       44.546        0.043      345.264       22.668      863.239
07/13/2013  23:38:00     -135.099      130.470      -28.521       50.030       72.392       41.351     2503.043     5240.559     1709.896        2.277        0.473      187.814       40.776        0.047      345.265       22.668      863.261
07/13/2013  23:39:00     -149.790      131.234      -32.961       50.529       84.212       36.715     2553.140     7091.705     1347.995        2.587        0.550      199.147       25.216        0.016      345.243       22.631      863.259
07/13/2013  23:40:00     -107.776      157.763      -24.987       64.486       74.161       43.754     4158.416     5499.845     1914.435        2.435        0.579      191.063       37.275        0.038      345.186       22.534      863.267
07/13/2013  23:41:00     -148.393      116.370      -19.107       80.044       76.192       46.707     6407.115     5805.265     2181.569        2.516        0.720      188.580       26.412        0.020      345.222       22.597      863.287
07/13/2013  23:42:00     -161.967      252.518      -31.133       72.770       83.064       52.159     5295.508     6899.705     2720.605        5.294        0.746      299.998       47.635        0.025      345.240       22.624      863.312
07/13/2013  23:43:00     -127.901      224.255      -26.521       80.342       81.249       47.476     6454.913     6601.325     2253.959        4.133        0.766      258.165       40.844        0.025      345.215       22.582      863.306
07/13/2013  23:44:00     -172.707      245.067      -51.437       72.787       83.525       45.820     5297.961     6976.504     2099.507        5.345        0.719      299.809       43.255        0.021      345.233       22.612      863.328
07/13/2013  23:45:00     -187.142      187.144      -41.789       58.005       76.132       42.280     3364.589     5796.050     1787.562        4.137        0.547      264.660       32.427        0.015      345.219       22.589      863.321
07/13/2013  23:46:00     -118.748      145.585      -21.021       65.015       62.835       45.428     4226.916     3948.227     2063.747        2.299        0.512      187.873       48.547        0.067      345.187       22.535      863.324
07/13/2013  23:47:00     -135.108      133.452      -28.158       52.118       87.827       34.081     2716.264     7713.566     1161.508        2.422        0.580      189.904       31.205        0.027      345.227       22.605      863.336
07/13/2013  23:48:00     -137.280       82.909       -9.206       92.163       92.747       47.091     8493.957     8601.963     2217.589        2.256        0.966      160.373       44.038        0.075      345.222       22.596      863.331
07/13/2013  23:49:00     -131.901       26.233      -16.212      108.019       63.493       52.631    11668.210     4031.310     2770.047        1.841        0.923      134.484       44.930        0.112      345.219       22.593      863.339
07/13/2013  23:50:00     -145.538       62.329      -33.091       67.015       77.844       41.302     4491.008     6059.700     1705.880        1.921        0.613      158.323       40.483        0.065      345.271       22.679      863.334
07/13/2013  23:51:00     -125.967       31.648      -20.738       85.090       44.999       32.290     7240.230     2024.870     1042.671        1.380        0.515      129.882       27.472        0.045      345.250       22.644      863.327
07/13/2013  23:52:00     -133.751       44.803      -21.041       53.578       66.755       36.385     2870.573     4456.286     1323.882        1.449        0.433      141.056       32.418        0.053      345.234       22.618      863.342
07/13/2013  23:53:00     -148.103       38.702      -13.547       72.552       67.740       44.726     5263.861     4588.772     2000.444        1.773        0.593      153.076       36.996        0.058      345.214       22.582      863.337
07/13/2013  23:54:00     -130.647       34.252      -24.478       50.858       81.051       43.513     2586.576     6569.209     1893.399        1.494        0.552      135.063       40.586        0.090      345.164       22.498      863.339
07/13/2013  23:55:00     -125.059      -68.116       -5.954       83.798       61.999       48.919     7022.127     3843.895     2393.100        1.678        0.663      142.406       41.934        0.087      345.119       22.420      863.345
07/13/2013  23:56:00     -126.590        1.288      -23.697       68.604       51.176       41.213     4706.532     2619.009     1698.482        1.280        0.451      126.597       24.656        0.038      345.170       22.508      863.350
07/13/2013  23:57:00      -67.576       15.434      -17.471       74.997       71.398       36.897     5624.574     5097.657     1361.363        0.859        0.604       69.316       30.482        0.193      345.259       22.662      863.348
07/13/2013  23:58:00      -14.786        2.992        9.607       78.000       47.205       24.904     6084.031     2228.314      620.196        0.462        0.447       15.086       12.419        0.678      345.159       22.489      863.362
07/13/2013  23:59:00     -101.315      -19.564        8.811       58.711       70.449       27.451     3446.969     4963.045      753.542        0.994        0.458      103.187       31.918        0.096      345.104       22.395      863.380
